<?xml version="1.0" encoding="UTF-8" standalone="no" ?>
<gpx xmlns="http://www.topografix.com/GPX/1/1" xmlns:xsi="http://www.w3.org/2001/XMLSchema-instance" xsi:schemaLocation="http://www.topografix.com/GPX/1/1 http://www.topografix.com/GPX/1/1/gpx.xsd" version="1.1" creator="VisuGPX - https://www.visugpx.com">
  <metadata>
    <name>PIERRE DE PAMOLE</name>
  </metadata>
  <trk>
    <name><![CDATA[Itinéraire]]></name>
    <extensions>
      <line xmlns="http://www.topografix.com/GPX/gpx_style/0/2">
        <color>0000FF</color>
        <width>4</width>
      </line>
    </extensions>
    <trkseg>
      <trkpt lat="45.88095" lon="3.60207">
        <ele>628.3</ele>
        <time>2025-10-28T21:01:28.999Z</time>
      </trkpt>
      <trkpt lat="45.8809" lon="3.60204">
        <ele>628.4</ele>
        <time>2025-10-28T21:01:28.999Z</time>
      </trkpt>
      <trkpt lat="45.88049" lon="3.6017">
        <ele>628.8</ele>
        <time>2025-10-28T21:01:28.999Z</time>
      </trkpt>
      <trkpt lat="45.87996" lon="3.60124">
        <ele>623.5</ele>
        <time>2025-10-28T21:01:28.999Z</time>
      </trkpt>
      <trkpt lat="45.87985" lon="3.60096">
        <ele>619.1</ele>
        <time>2025-10-28T21:01:28.999Z</time>
      </trkpt>
      <trkpt lat="45.87983" lon="3.60062">
        <ele>615.4</ele>
        <time>2025-10-28T21:01:28.999Z</time>
      </trkpt>
      <trkpt lat="45.87988" lon="3.60021">
        <ele>611.3</ele>
        <time>2025-10-28T21:01:28.999Z</time>
      </trkpt>
      <trkpt lat="45.88006" lon="3.59995">
        <ele>609.4</ele>
        <time>2025-10-28T21:01:28.999Z</time>
      </trkpt>
      <trkpt lat="45.88022" lon="3.59984">
        <ele>608.1</ele>
        <time>2025-10-28T21:01:28.999Z</time>
      </trkpt>
      <trkpt lat="45.88045" lon="3.59977">
        <ele>605.5</ele>
        <time>2025-10-28T21:01:28.999Z</time>
      </trkpt>
      <trkpt lat="45.88055" lon="3.59981">
        <ele>606</ele>
        <time>2025-10-28T21:01:28.999Z</time>
      </trkpt>
      <trkpt lat="45.8807" lon="3.59977">
        <ele>604.9</ele>
        <time>2025-10-28T21:01:28.999Z</time>
      </trkpt>
      <trkpt lat="45.88083" lon="3.59967">
        <ele>603.1</ele>
        <time>2025-10-28T21:01:28.999Z</time>
      </trkpt>
      <trkpt lat="45.88075" lon="3.59966">
        <ele>602.7</ele>
        <time>2025-10-28T21:01:28.999Z</time>
      </trkpt>
      <trkpt lat="45.88044" lon="3.59956">
        <ele>602.1</ele>
        <time>2025-10-28T21:01:28.999Z</time>
      </trkpt>
      <trkpt lat="45.88015" lon="3.5995">
        <ele>600.2</ele>
        <time>2025-10-28T21:01:28.999Z</time>
      </trkpt>
      <trkpt lat="45.88" lon="3.59951">
        <ele>599.5</ele>
        <time>2025-10-28T21:01:28.999Z</time>
      </trkpt>
      <trkpt lat="45.87985" lon="3.59955">
        <ele>598.5</ele>
        <time>2025-10-28T21:01:28.999Z</time>
      </trkpt>
      <trkpt lat="45.87956" lon="3.59973">
        <ele>598.3</ele>
        <time>2025-10-28T21:01:28.999Z</time>
      </trkpt>
      <trkpt lat="45.87945" lon="3.59978">
        <ele>597.3</ele>
        <time>2025-10-28T21:01:28.999Z</time>
      </trkpt>
      <trkpt lat="45.87934" lon="3.59982">
        <ele>596.2</ele>
        <time>2025-10-28T21:01:28.999Z</time>
      </trkpt>
      <trkpt lat="45.87873" lon="3.59984">
        <ele>595.3</ele>
        <time>2025-10-28T21:01:28.999Z</time>
      </trkpt>
      <trkpt lat="45.87836" lon="3.59983">
        <ele>594</ele>
        <time>2025-10-28T21:01:28.999Z</time>
      </trkpt>
      <trkpt lat="45.87797" lon="3.59981">
        <ele>592.6</ele>
        <time>2025-10-28T21:01:28.999Z</time>
      </trkpt>
      <trkpt lat="45.87742" lon="3.59963">
        <ele>587.7</ele>
        <time>2025-10-28T21:01:28.999Z</time>
      </trkpt>
      <trkpt lat="45.87654" lon="3.59923">
        <ele>587</ele>
        <time>2025-10-28T21:01:28.999Z</time>
      </trkpt>
      <trkpt lat="45.87615" lon="3.59907">
        <ele>586.6</ele>
        <time>2025-10-28T21:01:28.999Z</time>
      </trkpt>
      <trkpt lat="45.87475" lon="3.59879">
        <ele>583.8</ele>
        <time>2025-10-28T21:01:28.999Z</time>
      </trkpt>
      <trkpt lat="45.87447" lon="3.59878">
        <ele>583.9</ele>
        <time>2025-10-28T21:01:28.999Z</time>
      </trkpt>
      <trkpt lat="45.8743" lon="3.59881">
        <ele>583.9</ele>
        <time>2025-10-28T21:01:28.999Z</time>
      </trkpt>
      <trkpt lat="45.87412" lon="3.59886">
        <ele>583.7</ele>
        <time>2025-10-28T21:01:28.999Z</time>
      </trkpt>
      <trkpt lat="45.87399" lon="3.59893">
        <ele>583</ele>
        <time>2025-10-28T21:01:28.999Z</time>
      </trkpt>
      <trkpt lat="45.87387" lon="3.59902">
        <ele>582.2</ele>
        <time>2025-10-28T21:01:28.999Z</time>
      </trkpt>
      <trkpt lat="45.87366" lon="3.59924">
        <ele>581.6</ele>
        <time>2025-10-28T21:01:28.999Z</time>
      </trkpt>
      <trkpt lat="45.87358" lon="3.59924">
        <ele>580.2</ele>
        <time>2025-10-28T21:01:28.999Z</time>
      </trkpt>
      <trkpt lat="45.87324" lon="3.59946">
        <ele>575.5</ele>
        <time>2025-10-28T21:01:28.999Z</time>
      </trkpt>
      <trkpt lat="45.87305" lon="3.59951">
        <ele>572.5</ele>
        <time>2025-10-28T21:01:28.999Z</time>
      </trkpt>
      <trkpt lat="45.87298" lon="3.59955">
        <ele>570.6</ele>
        <time>2025-10-28T21:01:28.999Z</time>
      </trkpt>
      <trkpt lat="45.87282" lon="3.59988">
        <ele>567.8</ele>
        <time>2025-10-28T21:01:28.999Z</time>
      </trkpt>
      <trkpt lat="45.87274" lon="3.59986">
        <ele>565.3</ele>
        <time>2025-10-28T21:01:28.999Z</time>
      </trkpt>
      <trkpt lat="45.8727" lon="3.59974">
        <ele>564.2</ele>
        <time>2025-10-28T21:01:28.999Z</time>
      </trkpt>
      <trkpt lat="45.87274" lon="3.59949">
        <ele>563.8</ele>
        <time>2025-10-28T21:01:28.999Z</time>
      </trkpt>
      <trkpt lat="45.87273" lon="3.59941">
        <ele>563.3</ele>
        <time>2025-10-28T21:01:28.999Z</time>
      </trkpt>
      <trkpt lat="45.87255" lon="3.59924">
        <ele>560.2</ele>
        <time>2025-10-28T21:01:28.999Z</time>
      </trkpt>
      <trkpt lat="45.87246" lon="3.59934">
        <ele>559.5</ele>
        <time>2025-10-28T21:01:28.999Z</time>
      </trkpt>
      <trkpt lat="45.87239" lon="3.59948">
        <ele>558.8</ele>
        <time>2025-10-28T21:01:28.999Z</time>
      </trkpt>
      <trkpt lat="45.87195" lon="3.59909">
        <ele>550</ele>
        <time>2025-10-28T21:01:28.999Z</time>
      </trkpt>
      <trkpt lat="45.87148" lon="3.59866">
        <ele>542.9</ele>
        <time>2025-10-28T21:01:28.999Z</time>
      </trkpt>
      <trkpt lat="45.87126" lon="3.59847">
        <ele>541</ele>
        <time>2025-10-28T21:01:28.999Z</time>
      </trkpt>
      <trkpt lat="45.87101" lon="3.59823">
        <ele>538.7</ele>
        <time>2025-10-28T21:01:28.999Z</time>
      </trkpt>
      <trkpt lat="45.87093" lon="3.59814">
        <ele>537.7</ele>
        <time>2025-10-28T21:01:28.999Z</time>
      </trkpt>
      <trkpt lat="45.87069" lon="3.59787">
        <ele>536.5</ele>
        <time>2025-10-28T21:01:28.999Z</time>
      </trkpt>
      <trkpt lat="45.87056" lon="3.59777">
        <ele>536.1</ele>
        <time>2025-10-28T21:01:28.999Z</time>
      </trkpt>
      <trkpt lat="45.87051" lon="3.59773">
        <ele>536</ele>
        <time>2025-10-28T21:01:28.999Z</time>
      </trkpt>
      <trkpt lat="45.87032" lon="3.59769">
        <ele>534.9</ele>
        <time>2025-10-28T21:01:28.999Z</time>
      </trkpt>
      <trkpt lat="45.86997" lon="3.59759">
        <ele>534.2</ele>
        <time>2025-10-28T21:01:28.999Z</time>
      </trkpt>
      <trkpt lat="45.86952" lon="3.59736">
        <ele>533.1</ele>
        <time>2025-10-28T21:01:28.999Z</time>
      </trkpt>
      <trkpt lat="45.86926" lon="3.59708">
        <ele>532.3</ele>
        <time>2025-10-28T21:01:28.999Z</time>
      </trkpt>
      <trkpt lat="45.86894" lon="3.59702">
        <ele>532</ele>
        <time>2025-10-28T21:01:28.999Z</time>
      </trkpt>
      <trkpt lat="45.86882" lon="3.59704">
        <ele>531.7</ele>
        <time>2025-10-28T21:01:28.999Z</time>
      </trkpt>
      <trkpt lat="45.86884" lon="3.59714">
        <ele>531.7</ele>
        <time>2025-10-28T21:01:28.999Z</time>
      </trkpt>
      <trkpt lat="45.8688" lon="3.59715">
        <ele>531.5</ele>
        <time>2025-10-28T21:01:28.999Z</time>
      </trkpt>
      <trkpt lat="45.86873" lon="3.59715">
        <ele>531</ele>
        <time>2025-10-28T21:01:28.999Z</time>
      </trkpt>
      <trkpt lat="45.8684" lon="3.59711">
        <ele>528.2</ele>
        <time>2025-10-28T21:01:28.999Z</time>
      </trkpt>
      <trkpt lat="45.86814" lon="3.59703">
        <ele>531.6</ele>
        <time>2025-10-28T21:01:28.999Z</time>
      </trkpt>
      <trkpt lat="45.86812" lon="3.59705">
        <ele>531.9</ele>
        <time>2025-10-28T21:01:28.999Z</time>
      </trkpt>
      <trkpt lat="45.86806" lon="3.59712">
        <ele>532.6</ele>
        <time>2025-10-28T21:01:28.999Z</time>
      </trkpt>
      <trkpt lat="45.868" lon="3.59735">
        <ele>532.6</ele>
        <time>2025-10-28T21:01:28.999Z</time>
      </trkpt>
      <trkpt lat="45.868" lon="3.59763">
        <ele>533.2</ele>
        <time>2025-10-28T21:01:28.999Z</time>
      </trkpt>
      <trkpt lat="45.86812" lon="3.59804">
        <ele>534.4</ele>
        <time>2025-10-28T21:01:28.999Z</time>
      </trkpt>
      <trkpt lat="45.86805" lon="3.59811">
        <ele>536</ele>
        <time>2025-10-28T21:01:28.999Z</time>
      </trkpt>
      <trkpt lat="45.86795" lon="3.59819">
        <ele>536.8</ele>
        <time>2025-10-28T21:01:28.999Z</time>
      </trkpt>
      <trkpt lat="45.86783" lon="3.59822">
        <ele>537.6</ele>
        <time>2025-10-28T21:01:28.999Z</time>
      </trkpt>
      <trkpt lat="45.86785" lon="3.59843">
        <ele>539.6</ele>
        <time>2025-10-28T21:01:28.999Z</time>
      </trkpt>
      <trkpt lat="45.86803" lon="3.59904">
        <ele>541.9</ele>
        <time>2025-10-28T21:01:28.999Z</time>
      </trkpt>
      <trkpt lat="45.86809" lon="3.59939">
        <ele>543.8</ele>
        <time>2025-10-28T21:01:28.999Z</time>
      </trkpt>
      <trkpt lat="45.8681" lon="3.59974">
        <ele>547</ele>
        <time>2025-10-28T21:01:28.999Z</time>
      </trkpt>
      <trkpt lat="45.86809" lon="3.60037">
        <ele>550.9</ele>
        <time>2025-10-28T21:01:28.999Z</time>
      </trkpt>
      <trkpt lat="45.86803" lon="3.60074">
        <ele>553.3</ele>
        <time>2025-10-28T21:01:28.999Z</time>
      </trkpt>
      <trkpt lat="45.86796" lon="3.60104">
        <ele>554.2</ele>
        <time>2025-10-28T21:01:28.999Z</time>
      </trkpt>
      <trkpt lat="45.86786" lon="3.60132">
        <ele>553.7</ele>
        <time>2025-10-28T21:01:28.999Z</time>
      </trkpt>
      <trkpt lat="45.86776" lon="3.60148">
        <ele>554.9</ele>
        <time>2025-10-28T21:01:28.999Z</time>
      </trkpt>
      <trkpt lat="45.86764" lon="3.60161">
        <ele>556</ele>
        <time>2025-10-28T21:01:28.999Z</time>
      </trkpt>
      <trkpt lat="45.86751" lon="3.60169">
        <ele>558</ele>
        <time>2025-10-28T21:01:28.999Z</time>
      </trkpt>
      <trkpt lat="45.86715" lon="3.60184">
        <ele>562.7</ele>
        <time>2025-10-28T21:01:28.999Z</time>
      </trkpt>
      <trkpt lat="45.86705" lon="3.60193">
        <ele>563.7</ele>
        <time>2025-10-28T21:01:28.999Z</time>
      </trkpt>
      <trkpt lat="45.86661" lon="3.60255">
        <ele>567.1</ele>
        <time>2025-10-28T21:01:28.999Z</time>
      </trkpt>
      <trkpt lat="45.86622" lon="3.60324">
        <ele>569</ele>
        <time>2025-10-28T21:01:28.999Z</time>
      </trkpt>
      <trkpt lat="45.86609" lon="3.60341">
        <ele>568.9</ele>
        <time>2025-10-28T21:01:28.999Z</time>
      </trkpt>
      <trkpt lat="45.86586" lon="3.60362">
        <ele>569.4</ele>
        <time>2025-10-28T21:01:28.999Z</time>
      </trkpt>
      <trkpt lat="45.86573" lon="3.60367">
        <ele>569.1</ele>
        <time>2025-10-28T21:01:28.999Z</time>
      </trkpt>
      <trkpt lat="45.86559" lon="3.6037">
        <ele>569.3</ele>
        <time>2025-10-28T21:01:28.999Z</time>
      </trkpt>
      <trkpt lat="45.86535" lon="3.60367">
        <ele>570.7</ele>
        <time>2025-10-28T21:01:28.999Z</time>
      </trkpt>
      <trkpt lat="45.86523" lon="3.6037">
        <ele>570.9</ele>
        <time>2025-10-28T21:01:28.999Z</time>
      </trkpt>
      <trkpt lat="45.86459" lon="3.60398">
        <ele>575.2</ele>
        <time>2025-10-28T21:01:28.999Z</time>
      </trkpt>
      <trkpt lat="45.8645" lon="3.60413">
        <ele>574.1</ele>
        <time>2025-10-28T21:01:28.999Z</time>
      </trkpt>
      <trkpt lat="45.86452" lon="3.60433">
        <ele>573.3</ele>
        <time>2025-10-28T21:01:28.999Z</time>
      </trkpt>
      <trkpt lat="45.86461" lon="3.6045">
        <ele>575.3</ele>
        <time>2025-10-28T21:01:28.999Z</time>
      </trkpt>
      <trkpt lat="45.86473" lon="3.60458">
        <ele>578.3</ele>
        <time>2025-10-28T21:01:28.999Z</time>
      </trkpt>
      <trkpt lat="45.86522" lon="3.60469">
        <ele>583.6</ele>
        <time>2025-10-28T21:01:28.999Z</time>
      </trkpt>
      <trkpt lat="45.86533" lon="3.60476">
        <ele>584.7</ele>
        <time>2025-10-28T21:01:28.999Z</time>
      </trkpt>
      <trkpt lat="45.86546" lon="3.60496">
        <ele>585.9</ele>
        <time>2025-10-28T21:01:28.999Z</time>
      </trkpt>
      <trkpt lat="45.86551" lon="3.60513">
        <ele>587.6</ele>
        <time>2025-10-28T21:01:28.999Z</time>
      </trkpt>
      <trkpt lat="45.86555" lon="3.60543">
        <ele>590.3</ele>
        <time>2025-10-28T21:01:28.999Z</time>
      </trkpt>
      <trkpt lat="45.86559" lon="3.60651">
        <ele>600.8</ele>
        <time>2025-10-28T21:01:28.999Z</time>
      </trkpt>
      <trkpt lat="45.86559" lon="3.60683">
        <ele>603.6</ele>
        <time>2025-10-28T21:01:28.999Z</time>
      </trkpt>
      <trkpt lat="45.86554" lon="3.60721">
        <ele>607.1</ele>
        <time>2025-10-28T21:01:28.999Z</time>
      </trkpt>
      <trkpt lat="45.86544" lon="3.6076">
        <ele>610.1</ele>
        <time>2025-10-28T21:01:28.999Z</time>
      </trkpt>
      <trkpt lat="45.8653" lon="3.60794">
        <ele>613.6</ele>
        <time>2025-10-28T21:01:28.999Z</time>
      </trkpt>
      <trkpt lat="45.86518" lon="3.60803">
        <ele>615.5</ele>
        <time>2025-10-28T21:01:28.999Z</time>
      </trkpt>
      <trkpt lat="45.86501" lon="3.60804">
        <ele>617.8</ele>
        <time>2025-10-28T21:01:28.999Z</time>
      </trkpt>
      <trkpt lat="45.86434" lon="3.60769">
        <ele>629.8</ele>
        <time>2025-10-28T21:01:28.999Z</time>
      </trkpt>
      <trkpt lat="45.86424" lon="3.6077">
        <ele>632</ele>
        <time>2025-10-28T21:01:28.999Z</time>
      </trkpt>
      <trkpt lat="45.86413" lon="3.60778">
        <ele>634.3</ele>
        <time>2025-10-28T21:01:28.999Z</time>
      </trkpt>
      <trkpt lat="45.86396" lon="3.608">
        <ele>637.6</ele>
        <time>2025-10-28T21:01:28.999Z</time>
      </trkpt>
      <trkpt lat="45.86386" lon="3.60816">
        <ele>640.2</ele>
        <time>2025-10-28T21:01:28.999Z</time>
      </trkpt>
      <trkpt lat="45.86379" lon="3.6084">
        <ele>642</ele>
        <time>2025-10-28T21:01:28.999Z</time>
      </trkpt>
      <trkpt lat="45.86372" lon="3.60874">
        <ele>642.6</ele>
        <time>2025-10-28T21:01:28.999Z</time>
      </trkpt>
      <trkpt lat="45.86367" lon="3.60887">
        <ele>642.5</ele>
        <time>2025-10-28T21:01:28.999Z</time>
      </trkpt>
      <trkpt lat="45.86358" lon="3.60897">
        <ele>641.9</ele>
        <time>2025-10-28T21:01:28.999Z</time>
      </trkpt>
      <trkpt lat="45.86269" lon="3.6094">
        <ele>638.1</ele>
        <time>2025-10-28T21:01:28.999Z</time>
      </trkpt>
      <trkpt lat="45.86252" lon="3.60944">
        <ele>637.2</ele>
        <time>2025-10-28T21:01:28.999Z</time>
      </trkpt>
      <trkpt lat="45.862" lon="3.60965">
        <ele>636.1</ele>
        <time>2025-10-28T21:01:28.999Z</time>
      </trkpt>
      <trkpt lat="45.8617" lon="3.60971">
        <ele>635.1</ele>
        <time>2025-10-28T21:01:28.999Z</time>
      </trkpt>
      <trkpt lat="45.86133" lon="3.60964">
        <ele>633.3</ele>
        <time>2025-10-28T21:01:28.999Z</time>
      </trkpt>
      <trkpt lat="45.86133" lon="3.60983">
        <ele>632.1</ele>
        <time>2025-10-28T21:01:28.999Z</time>
      </trkpt>
      <trkpt lat="45.86129" lon="3.61003">
        <ele>630.4</ele>
        <time>2025-10-28T21:01:28.999Z</time>
      </trkpt>
      <trkpt lat="45.86115" lon="3.61003">
        <ele>629.8</ele>
        <time>2025-10-28T21:01:28.999Z</time>
      </trkpt>
      <trkpt lat="45.86089" lon="3.61007">
        <ele>629.3</ele>
        <time>2025-10-28T21:01:28.999Z</time>
      </trkpt>
      <trkpt lat="45.86074" lon="3.61007">
        <ele>628.2</ele>
        <time>2025-10-28T21:01:28.999Z</time>
      </trkpt>
      <trkpt lat="45.86063" lon="3.61002">
        <ele>627.6</ele>
        <time>2025-10-28T21:01:28.999Z</time>
      </trkpt>
      <trkpt lat="45.86023" lon="3.60979">
        <ele>625.9</ele>
        <time>2025-10-28T21:01:28.999Z</time>
      </trkpt>
      <trkpt lat="45.86" lon="3.60969">
        <ele>628.6</ele>
        <time>2025-10-28T21:01:28.999Z</time>
      </trkpt>
      <trkpt lat="45.85989" lon="3.60966">
        <ele>629.5</ele>
        <time>2025-10-28T21:01:28.999Z</time>
      </trkpt>
      <trkpt lat="45.85981" lon="3.60966">
        <ele>629.8</ele>
        <time>2025-10-28T21:01:28.999Z</time>
      </trkpt>
      <trkpt lat="45.85966" lon="3.60968">
        <ele>629.9</ele>
        <time>2025-10-28T21:01:28.999Z</time>
      </trkpt>
      <trkpt lat="45.85943" lon="3.60978">
        <ele>629.2</ele>
        <time>2025-10-28T21:01:28.999Z</time>
      </trkpt>
      <trkpt lat="45.85892" lon="3.60991">
        <ele>629.3</ele>
        <time>2025-10-28T21:01:28.999Z</time>
      </trkpt>
      <trkpt lat="45.85881" lon="3.60998">
        <ele>628.1</ele>
        <time>2025-10-28T21:01:28.999Z</time>
      </trkpt>
      <trkpt lat="45.85858" lon="3.61019">
        <ele>625.6</ele>
        <time>2025-10-28T21:01:28.999Z</time>
      </trkpt>
      <trkpt lat="45.85851" lon="3.61033">
        <ele>624.6</ele>
        <time>2025-10-28T21:01:28.999Z</time>
      </trkpt>
      <trkpt lat="45.85843" lon="3.61055">
        <ele>622.4</ele>
        <time>2025-10-28T21:01:28.999Z</time>
      </trkpt>
      <trkpt lat="45.85839" lon="3.61089">
        <ele>620.4</ele>
        <time>2025-10-28T21:01:28.999Z</time>
      </trkpt>
      <trkpt lat="45.85834" lon="3.61105">
        <ele>619.4</ele>
        <time>2025-10-28T21:01:28.999Z</time>
      </trkpt>
      <trkpt lat="45.85827" lon="3.61116">
        <ele>618.3</ele>
        <time>2025-10-28T21:01:28.999Z</time>
      </trkpt>
      <trkpt lat="45.85811" lon="3.61126">
        <ele>616.6</ele>
        <time>2025-10-28T21:01:28.999Z</time>
      </trkpt>
      <trkpt lat="45.85787" lon="3.61136">
        <ele>613.2</ele>
        <time>2025-10-28T21:01:28.999Z</time>
      </trkpt>
      <trkpt lat="45.85771" lon="3.61139">
        <ele>611.7</ele>
        <time>2025-10-28T21:01:28.999Z</time>
      </trkpt>
      <trkpt lat="45.85764" lon="3.61139">
        <ele>611.5</ele>
        <time>2025-10-28T21:01:28.999Z</time>
      </trkpt>
      <trkpt lat="45.8576" lon="3.61141">
        <ele>611.6</ele>
        <time>2025-10-28T21:01:28.999Z</time>
      </trkpt>
      <trkpt lat="45.8576" lon="3.61154">
        <ele>612.6</ele>
        <time>2025-10-28T21:01:28.999Z</time>
      </trkpt>
      <trkpt lat="45.85778" lon="3.61186">
        <ele>612.8</ele>
        <time>2025-10-28T21:01:28.999Z</time>
      </trkpt>
      <trkpt lat="45.85798" lon="3.61242">
        <ele>613.6</ele>
        <time>2025-10-28T21:01:28.999Z</time>
      </trkpt>
      <trkpt lat="45.85801" lon="3.61258">
        <ele>614.6</ele>
        <time>2025-10-28T21:01:28.999Z</time>
      </trkpt>
      <trkpt lat="45.858" lon="3.61272">
        <ele>615.7</ele>
        <time>2025-10-28T21:01:28.999Z</time>
      </trkpt>
      <trkpt lat="45.85796" lon="3.61288">
        <ele>617.5</ele>
        <time>2025-10-28T21:01:28.999Z</time>
      </trkpt>
      <trkpt lat="45.85789" lon="3.61302">
        <ele>619.7</ele>
        <time>2025-10-28T21:01:28.999Z</time>
      </trkpt>
      <trkpt lat="45.8578" lon="3.61314">
        <ele>622.5</ele>
        <time>2025-10-28T21:01:28.999Z</time>
      </trkpt>
      <trkpt lat="45.85769" lon="3.61324">
        <ele>625.1</ele>
        <time>2025-10-28T21:01:28.999Z</time>
      </trkpt>
      <trkpt lat="45.85756" lon="3.61331">
        <ele>627.2</ele>
        <time>2025-10-28T21:01:28.999Z</time>
      </trkpt>
      <trkpt lat="45.85743" lon="3.61336">
        <ele>629</ele>
        <time>2025-10-28T21:01:28.999Z</time>
      </trkpt>
      <trkpt lat="45.85717" lon="3.61348">
        <ele>632.9</ele>
        <time>2025-10-28T21:01:28.999Z</time>
      </trkpt>
      <trkpt lat="45.85702" lon="3.6136">
        <ele>634.7</ele>
        <time>2025-10-28T21:01:28.999Z</time>
      </trkpt>
      <trkpt lat="45.85666" lon="3.61392">
        <ele>639.4</ele>
        <time>2025-10-28T21:01:28.999Z</time>
      </trkpt>
      <trkpt lat="45.8565" lon="3.61409">
        <ele>641.8</ele>
        <time>2025-10-28T21:01:28.999Z</time>
      </trkpt>
      <trkpt lat="45.85627" lon="3.6144">
        <ele>646.4</ele>
        <time>2025-10-28T21:01:28.999Z</time>
      </trkpt>
      <trkpt lat="45.85612" lon="3.61466">
        <ele>649.4</ele>
        <time>2025-10-28T21:01:28.999Z</time>
      </trkpt>
      <trkpt lat="45.85597" lon="3.61498">
        <ele>653.8</ele>
        <time>2025-10-28T21:01:28.999Z</time>
      </trkpt>
      <trkpt lat="45.85591" lon="3.61522">
        <ele>656.6</ele>
        <time>2025-10-28T21:01:28.999Z</time>
      </trkpt>
      <trkpt lat="45.85583" lon="3.61575">
        <ele>661.4</ele>
        <time>2025-10-28T21:01:28.999Z</time>
      </trkpt>
      <trkpt lat="45.85577" lon="3.61599">
        <ele>663</ele>
        <time>2025-10-28T21:01:28.999Z</time>
      </trkpt>
      <trkpt lat="45.85573" lon="3.61625">
        <ele>663.6</ele>
        <time>2025-10-28T21:01:28.999Z</time>
      </trkpt>
      <trkpt lat="45.85558" lon="3.61617">
        <ele>663.1</ele>
        <time>2025-10-28T21:01:28.999Z</time>
      </trkpt>
      <trkpt lat="45.85532" lon="3.61599">
        <ele>662.6</ele>
        <time>2025-10-28T21:01:28.999Z</time>
      </trkpt>
      <trkpt lat="45.85497" lon="3.61579">
        <ele>663.1</ele>
        <time>2025-10-28T21:01:28.999Z</time>
      </trkpt>
      <trkpt lat="45.85462" lon="3.61574">
        <ele>666.2</ele>
        <time>2025-10-28T21:01:28.999Z</time>
      </trkpt>
      <trkpt lat="45.85379" lon="3.61569">
        <ele>670.7</ele>
        <time>2025-10-28T21:01:28.999Z</time>
      </trkpt>
      <trkpt lat="45.85275" lon="3.61555">
        <ele>671</ele>
        <time>2025-10-28T21:01:28.999Z</time>
      </trkpt>
      <trkpt lat="45.85227" lon="3.61555">
        <ele>671.8</ele>
        <time>2025-10-28T21:01:28.999Z</time>
      </trkpt>
      <trkpt lat="45.85168" lon="3.61545">
        <ele>674.5</ele>
        <time>2025-10-28T21:01:28.999Z</time>
      </trkpt>
      <trkpt lat="45.85078" lon="3.61494">
        <ele>679.7</ele>
        <time>2025-10-28T21:01:28.999Z</time>
      </trkpt>
      <trkpt lat="45.85031" lon="3.61474">
        <ele>681.8</ele>
        <time>2025-10-28T21:01:28.999Z</time>
      </trkpt>
      <trkpt lat="45.84976" lon="3.61434">
        <ele>683.9</ele>
        <time>2025-10-28T21:01:28.999Z</time>
      </trkpt>
      <trkpt lat="45.84932" lon="3.61379">
        <ele>686.4</ele>
        <time>2025-10-28T21:01:28.999Z</time>
      </trkpt>
      <trkpt lat="45.84891" lon="3.6133">
        <ele>691.5</ele>
        <time>2025-10-28T21:01:28.999Z</time>
      </trkpt>
      <trkpt lat="45.84858" lon="3.61306">
        <ele>693.1</ele>
        <time>2025-10-28T21:01:28.999Z</time>
      </trkpt>
      <trkpt lat="45.84802" lon="3.61284">
        <ele>696.7</ele>
        <time>2025-10-28T21:01:28.999Z</time>
      </trkpt>
      <trkpt lat="45.84809" lon="3.61306">
        <ele>696.6</ele>
        <time>2025-10-28T21:01:28.999Z</time>
      </trkpt>
      <trkpt lat="45.84823" lon="3.61461">
        <ele>693.5</ele>
        <time>2025-10-28T21:01:28.999Z</time>
      </trkpt>
      <trkpt lat="45.84832" lon="3.61495">
        <ele>693.8</ele>
        <time>2025-10-28T21:01:28.999Z</time>
      </trkpt>
      <trkpt lat="45.84844" lon="3.61635">
        <ele>683.3</ele>
        <time>2025-10-28T21:01:28.999Z</time>
      </trkpt>
      <trkpt lat="45.84774" lon="3.61924">
        <ele>652.3</ele>
        <time>2025-10-28T21:01:28.999Z</time>
      </trkpt>
      <trkpt lat="45.84775" lon="3.61967">
        <ele>649.9</ele>
        <time>2025-10-28T21:01:28.999Z</time>
      </trkpt>
      <trkpt lat="45.8478" lon="3.61999">
        <ele>646.4</ele>
        <time>2025-10-28T21:01:28.999Z</time>
      </trkpt>
      <trkpt lat="45.84788" lon="3.62024">
        <ele>646.4</ele>
        <time>2025-10-28T21:01:28.999Z</time>
      </trkpt>
      <trkpt lat="45.84798" lon="3.62041">
        <ele>647.3</ele>
        <time>2025-10-28T21:01:28.999Z</time>
      </trkpt>
      <trkpt lat="45.84821" lon="3.62061">
        <ele>647.1</ele>
        <time>2025-10-28T21:01:28.999Z</time>
      </trkpt>
      <trkpt lat="45.84894" lon="3.62152">
        <ele>658.8</ele>
        <time>2025-10-28T21:01:28.999Z</time>
      </trkpt>
      <trkpt lat="45.84929" lon="3.62192">
        <ele>661.1</ele>
        <time>2025-10-28T21:01:28.999Z</time>
      </trkpt>
      <trkpt lat="45.84964" lon="3.62258">
        <ele>661.5</ele>
        <time>2025-10-28T21:01:28.999Z</time>
      </trkpt>
      <trkpt lat="45.84985" lon="3.62289">
        <ele>663</ele>
        <time>2025-10-28T21:01:28.999Z</time>
      </trkpt>
      <trkpt lat="45.85009" lon="3.62343">
        <ele>664.8</ele>
        <time>2025-10-28T21:01:28.999Z</time>
      </trkpt>
      <trkpt lat="45.85025" lon="3.62386">
        <ele>665.1</ele>
        <time>2025-10-28T21:01:28.999Z</time>
      </trkpt>
      <trkpt lat="45.8505" lon="3.62461">
        <ele>668.8</ele>
        <time>2025-10-28T21:01:28.999Z</time>
      </trkpt>
      <trkpt lat="45.85031" lon="3.62473">
        <ele>672.6</ele>
        <time>2025-10-28T21:01:28.999Z</time>
      </trkpt>
      <trkpt lat="45.85009" lon="3.62493">
        <ele>677</ele>
        <time>2025-10-28T21:01:28.999Z</time>
      </trkpt>
      <trkpt lat="45.84994" lon="3.62514">
        <ele>680.7</ele>
        <time>2025-10-28T21:01:28.999Z</time>
      </trkpt>
      <trkpt lat="45.84985" lon="3.62537">
        <ele>682.8</ele>
        <time>2025-10-28T21:01:28.999Z</time>
      </trkpt>
      <trkpt lat="45.84972" lon="3.62562">
        <ele>685.4</ele>
        <time>2025-10-28T21:01:28.999Z</time>
      </trkpt>
      <trkpt lat="45.84953" lon="3.62583">
        <ele>689.5</ele>
        <time>2025-10-28T21:01:28.999Z</time>
      </trkpt>
      <trkpt lat="45.84938" lon="3.62611">
        <ele>692.5</ele>
        <time>2025-10-28T21:01:28.999Z</time>
      </trkpt>
      <trkpt lat="45.84915" lon="3.62655">
        <ele>695.8</ele>
        <time>2025-10-28T21:01:28.999Z</time>
      </trkpt>
      <trkpt lat="45.84906" lon="3.62688">
        <ele>697.7</ele>
        <time>2025-10-28T21:01:28.999Z</time>
      </trkpt>
      <trkpt lat="45.84887" lon="3.62772">
        <ele>703.2</ele>
        <time>2025-10-28T21:01:28.999Z</time>
      </trkpt>
      <trkpt lat="45.84896" lon="3.62835">
        <ele>702.5</ele>
        <time>2025-10-28T21:01:28.999Z</time>
      </trkpt>
      <trkpt lat="45.84907" lon="3.62866">
        <ele>700.7</ele>
        <time>2025-10-28T21:01:28.999Z</time>
      </trkpt>
      <trkpt lat="45.84922" lon="3.62901">
        <ele>698.4</ele>
        <time>2025-10-28T21:01:28.999Z</time>
      </trkpt>
      <trkpt lat="45.84969" lon="3.62999">
        <ele>691.5</ele>
        <time>2025-10-28T21:01:28.999Z</time>
      </trkpt>
      <trkpt lat="45.85022" lon="3.6309">
        <ele>691.3</ele>
        <time>2025-10-28T21:01:28.999Z</time>
      </trkpt>
      <trkpt lat="45.85025" lon="3.63093">
        <ele>690.9</ele>
        <time>2025-10-28T21:01:28.999Z</time>
      </trkpt>
      <trkpt lat="45.85019" lon="3.63122">
        <ele>692.8</ele>
        <time>2025-10-28T21:01:28.999Z</time>
      </trkpt>
      <trkpt lat="45.85013" lon="3.63148">
        <ele>693.9</ele>
        <time>2025-10-28T21:01:28.999Z</time>
      </trkpt>
      <trkpt lat="45.85012" lon="3.63178">
        <ele>693.6</ele>
        <time>2025-10-28T21:01:28.999Z</time>
      </trkpt>
      <trkpt lat="45.84931" lon="3.63165">
        <ele>704</ele>
        <time>2025-10-28T21:01:28.999Z</time>
      </trkpt>
      <trkpt lat="45.84883" lon="3.6316">
        <ele>709.2</ele>
        <time>2025-10-28T21:01:28.999Z</time>
      </trkpt>
      <trkpt lat="45.84856" lon="3.63153">
        <ele>711</ele>
        <time>2025-10-28T21:01:28.999Z</time>
      </trkpt>
      <trkpt lat="45.84803" lon="3.6313">
        <ele>715.5</ele>
        <time>2025-10-28T21:01:28.999Z</time>
      </trkpt>
      <trkpt lat="45.84763" lon="3.63105">
        <ele>717.7</ele>
        <time>2025-10-28T21:01:28.999Z</time>
      </trkpt>
      <trkpt lat="45.84716" lon="3.6308">
        <ele>721.7</ele>
        <time>2025-10-28T21:01:28.999Z</time>
      </trkpt>
      <trkpt lat="45.84694" lon="3.63063">
        <ele>723.3</ele>
        <time>2025-10-28T21:01:28.999Z</time>
      </trkpt>
      <trkpt lat="45.84653" lon="3.63013">
        <ele>725</ele>
        <time>2025-10-28T21:01:28.999Z</time>
      </trkpt>
      <trkpt lat="45.84637" lon="3.62993">
        <ele>725.4</ele>
        <time>2025-10-28T21:01:28.999Z</time>
      </trkpt>
      <trkpt lat="45.84617" lon="3.62974">
        <ele>725.3</ele>
        <time>2025-10-28T21:01:28.999Z</time>
      </trkpt>
      <trkpt lat="45.846" lon="3.62963">
        <ele>725.8</ele>
        <time>2025-10-28T21:01:28.999Z</time>
      </trkpt>
      <trkpt lat="45.8458" lon="3.62961">
        <ele>725.4</ele>
        <time>2025-10-28T21:01:28.999Z</time>
      </trkpt>
      <trkpt lat="45.84546" lon="3.6296">
        <ele>726.7</ele>
        <time>2025-10-28T21:01:28.999Z</time>
      </trkpt>
      <trkpt lat="45.84522" lon="3.62955">
        <ele>727.9</ele>
        <time>2025-10-28T21:01:28.999Z</time>
      </trkpt>
      <trkpt lat="45.84476" lon="3.62939">
        <ele>730.6</ele>
        <time>2025-10-28T21:01:28.999Z</time>
      </trkpt>
      <trkpt lat="45.84449" lon="3.62937">
        <ele>731</ele>
        <time>2025-10-28T21:01:28.999Z</time>
      </trkpt>
      <trkpt lat="45.84418" lon="3.6294">
        <ele>731.5</ele>
        <time>2025-10-28T21:01:28.999Z</time>
      </trkpt>
      <trkpt lat="45.84354" lon="3.62943">
        <ele>732.6</ele>
        <time>2025-10-28T21:01:28.999Z</time>
      </trkpt>
      <trkpt lat="45.84328" lon="3.62946">
        <ele>733</ele>
        <time>2025-10-28T21:01:28.999Z</time>
      </trkpt>
      <trkpt lat="45.84297" lon="3.62953">
        <ele>733.1</ele>
        <time>2025-10-28T21:01:28.999Z</time>
      </trkpt>
      <trkpt lat="45.84278" lon="3.62957">
        <ele>733.7</ele>
        <time>2025-10-28T21:01:28.999Z</time>
      </trkpt>
      <trkpt lat="45.84268" lon="3.62962">
        <ele>734.7</ele>
        <time>2025-10-28T21:01:28.999Z</time>
      </trkpt>
      <trkpt lat="45.84259" lon="3.62969">
        <ele>735.6</ele>
        <time>2025-10-28T21:01:28.999Z</time>
      </trkpt>
      <trkpt lat="45.84256" lon="3.63009">
        <ele>733.1</ele>
        <time>2025-10-28T21:01:28.999Z</time>
      </trkpt>
      <trkpt lat="45.84252" lon="3.63034">
        <ele>732.1</ele>
        <time>2025-10-28T21:01:28.999Z</time>
      </trkpt>
      <trkpt lat="45.84246" lon="3.63058">
        <ele>731.3</ele>
        <time>2025-10-28T21:01:28.999Z</time>
      </trkpt>
      <trkpt lat="45.84238" lon="3.6308">
        <ele>730.1</ele>
        <time>2025-10-28T21:01:28.999Z</time>
      </trkpt>
      <trkpt lat="45.84224" lon="3.6311">
        <ele>728.9</ele>
        <time>2025-10-28T21:01:28.999Z</time>
      </trkpt>
      <trkpt lat="45.84204" lon="3.63141">
        <ele>729.1</ele>
        <time>2025-10-28T21:01:28.999Z</time>
      </trkpt>
      <trkpt lat="45.84184" lon="3.63179">
        <ele>729.3</ele>
        <time>2025-10-28T21:01:28.999Z</time>
      </trkpt>
      <trkpt lat="45.84175" lon="3.63191">
        <ele>728.8</ele>
        <time>2025-10-28T21:01:28.999Z</time>
      </trkpt>
      <trkpt lat="45.84169" lon="3.63203">
        <ele>728.3</ele>
        <time>2025-10-28T21:01:28.999Z</time>
      </trkpt>
      <trkpt lat="45.84158" lon="3.63208">
        <ele>727.7</ele>
        <time>2025-10-28T21:01:28.999Z</time>
      </trkpt>
      <trkpt lat="45.84129" lon="3.63211">
        <ele>726.1</ele>
        <time>2025-10-28T21:01:28.999Z</time>
      </trkpt>
      <trkpt lat="45.84093" lon="3.63218">
        <ele>722.9</ele>
        <time>2025-10-28T21:01:28.999Z</time>
      </trkpt>
      <trkpt lat="45.84071" lon="3.63219">
        <ele>721.2</ele>
        <time>2025-10-28T21:01:28.999Z</time>
      </trkpt>
      <trkpt lat="45.84039" lon="3.63228">
        <ele>719.2</ele>
        <time>2025-10-28T21:01:28.999Z</time>
      </trkpt>
      <trkpt lat="45.83983" lon="3.63249">
        <ele>716.4</ele>
        <time>2025-10-28T21:01:28.999Z</time>
      </trkpt>
      <trkpt lat="45.83979" lon="3.63268">
        <ele>715.8</ele>
        <time>2025-10-28T21:01:28.999Z</time>
      </trkpt>
      <trkpt lat="45.83967" lon="3.633">
        <ele>715.1</ele>
        <time>2025-10-28T21:01:28.999Z</time>
      </trkpt>
      <trkpt lat="45.83953" lon="3.63321">
        <ele>713.9</ele>
        <time>2025-10-28T21:01:28.999Z</time>
      </trkpt>
      <trkpt lat="45.8394" lon="3.63334">
        <ele>713</ele>
        <time>2025-10-28T21:01:28.999Z</time>
      </trkpt>
      <trkpt lat="45.83883" lon="3.63374">
        <ele>708.9</ele>
        <time>2025-10-28T21:01:28.999Z</time>
      </trkpt>
      <trkpt lat="45.83835" lon="3.63415">
        <ele>706.1</ele>
        <time>2025-10-28T21:01:28.999Z</time>
      </trkpt>
      <trkpt lat="45.83799" lon="3.63449">
        <ele>704.6</ele>
        <time>2025-10-28T21:01:28.999Z</time>
      </trkpt>
      <trkpt lat="45.8378" lon="3.63473">
        <ele>702.8</ele>
        <time>2025-10-28T21:01:28.999Z</time>
      </trkpt>
      <trkpt lat="45.83744" lon="3.63554">
        <ele>700.5</ele>
        <time>2025-10-28T21:01:28.999Z</time>
      </trkpt>
      <trkpt lat="45.8374" lon="3.63571">
        <ele>700.2</ele>
        <time>2025-10-28T21:01:28.999Z</time>
      </trkpt>
      <trkpt lat="45.83718" lon="3.63594">
        <ele>700.3</ele>
        <time>2025-10-28T21:01:28.999Z</time>
      </trkpt>
      <trkpt lat="45.83689" lon="3.63617">
        <ele>700</ele>
        <time>2025-10-28T21:01:28.999Z</time>
      </trkpt>
      <trkpt lat="45.83672" lon="3.63628">
        <ele>700.2</ele>
        <time>2025-10-28T21:01:28.999Z</time>
      </trkpt>
      <trkpt lat="45.83667" lon="3.63638">
        <ele>700</ele>
        <time>2025-10-28T21:01:28.999Z</time>
      </trkpt>
      <trkpt lat="45.83664" lon="3.6365">
        <ele>700</ele>
        <time>2025-10-28T21:01:28.999Z</time>
      </trkpt>
      <trkpt lat="45.83677" lon="3.63675">
        <ele>699.5</ele>
        <time>2025-10-28T21:01:28.999Z</time>
      </trkpt>
      <trkpt lat="45.83684" lon="3.63708">
        <ele>698.5</ele>
        <time>2025-10-28T21:01:28.999Z</time>
      </trkpt>
      <trkpt lat="45.83696" lon="3.63732">
        <ele>697.1</ele>
        <time>2025-10-28T21:01:28.999Z</time>
      </trkpt>
      <trkpt lat="45.837" lon="3.63802">
        <ele>698.6</ele>
        <time>2025-10-28T21:01:28.999Z</time>
      </trkpt>
      <trkpt lat="45.83719" lon="3.63855">
        <ele>696.7</ele>
        <time>2025-10-28T21:01:28.999Z</time>
      </trkpt>
      <trkpt lat="45.83727" lon="3.63893">
        <ele>696.6</ele>
        <time>2025-10-28T21:01:28.999Z</time>
      </trkpt>
      <trkpt lat="45.83721" lon="3.63996">
        <ele>696</ele>
        <time>2025-10-28T21:01:28.999Z</time>
      </trkpt>
      <trkpt lat="45.83726" lon="3.64033">
        <ele>696.2</ele>
        <time>2025-10-28T21:01:28.999Z</time>
      </trkpt>
      <trkpt lat="45.83752" lon="3.64052">
        <ele>696.9</ele>
        <time>2025-10-28T21:01:28.999Z</time>
      </trkpt>
      <trkpt lat="45.83815" lon="3.6407">
        <ele>700.4</ele>
        <time>2025-10-28T21:01:28.999Z</time>
      </trkpt>
      <trkpt lat="45.83832" lon="3.6408">
        <ele>702.4</ele>
        <time>2025-10-28T21:01:28.999Z</time>
      </trkpt>
      <trkpt lat="45.83847" lon="3.64099">
        <ele>706.5</ele>
        <time>2025-10-28T21:01:28.999Z</time>
      </trkpt>
      <trkpt lat="45.83867" lon="3.64111">
        <ele>709.4</ele>
        <time>2025-10-28T21:01:28.999Z</time>
      </trkpt>
      <trkpt lat="45.83902" lon="3.64112">
        <ele>712.1</ele>
        <time>2025-10-28T21:01:28.999Z</time>
      </trkpt>
      <trkpt lat="45.84007" lon="3.64175">
        <ele>721.5</ele>
        <time>2025-10-28T21:01:28.999Z</time>
      </trkpt>
      <trkpt lat="45.8406" lon="3.64197">
        <ele>723.5</ele>
        <time>2025-10-28T21:01:28.999Z</time>
      </trkpt>
      <trkpt lat="45.84108" lon="3.6424">
        <ele>728.8</ele>
        <time>2025-10-28T21:01:28.999Z</time>
      </trkpt>
      <trkpt lat="45.84131" lon="3.64285">
        <ele>731.4</ele>
        <time>2025-10-28T21:01:28.999Z</time>
      </trkpt>
      <trkpt lat="45.84136" lon="3.64322">
        <ele>730.1</ele>
        <time>2025-10-28T21:01:28.999Z</time>
      </trkpt>
      <trkpt lat="45.8412" lon="3.64361">
        <ele>731.8</ele>
        <time>2025-10-28T21:01:28.999Z</time>
      </trkpt>
      <trkpt lat="45.84097" lon="3.64395">
        <ele>733.9</ele>
        <time>2025-10-28T21:01:28.999Z</time>
      </trkpt>
      <trkpt lat="45.8406" lon="3.64432">
        <ele>737.6</ele>
        <time>2025-10-28T21:01:28.999Z</time>
      </trkpt>
      <trkpt lat="45.84027" lon="3.64459">
        <ele>741.5</ele>
        <time>2025-10-28T21:01:28.999Z</time>
      </trkpt>
      <trkpt lat="45.83967" lon="3.64484">
        <ele>748.5</ele>
        <time>2025-10-28T21:01:28.999Z</time>
      </trkpt>
      <trkpt lat="45.83921" lon="3.64511">
        <ele>749.8</ele>
        <time>2025-10-28T21:01:28.999Z</time>
      </trkpt>
      <trkpt lat="45.83914" lon="3.64512">
        <ele>749.9</ele>
        <time>2025-10-28T21:01:28.999Z</time>
      </trkpt>
      <trkpt lat="45.83845" lon="3.64569">
        <ele>748.9</ele>
        <time>2025-10-28T21:01:28.999Z</time>
      </trkpt>
      <trkpt lat="45.83833" lon="3.64576">
        <ele>748.7</ele>
        <time>2025-10-28T21:01:28.999Z</time>
      </trkpt>
      <trkpt lat="45.83798" lon="3.64582">
        <ele>747.4</ele>
        <time>2025-10-28T21:01:28.999Z</time>
      </trkpt>
      <trkpt lat="45.83769" lon="3.64588">
        <ele>745.5</ele>
        <time>2025-10-28T21:01:28.999Z</time>
      </trkpt>
      <trkpt lat="45.83695" lon="3.64621">
        <ele>739</ele>
        <time>2025-10-28T21:01:28.999Z</time>
      </trkpt>
      <trkpt lat="45.83674" lon="3.64628">
        <ele>738.2</ele>
        <time>2025-10-28T21:01:28.999Z</time>
      </trkpt>
      <trkpt lat="45.83671" lon="3.64621">
        <ele>738.2</ele>
        <time>2025-10-28T21:01:28.999Z</time>
      </trkpt>
      <trkpt lat="45.83665" lon="3.6461">
        <ele>738</ele>
        <time>2025-10-28T21:01:28.999Z</time>
      </trkpt>
      <trkpt lat="45.83661" lon="3.6461">
        <ele>738.2</ele>
        <time>2025-10-28T21:01:28.999Z</time>
      </trkpt>
      <trkpt lat="45.83658" lon="3.64611">
        <ele>738.3</ele>
        <time>2025-10-28T21:01:28.999Z</time>
      </trkpt>
      <trkpt lat="45.83653" lon="3.64617">
        <ele>738.6</ele>
        <time>2025-10-28T21:01:28.999Z</time>
      </trkpt>
      <trkpt lat="45.83649" lon="3.64632">
        <ele>739.1</ele>
        <time>2025-10-28T21:01:28.999Z</time>
      </trkpt>
      <trkpt lat="45.83647" lon="3.6464">
        <ele>739.4</ele>
        <time>2025-10-28T21:01:28.999Z</time>
      </trkpt>
      <trkpt lat="45.83603" lon="3.64764">
        <ele>742.2</ele>
        <time>2025-10-28T21:01:28.999Z</time>
      </trkpt>
      <trkpt lat="45.83589" lon="3.64791">
        <ele>743.5</ele>
        <time>2025-10-28T21:01:28.999Z</time>
      </trkpt>
      <trkpt lat="45.83535" lon="3.64851">
        <ele>745.9</ele>
        <time>2025-10-28T21:01:28.999Z</time>
      </trkpt>
      <trkpt lat="45.83501" lon="3.64893">
        <ele>748.5</ele>
        <time>2025-10-28T21:01:28.999Z</time>
      </trkpt>
      <trkpt lat="45.83485" lon="3.64901">
        <ele>749.5</ele>
        <time>2025-10-28T21:01:28.999Z</time>
      </trkpt>
      <trkpt lat="45.83475" lon="3.64902">
        <ele>750.4</ele>
        <time>2025-10-28T21:01:28.999Z</time>
      </trkpt>
      <trkpt lat="45.83462" lon="3.64897">
        <ele>750.7</ele>
        <time>2025-10-28T21:01:28.999Z</time>
      </trkpt>
      <trkpt lat="45.83448" lon="3.64884">
        <ele>751.8</ele>
        <time>2025-10-28T21:01:28.999Z</time>
      </trkpt>
      <trkpt lat="45.8343" lon="3.64854">
        <ele>753.7</ele>
        <time>2025-10-28T21:01:28.999Z</time>
      </trkpt>
      <trkpt lat="45.83417" lon="3.64814">
        <ele>755.1</ele>
        <time>2025-10-28T21:01:28.999Z</time>
      </trkpt>
      <trkpt lat="45.83402" lon="3.64755">
        <ele>757.2</ele>
        <time>2025-10-28T21:01:28.999Z</time>
      </trkpt>
      <trkpt lat="45.83403" lon="3.64693">
        <ele>760.1</ele>
        <time>2025-10-28T21:01:28.999Z</time>
      </trkpt>
      <trkpt lat="45.83414" lon="3.64632">
        <ele>765.9</ele>
        <time>2025-10-28T21:01:28.999Z</time>
      </trkpt>
      <trkpt lat="45.8336" lon="3.64615">
        <ele>767.5</ele>
        <time>2025-10-28T21:01:28.999Z</time>
      </trkpt>
      <trkpt lat="45.83314" lon="3.64592">
        <ele>771</ele>
        <time>2025-10-28T21:01:28.999Z</time>
      </trkpt>
      <trkpt lat="45.83275" lon="3.64584">
        <ele>775.3</ele>
        <time>2025-10-28T21:01:28.999Z</time>
      </trkpt>
      <trkpt lat="45.83258" lon="3.64586">
        <ele>777.6</ele>
        <time>2025-10-28T21:01:28.999Z</time>
      </trkpt>
      <trkpt lat="45.83241" lon="3.64582">
        <ele>780.6</ele>
        <time>2025-10-28T21:01:28.999Z</time>
      </trkpt>
      <trkpt lat="45.83223" lon="3.64569">
        <ele>784.9</ele>
        <time>2025-10-28T21:01:28.999Z</time>
      </trkpt>
      <trkpt lat="45.83186" lon="3.64555">
        <ele>791.2</ele>
        <time>2025-10-28T21:01:28.999Z</time>
      </trkpt>
      <trkpt lat="45.83165" lon="3.6455">
        <ele>794.3</ele>
        <time>2025-10-28T21:01:28.999Z</time>
      </trkpt>
      <trkpt lat="45.83124" lon="3.64549">
        <ele>798.8</ele>
        <time>2025-10-28T21:01:28.999Z</time>
      </trkpt>
      <trkpt lat="45.83077" lon="3.64554">
        <ele>804.3</ele>
        <time>2025-10-28T21:01:28.999Z</time>
      </trkpt>
      <trkpt lat="45.82969" lon="3.64655">
        <ele>822.7</ele>
        <time>2025-10-28T21:01:28.999Z</time>
      </trkpt>
      <trkpt lat="45.82923" lon="3.64678">
        <ele>831.2</ele>
        <time>2025-10-28T21:01:28.999Z</time>
      </trkpt>
      <trkpt lat="45.82877" lon="3.64702">
        <ele>841.1</ele>
        <time>2025-10-28T21:01:28.999Z</time>
      </trkpt>
      <trkpt lat="45.82846" lon="3.64747">
        <ele>844.8</ele>
        <time>2025-10-28T21:01:28.999Z</time>
      </trkpt>
      <trkpt lat="45.82814" lon="3.64863">
        <ele>848.8</ele>
        <time>2025-10-28T21:01:28.999Z</time>
      </trkpt>
      <trkpt lat="45.82784" lon="3.64899">
        <ele>857.8</ele>
        <time>2025-10-28T21:01:28.999Z</time>
      </trkpt>
      <trkpt lat="45.82749" lon="3.6492">
        <ele>864.5</ele>
        <time>2025-10-28T21:01:28.999Z</time>
      </trkpt>
      <trkpt lat="45.82738" lon="3.64937">
        <ele>863.3</ele>
        <time>2025-10-28T21:01:28.999Z</time>
      </trkpt>
      <trkpt lat="45.82722" lon="3.64934">
        <ele>866.5</ele>
        <time>2025-10-28T21:01:28.999Z</time>
      </trkpt>
      <trkpt lat="45.82696" lon="3.64953">
        <ele>867.2</ele>
        <time>2025-10-28T21:01:28.999Z</time>
      </trkpt>
      <trkpt lat="45.82645" lon="3.65008">
        <ele>865.1</ele>
        <time>2025-10-28T21:01:28.999Z</time>
      </trkpt>
      <trkpt lat="45.82593" lon="3.65054">
        <ele>868.4</ele>
        <time>2025-10-28T21:01:28.999Z</time>
      </trkpt>
      <trkpt lat="45.82518" lon="3.65107">
        <ele>877.1</ele>
        <time>2025-10-28T21:01:28.999Z</time>
      </trkpt>
      <trkpt lat="45.82494" lon="3.65138">
        <ele>878.7</ele>
        <time>2025-10-28T21:01:28.999Z</time>
      </trkpt>
      <trkpt lat="45.82455" lon="3.65181">
        <ele>877.9</ele>
        <time>2025-10-28T21:01:28.999Z</time>
      </trkpt>
      <trkpt lat="45.82412" lon="3.65215">
        <ele>878.4</ele>
        <time>2025-10-28T21:01:28.999Z</time>
      </trkpt>
      <trkpt lat="45.82394" lon="3.65246">
        <ele>878.5</ele>
        <time>2025-10-28T21:01:28.999Z</time>
      </trkpt>
      <trkpt lat="45.82372" lon="3.65318">
        <ele>883.1</ele>
        <time>2025-10-28T21:01:28.999Z</time>
      </trkpt>
      <trkpt lat="45.82311" lon="3.65459">
        <ele>896</ele>
        <time>2025-10-28T21:01:28.999Z</time>
      </trkpt>
      <trkpt lat="45.82277" lon="3.65499">
        <ele>900.2</ele>
        <time>2025-10-28T21:01:28.999Z</time>
      </trkpt>
      <trkpt lat="45.82237" lon="3.65519">
        <ele>903.7</ele>
        <time>2025-10-28T21:01:28.999Z</time>
      </trkpt>
      <trkpt lat="45.82156" lon="3.65567">
        <ele>906.2</ele>
        <time>2025-10-28T21:01:28.999Z</time>
      </trkpt>
      <trkpt lat="45.82121" lon="3.65598">
        <ele>906.4</ele>
        <time>2025-10-28T21:01:28.999Z</time>
      </trkpt>
      <trkpt lat="45.82077" lon="3.6561">
        <ele>908.3</ele>
        <time>2025-10-28T21:01:28.999Z</time>
      </trkpt>
      <trkpt lat="45.82056" lon="3.65611">
        <ele>909</ele>
        <time>2025-10-28T21:01:28.999Z</time>
      </trkpt>
      <trkpt lat="45.82042" lon="3.65604">
        <ele>909.7</ele>
        <time>2025-10-28T21:01:28.999Z</time>
      </trkpt>
      <trkpt lat="45.82029" lon="3.65593">
        <ele>910.9</ele>
        <time>2025-10-28T21:01:28.999Z</time>
      </trkpt>
      <trkpt lat="45.82004" lon="3.65581">
        <ele>911.3</ele>
        <time>2025-10-28T21:01:28.999Z</time>
      </trkpt>
      <trkpt lat="45.81981" lon="3.65573">
        <ele>910.7</ele>
        <time>2025-10-28T21:01:28.999Z</time>
      </trkpt>
      <trkpt lat="45.81954" lon="3.65566">
        <ele>910.5</ele>
        <time>2025-10-28T21:01:28.999Z</time>
      </trkpt>
      <trkpt lat="45.81939" lon="3.6557">
        <ele>910.2</ele>
        <time>2025-10-28T21:01:28.999Z</time>
      </trkpt>
      <trkpt lat="45.81899" lon="3.65591">
        <ele>910.3</ele>
        <time>2025-10-28T21:01:28.999Z</time>
      </trkpt>
      <trkpt lat="45.81882" lon="3.65597">
        <ele>910.4</ele>
        <time>2025-10-28T21:01:28.999Z</time>
      </trkpt>
      <trkpt lat="45.8186" lon="3.65614">
        <ele>911.1</ele>
        <time>2025-10-28T21:01:28.999Z</time>
      </trkpt>
      <trkpt lat="45.81843" lon="3.65621">
        <ele>912.3</ele>
        <time>2025-10-28T21:01:28.999Z</time>
      </trkpt>
      <trkpt lat="45.81822" lon="3.65642">
        <ele>914.5</ele>
        <time>2025-10-28T21:01:28.999Z</time>
      </trkpt>
      <trkpt lat="45.81771" lon="3.65715">
        <ele>921</ele>
        <time>2025-10-28T21:01:28.999Z</time>
      </trkpt>
      <trkpt lat="45.8175" lon="3.65748">
        <ele>923.2</ele>
        <time>2025-10-28T21:01:28.999Z</time>
      </trkpt>
      <trkpt lat="45.81737" lon="3.6576">
        <ele>924.7</ele>
        <time>2025-10-28T21:01:28.999Z</time>
      </trkpt>
      <trkpt lat="45.81702" lon="3.65801">
        <ele>926.3</ele>
        <time>2025-10-28T21:01:28.999Z</time>
      </trkpt>
      <trkpt lat="45.81653" lon="3.65815">
        <ele>931</ele>
        <time>2025-10-28T21:01:28.999Z</time>
      </trkpt>
      <trkpt lat="45.81631" lon="3.6582">
        <ele>931.7</ele>
        <time>2025-10-28T21:01:28.999Z</time>
      </trkpt>
      <trkpt lat="45.81611" lon="3.6582">
        <ele>932.3</ele>
        <time>2025-10-28T21:01:28.999Z</time>
      </trkpt>
      <trkpt lat="45.81587" lon="3.65814">
        <ele>931.6</ele>
        <time>2025-10-28T21:01:28.999Z</time>
      </trkpt>
      <trkpt lat="45.81558" lon="3.658">
        <ele>932.1</ele>
        <time>2025-10-28T21:01:28.999Z</time>
      </trkpt>
      <trkpt lat="45.81528" lon="3.65771">
        <ele>931.8</ele>
        <time>2025-10-28T21:01:28.999Z</time>
      </trkpt>
      <trkpt lat="45.81503" lon="3.65735">
        <ele>931</ele>
        <time>2025-10-28T21:01:28.999Z</time>
      </trkpt>
      <trkpt lat="45.81481" lon="3.65702">
        <ele>929.9</ele>
        <time>2025-10-28T21:01:28.999Z</time>
      </trkpt>
      <trkpt lat="45.81473" lon="3.65693">
        <ele>929.1</ele>
        <time>2025-10-28T21:01:28.999Z</time>
      </trkpt>
      <trkpt lat="45.81465" lon="3.6569">
        <ele>928.7</ele>
        <time>2025-10-28T21:01:28.999Z</time>
      </trkpt>
      <trkpt lat="45.81437" lon="3.65683">
        <ele>927.6</ele>
        <time>2025-10-28T21:01:28.999Z</time>
      </trkpt>
      <trkpt lat="45.81397" lon="3.6568">
        <ele>927.5</ele>
        <time>2025-10-28T21:01:28.999Z</time>
      </trkpt>
      <trkpt lat="45.81377" lon="3.65685">
        <ele>926.9</ele>
        <time>2025-10-28T21:01:28.999Z</time>
      </trkpt>
      <trkpt lat="45.81357" lon="3.65703">
        <ele>926.9</ele>
        <time>2025-10-28T21:01:28.999Z</time>
      </trkpt>
      <trkpt lat="45.81344" lon="3.65708">
        <ele>927</ele>
        <time>2025-10-28T21:01:28.999Z</time>
      </trkpt>
      <trkpt lat="45.81335" lon="3.657">
        <ele>926.4</ele>
        <time>2025-10-28T21:01:28.999Z</time>
      </trkpt>
      <trkpt lat="45.81331" lon="3.6571">
        <ele>927.1</ele>
        <time>2025-10-28T21:01:28.999Z</time>
      </trkpt>
      <trkpt lat="45.81311" lon="3.65735">
        <ele>928.6</ele>
        <time>2025-10-28T21:01:28.999Z</time>
      </trkpt>
      <trkpt lat="45.81301" lon="3.65755">
        <ele>929</ele>
        <time>2025-10-28T21:01:28.999Z</time>
      </trkpt>
      <trkpt lat="45.81285" lon="3.65772">
        <ele>929.6</ele>
        <time>2025-10-28T21:01:28.999Z</time>
      </trkpt>
      <trkpt lat="45.81271" lon="3.65777">
        <ele>930.2</ele>
        <time>2025-10-28T21:01:28.999Z</time>
      </trkpt>
      <trkpt lat="45.81252" lon="3.65791">
        <ele>930.9</ele>
        <time>2025-10-28T21:01:28.999Z</time>
      </trkpt>
      <trkpt lat="45.8124" lon="3.65798">
        <ele>931.7</ele>
        <time>2025-10-28T21:01:28.999Z</time>
      </trkpt>
      <trkpt lat="45.81193" lon="3.6581">
        <ele>936.4</ele>
        <time>2025-10-28T21:01:28.999Z</time>
      </trkpt>
      <trkpt lat="45.81092" lon="3.65855">
        <ele>955.7</ele>
        <time>2025-10-28T21:01:28.999Z</time>
      </trkpt>
      <trkpt lat="45.81074" lon="3.65874">
        <ele>960.2</ele>
        <time>2025-10-28T21:01:28.999Z</time>
      </trkpt>
      <trkpt lat="45.81028" lon="3.65894">
        <ele>968</ele>
        <time>2025-10-28T21:01:28.999Z</time>
      </trkpt>
      <trkpt lat="45.80998" lon="3.65891">
        <ele>972.4</ele>
        <time>2025-10-28T21:01:28.999Z</time>
      </trkpt>
      <trkpt lat="45.80968" lon="3.65874">
        <ele>977.5</ele>
        <time>2025-10-28T21:01:28.999Z</time>
      </trkpt>
      <trkpt lat="45.80941" lon="3.65865">
        <ele>982.1</ele>
        <time>2025-10-28T21:01:28.999Z</time>
      </trkpt>
      <trkpt lat="45.80898" lon="3.65858">
        <ele>988.7</ele>
        <time>2025-10-28T21:01:28.999Z</time>
      </trkpt>
      <trkpt lat="45.80872" lon="3.65868">
        <ele>992.2</ele>
        <time>2025-10-28T21:01:28.999Z</time>
      </trkpt>
      <trkpt lat="45.8086" lon="3.65882">
        <ele>993.4</ele>
        <time>2025-10-28T21:01:28.999Z</time>
      </trkpt>
      <trkpt lat="45.80854" lon="3.65895">
        <ele>993.6</ele>
        <time>2025-10-28T21:01:28.999Z</time>
      </trkpt>
      <trkpt lat="45.808" lon="3.6598">
        <ele>998</ele>
        <time>2025-10-28T21:01:28.999Z</time>
      </trkpt>
      <trkpt lat="45.8079" lon="3.65987">
        <ele>998.9</ele>
        <time>2025-10-28T21:01:28.999Z</time>
      </trkpt>
      <trkpt lat="45.80778" lon="3.65988">
        <ele>1000.5</ele>
        <time>2025-10-28T21:01:28.999Z</time>
      </trkpt>
      <trkpt lat="45.80753" lon="3.65981">
        <ele>1000.9</ele>
        <time>2025-10-28T21:01:28.999Z</time>
      </trkpt>
      <trkpt lat="45.80742" lon="3.65982">
        <ele>1000.2</ele>
        <time>2025-10-28T21:01:28.999Z</time>
      </trkpt>
      <trkpt lat="45.80723" lon="3.65992">
        <ele>998.9</ele>
        <time>2025-10-28T21:01:28.999Z</time>
      </trkpt>
      <trkpt lat="45.80692" lon="3.66023">
        <ele>996.1</ele>
        <time>2025-10-28T21:01:28.999Z</time>
      </trkpt>
      <trkpt lat="45.8064" lon="3.66088">
        <ele>989.7</ele>
        <time>2025-10-28T21:01:28.999Z</time>
      </trkpt>
      <trkpt lat="45.80605" lon="3.66141">
        <ele>984.8</ele>
        <time>2025-10-28T21:01:28.999Z</time>
      </trkpt>
      <trkpt lat="45.806" lon="3.66151">
        <ele>983.6</ele>
        <time>2025-10-28T21:01:28.999Z</time>
      </trkpt>
      <trkpt lat="45.80584" lon="3.66184">
        <ele>980.1</ele>
        <time>2025-10-28T21:01:28.999Z</time>
      </trkpt>
      <trkpt lat="45.80569" lon="3.66205">
        <ele>976.1</ele>
        <time>2025-10-28T21:01:28.999Z</time>
      </trkpt>
      <trkpt lat="45.80567" lon="3.66216">
        <ele>975.1</ele>
        <time>2025-10-28T21:01:28.999Z</time>
      </trkpt>
      <trkpt lat="45.80583" lon="3.66339">
        <ele>969</ele>
        <time>2025-10-28T21:01:28.999Z</time>
      </trkpt>
      <trkpt lat="45.80596" lon="3.66388">
        <ele>964.9</ele>
        <time>2025-10-28T21:01:28.999Z</time>
      </trkpt>
      <trkpt lat="45.80639" lon="3.66508">
        <ele>958.1</ele>
        <time>2025-10-28T21:01:28.999Z</time>
      </trkpt>
      <trkpt lat="45.80657" lon="3.66556">
        <ele>956.1</ele>
        <time>2025-10-28T21:01:28.999Z</time>
      </trkpt>
      <trkpt lat="45.80679" lon="3.666">
        <ele>953.4</ele>
        <time>2025-10-28T21:01:28.999Z</time>
      </trkpt>
      <trkpt lat="45.80703" lon="3.66657">
        <ele>949.7</ele>
        <time>2025-10-28T21:01:28.999Z</time>
      </trkpt>
      <trkpt lat="45.80694" lon="3.66662">
        <ele>950.2</ele>
        <time>2025-10-28T21:01:28.999Z</time>
      </trkpt>
      <trkpt lat="45.8069" lon="3.66688">
        <ele>950.8</ele>
        <time>2025-10-28T21:01:28.999Z</time>
      </trkpt>
      <trkpt lat="45.80679" lon="3.66705">
        <ele>951.6</ele>
        <time>2025-10-28T21:01:28.999Z</time>
      </trkpt>
      <trkpt lat="45.80667" lon="3.66742">
        <ele>955.8</ele>
        <time>2025-10-28T21:01:28.999Z</time>
      </trkpt>
      <trkpt lat="45.80668" lon="3.66788">
        <ele>960.7</ele>
        <time>2025-10-28T21:01:28.999Z</time>
      </trkpt>
      <trkpt lat="45.80662" lon="3.66818">
        <ele>963.2</ele>
        <time>2025-10-28T21:01:28.999Z</time>
      </trkpt>
      <trkpt lat="45.80663" lon="3.66841">
        <ele>965.7</ele>
        <time>2025-10-28T21:01:28.999Z</time>
      </trkpt>
      <trkpt lat="45.80655" lon="3.66869">
        <ele>968.8</ele>
        <time>2025-10-28T21:01:28.999Z</time>
      </trkpt>
      <trkpt lat="45.80652" lon="3.66896">
        <ele>971.5</ele>
        <time>2025-10-28T21:01:28.999Z</time>
      </trkpt>
      <trkpt lat="45.80636" lon="3.66994">
        <ele>977.8</ele>
        <time>2025-10-28T21:01:28.999Z</time>
      </trkpt>
      <trkpt lat="45.80624" lon="3.67045">
        <ele>979.7</ele>
        <time>2025-10-28T21:01:28.999Z</time>
      </trkpt>
      <trkpt lat="45.80619" lon="3.67078">
        <ele>981.4</ele>
        <time>2025-10-28T21:01:28.999Z</time>
      </trkpt>
      <trkpt lat="45.806" lon="3.67128">
        <ele>984.2</ele>
        <time>2025-10-28T21:01:28.999Z</time>
      </trkpt>
      <trkpt lat="45.80582" lon="3.67219">
        <ele>991</ele>
        <time>2025-10-28T21:01:28.999Z</time>
      </trkpt>
      <trkpt lat="45.80574" lon="3.67236">
        <ele>993.4</ele>
        <time>2025-10-28T21:01:28.999Z</time>
      </trkpt>
      <trkpt lat="45.80561" lon="3.67241">
        <ele>996.3</ele>
        <time>2025-10-28T21:01:28.999Z</time>
      </trkpt>
      <trkpt lat="45.80551" lon="3.67241">
        <ele>998</ele>
        <time>2025-10-28T21:01:28.999Z</time>
      </trkpt>
      <trkpt lat="45.80536" lon="3.67236">
        <ele>999.5</ele>
        <time>2025-10-28T21:01:28.999Z</time>
      </trkpt>
      <trkpt lat="45.80523" lon="3.67238">
        <ele>1000.8</ele>
        <time>2025-10-28T21:01:28.999Z</time>
      </trkpt>
      <trkpt lat="45.8051" lon="3.67249">
        <ele>1002.5</ele>
        <time>2025-10-28T21:01:28.999Z</time>
      </trkpt>
      <trkpt lat="45.8045" lon="3.67315">
        <ele>1018.2</ele>
        <time>2025-10-28T21:01:28.999Z</time>
      </trkpt>
      <trkpt lat="45.80416" lon="3.67335">
        <ele>1025.2</ele>
        <time>2025-10-28T21:01:28.999Z</time>
      </trkpt>
      <trkpt lat="45.8039" lon="3.67339">
        <ele>1028.7</ele>
        <time>2025-10-28T21:01:28.999Z</time>
      </trkpt>
      <trkpt lat="45.80378" lon="3.67356">
        <ele>1031.3</ele>
        <time>2025-10-28T21:01:28.999Z</time>
      </trkpt>
      <trkpt lat="45.8037" lon="3.67387">
        <ele>1036.4</ele>
        <time>2025-10-28T21:01:28.999Z</time>
      </trkpt>
      <trkpt lat="45.80369" lon="3.67407">
        <ele>1038.9</ele>
        <time>2025-10-28T21:01:28.999Z</time>
      </trkpt>
      <trkpt lat="45.80376" lon="3.67417">
        <ele>1040</ele>
        <time>2025-10-28T21:01:28.999Z</time>
      </trkpt>
      <trkpt lat="45.80386" lon="3.67449">
        <ele>1044.3</ele>
        <time>2025-10-28T21:01:28.999Z</time>
      </trkpt>
      <trkpt lat="45.80386" lon="3.67466">
        <ele>1045.6</ele>
        <time>2025-10-28T21:01:28.999Z</time>
      </trkpt>
      <trkpt lat="45.80383" lon="3.67477">
        <ele>1046.6</ele>
        <time>2025-10-28T21:01:28.999Z</time>
      </trkpt>
      <trkpt lat="45.80362" lon="3.67496">
        <ele>1049.5</ele>
        <time>2025-10-28T21:01:28.999Z</time>
      </trkpt>
      <trkpt lat="45.80354" lon="3.67509">
        <ele>1050.5</ele>
        <time>2025-10-28T21:01:28.999Z</time>
      </trkpt>
      <trkpt lat="45.80348" lon="3.67529">
        <ele>1052.7</ele>
        <time>2025-10-28T21:01:28.999Z</time>
      </trkpt>
      <trkpt lat="45.80344" lon="3.6758">
        <ele>1060.2</ele>
        <time>2025-10-28T21:01:28.999Z</time>
      </trkpt>
      <trkpt lat="45.80338" lon="3.67599">
        <ele>1061.8</ele>
        <time>2025-10-28T21:01:28.999Z</time>
      </trkpt>
      <trkpt lat="45.80324" lon="3.67616">
        <ele>1063.1</ele>
        <time>2025-10-28T21:01:28.999Z</time>
      </trkpt>
      <trkpt lat="45.80312" lon="3.67644">
        <ele>1064.4</ele>
        <time>2025-10-28T21:01:28.999Z</time>
      </trkpt>
      <trkpt lat="45.80296" lon="3.67699">
        <ele>1065.9</ele>
        <time>2025-10-28T21:01:28.999Z</time>
      </trkpt>
      <trkpt lat="45.80286" lon="3.67712">
        <ele>1066.6</ele>
        <time>2025-10-28T21:01:28.999Z</time>
      </trkpt>
      <trkpt lat="45.80265" lon="3.6773">
        <ele>1067.7</ele>
        <time>2025-10-28T21:01:28.999Z</time>
      </trkpt>
      <trkpt lat="45.80251" lon="3.67746">
        <ele>1068.6</ele>
        <time>2025-10-28T21:01:28.999Z</time>
      </trkpt>
      <trkpt lat="45.80237" lon="3.67773">
        <ele>1070</ele>
        <time>2025-10-28T21:01:28.999Z</time>
      </trkpt>
      <trkpt lat="45.80233" lon="3.67793">
        <ele>1071.8</ele>
        <time>2025-10-28T21:01:28.999Z</time>
      </trkpt>
      <trkpt lat="45.80236" lon="3.67813">
        <ele>1074</ele>
        <time>2025-10-28T21:01:28.999Z</time>
      </trkpt>
      <trkpt lat="45.80234" lon="3.67828">
        <ele>1075</ele>
        <time>2025-10-28T21:01:28.999Z</time>
      </trkpt>
      <trkpt lat="45.80233" lon="3.67853">
        <ele>1076.1</ele>
        <time>2025-10-28T21:01:28.999Z</time>
      </trkpt>
      <trkpt lat="45.80242" lon="3.67879">
        <ele>1074.3</ele>
        <time>2025-10-28T21:01:28.999Z</time>
      </trkpt>
      <trkpt lat="45.80232" lon="3.67902">
        <ele>1074.6</ele>
        <time>2025-10-28T21:01:28.999Z</time>
      </trkpt>
      <trkpt lat="45.80222" lon="3.67922">
        <ele>1075.4</ele>
        <time>2025-10-28T21:01:28.999Z</time>
      </trkpt>
      <trkpt lat="45.80202" lon="3.67937">
        <ele>1076.7</ele>
        <time>2025-10-28T21:01:28.999Z</time>
      </trkpt>
      <trkpt lat="45.80194" lon="3.67958">
        <ele>1077.4</ele>
        <time>2025-10-28T21:01:28.999Z</time>
      </trkpt>
      <trkpt lat="45.80188" lon="3.67977">
        <ele>1078.2</ele>
        <time>2025-10-28T21:01:28.999Z</time>
      </trkpt>
      <trkpt lat="45.80171" lon="3.6801">
        <ele>1080.5</ele>
        <time>2025-10-28T21:01:28.999Z</time>
      </trkpt>
      <trkpt lat="45.80149" lon="3.6807">
        <ele>1082.1</ele>
        <time>2025-10-28T21:01:28.999Z</time>
      </trkpt>
      <trkpt lat="45.80118" lon="3.68165">
        <ele>1089.2</ele>
        <time>2025-10-28T21:01:28.999Z</time>
      </trkpt>
      <trkpt lat="45.80106" lon="3.68197">
        <ele>1092.7</ele>
        <time>2025-10-28T21:01:28.999Z</time>
      </trkpt>
      <trkpt lat="45.80095" lon="3.68215">
        <ele>1093.2</ele>
        <time>2025-10-28T21:01:28.999Z</time>
      </trkpt>
      <trkpt lat="45.80093" lon="3.6824">
        <ele>1095.7</ele>
        <time>2025-10-28T21:01:28.999Z</time>
      </trkpt>
      <trkpt lat="45.8009" lon="3.68249">
        <ele>1095.7</ele>
        <time>2025-10-28T21:01:28.999Z</time>
      </trkpt>
      <trkpt lat="45.80088" lon="3.68257">
        <ele>1095.2</ele>
        <time>2025-10-28T21:01:28.999Z</time>
      </trkpt>
      <trkpt lat="45.80084" lon="3.68281">
        <ele>1095.6</ele>
        <time>2025-10-28T21:01:28.999Z</time>
      </trkpt>
      <trkpt lat="45.80078" lon="3.68312">
        <ele>1096.9</ele>
        <time>2025-10-28T21:01:28.999Z</time>
      </trkpt>
      <trkpt lat="45.80067" lon="3.68366">
        <ele>1100.6</ele>
        <time>2025-10-28T21:01:28.999Z</time>
      </trkpt>
      <trkpt lat="45.80059" lon="3.6842">
        <ele>1103.1</ele>
        <time>2025-10-28T21:01:28.999Z</time>
      </trkpt>
      <trkpt lat="45.80057" lon="3.68451">
        <ele>1104.5</ele>
        <time>2025-10-28T21:01:28.999Z</time>
      </trkpt>
      <trkpt lat="45.80049" lon="3.68495">
        <ele>1103</ele>
        <time>2025-10-28T21:01:28.999Z</time>
      </trkpt>
      <trkpt lat="45.80034" lon="3.68582">
        <ele>1099.9</ele>
        <time>2025-10-28T21:01:28.999Z</time>
      </trkpt>
      <trkpt lat="45.80031" lon="3.68629">
        <ele>1099.5</ele>
        <time>2025-10-28T21:01:28.999Z</time>
      </trkpt>
      <trkpt lat="45.80033" lon="3.68681">
        <ele>1100.9</ele>
        <time>2025-10-28T21:01:28.999Z</time>
      </trkpt>
      <trkpt lat="45.80035" lon="3.68689">
        <ele>1101.6</ele>
        <time>2025-10-28T21:01:28.999Z</time>
      </trkpt>
      <trkpt lat="45.80037" lon="3.68718">
        <ele>1102.9</ele>
        <time>2025-10-28T21:01:28.999Z</time>
      </trkpt>
      <trkpt lat="45.8004" lon="3.68769">
        <ele>1101.8</ele>
        <time>2025-10-28T21:01:28.999Z</time>
      </trkpt>
      <trkpt lat="45.80043" lon="3.68786">
        <ele>1102.7</ele>
        <time>2025-10-28T21:01:28.999Z</time>
      </trkpt>
      <trkpt lat="45.8005" lon="3.68848">
        <ele>1106.4</ele>
        <time>2025-10-28T21:01:28.999Z</time>
      </trkpt>
      <trkpt lat="45.8005" lon="3.6886">
        <ele>1106.6</ele>
        <time>2025-10-28T21:01:28.999Z</time>
      </trkpt>
      <trkpt lat="45.80043" lon="3.68898">
        <ele>1104.2</ele>
        <time>2025-10-28T21:01:28.999Z</time>
      </trkpt>
      <trkpt lat="45.80037" lon="3.68985">
        <ele>1098.6</ele>
        <time>2025-10-28T21:01:28.999Z</time>
      </trkpt>
      <trkpt lat="45.80037" lon="3.69012">
        <ele>1096.9</ele>
        <time>2025-10-28T21:01:28.999Z</time>
      </trkpt>
      <trkpt lat="45.8004" lon="3.69059">
        <ele>1093.6</ele>
        <time>2025-10-28T21:01:28.999Z</time>
      </trkpt>
      <trkpt lat="45.80041" lon="3.69066">
        <ele>1093</ele>
        <time>2025-10-28T21:01:28.999Z</time>
      </trkpt>
      <trkpt lat="45.80069" lon="3.69133">
        <ele>1094.5</ele>
        <time>2025-10-28T21:01:28.999Z</time>
      </trkpt>
      <trkpt lat="45.8009" lon="3.69193">
        <ele>1094.3</ele>
        <time>2025-10-28T21:01:28.999Z</time>
      </trkpt>
      <trkpt lat="45.80105" lon="3.69254">
        <ele>1093.8</ele>
        <time>2025-10-28T21:01:28.999Z</time>
      </trkpt>
      <trkpt lat="45.80122" lon="3.69329">
        <ele>1092.1</ele>
        <time>2025-10-28T21:01:28.999Z</time>
      </trkpt>
      <trkpt lat="45.80132" lon="3.6939">
        <ele>1090.2</ele>
        <time>2025-10-28T21:01:28.999Z</time>
      </trkpt>
      <trkpt lat="45.80139" lon="3.69444">
        <ele>1089.1</ele>
        <time>2025-10-28T21:01:28.999Z</time>
      </trkpt>
      <trkpt lat="45.8014" lon="3.69488">
        <ele>1088.6</ele>
        <time>2025-10-28T21:01:28.999Z</time>
      </trkpt>
      <trkpt lat="45.80139" lon="3.6954">
        <ele>1089.4</ele>
        <time>2025-10-28T21:01:28.999Z</time>
      </trkpt>
      <trkpt lat="45.80146" lon="3.6957">
        <ele>1090</ele>
        <time>2025-10-28T21:01:28.999Z</time>
      </trkpt>
      <trkpt lat="45.80162" lon="3.69623">
        <ele>1086.3</ele>
        <time>2025-10-28T21:01:28.999Z</time>
      </trkpt>
      <trkpt lat="45.80174" lon="3.6965">
        <ele>1083.8</ele>
        <time>2025-10-28T21:01:28.999Z</time>
      </trkpt>
      <trkpt lat="45.80188" lon="3.69662">
        <ele>1083</ele>
        <time>2025-10-28T21:01:28.999Z</time>
      </trkpt>
      <trkpt lat="45.80226" lon="3.69671">
        <ele>1081.4</ele>
        <time>2025-10-28T21:01:28.999Z</time>
      </trkpt>
      <trkpt lat="45.80264" lon="3.69673">
        <ele>1080</ele>
        <time>2025-10-28T21:01:28.999Z</time>
      </trkpt>
      <trkpt lat="45.80287" lon="3.6968">
        <ele>1078.8</ele>
        <time>2025-10-28T21:01:28.999Z</time>
      </trkpt>
      <trkpt lat="45.8029" lon="3.69601">
        <ele>1081.8</ele>
        <time>2025-10-28T21:01:28.999Z</time>
      </trkpt>
      <trkpt lat="45.80304" lon="3.69474">
        <ele>1093</ele>
        <time>2025-10-28T21:01:28.999Z</time>
      </trkpt>
      <trkpt lat="45.80324" lon="3.69348">
        <ele>1105.9</ele>
        <time>2025-10-28T21:01:28.999Z</time>
      </trkpt>
      <trkpt lat="45.80327" lon="3.69308">
        <ele>1109.3</ele>
        <time>2025-10-28T21:01:28.999Z</time>
      </trkpt>
      <trkpt lat="45.80337" lon="3.69289">
        <ele>1111.3</ele>
        <time>2025-10-28T21:01:28.999Z</time>
      </trkpt>
      <trkpt lat="45.8035" lon="3.69262">
        <ele>1114.9</ele>
        <time>2025-10-28T21:01:28.999Z</time>
      </trkpt>
      <trkpt lat="45.80366" lon="3.69207">
        <ele>1124.2</ele>
        <time>2025-10-28T21:01:28.999Z</time>
      </trkpt>
      <trkpt lat="45.80387" lon="3.69149">
        <ele>1133.3</ele>
        <time>2025-10-28T21:01:28.999Z</time>
      </trkpt>
      <trkpt lat="45.80401" lon="3.69116">
        <ele>1137</ele>
        <time>2025-10-28T21:01:28.999Z</time>
      </trkpt>
      <trkpt lat="45.80417" lon="3.69085">
        <ele>1139.8</ele>
        <time>2025-10-28T21:01:28.999Z</time>
      </trkpt>
      <trkpt lat="45.80442" lon="3.69052">
        <ele>1141.4</ele>
        <time>2025-10-28T21:01:28.999Z</time>
      </trkpt>
      <trkpt lat="45.80468" lon="3.69036">
        <ele>1141.6</ele>
        <time>2025-10-28T21:01:28.999Z</time>
      </trkpt>
      <trkpt lat="45.80491" lon="3.69014">
        <ele>1141.8</ele>
        <time>2025-10-28T21:01:28.999Z</time>
      </trkpt>
      <trkpt lat="45.80503" lon="3.68991">
        <ele>1141.9</ele>
        <time>2025-10-28T21:01:28.999Z</time>
      </trkpt>
      <trkpt lat="45.80518" lon="3.68981">
        <ele>1141.4</ele>
        <time>2025-10-28T21:01:28.999Z</time>
      </trkpt>
      <trkpt lat="45.80514" lon="3.68975">
        <ele>1141.5</ele>
        <time>2025-10-28T21:01:28.999Z</time>
      </trkpt>
      <trkpt lat="45.80487" lon="3.68917">
        <ele>1144</ele>
        <time>2025-10-28T21:01:28.999Z</time>
      </trkpt>
      <trkpt lat="45.80471" lon="3.68886">
        <ele>1145.2</ele>
        <time>2025-10-28T21:01:28.999Z</time>
      </trkpt>
      <trkpt lat="45.80453" lon="3.68858">
        <ele>1147.8</ele>
        <time>2025-10-28T21:01:28.999Z</time>
      </trkpt>
      <trkpt lat="45.8043" lon="3.68837">
        <ele>1151</ele>
        <time>2025-10-28T21:01:28.999Z</time>
      </trkpt>
      <trkpt lat="45.80407" lon="3.68818">
        <ele>1154.3</ele>
        <time>2025-10-28T21:01:28.999Z</time>
      </trkpt>
      <trkpt lat="45.80396" lon="3.68794">
        <ele>1156.3</ele>
        <time>2025-10-28T21:01:28.999Z</time>
      </trkpt>
      <trkpt lat="45.80378" lon="3.68783">
        <ele>1159</ele>
        <time>2025-10-28T21:01:28.999Z</time>
      </trkpt>
      <trkpt lat="45.8036" lon="3.68759">
        <ele>1162</ele>
        <time>2025-10-28T21:01:28.999Z</time>
      </trkpt>
      <trkpt lat="45.80352" lon="3.68715">
        <ele>1165.9</ele>
        <time>2025-10-28T21:01:28.999Z</time>
      </trkpt>
      <trkpt lat="45.80347" lon="3.68665">
        <ele>1170.8</ele>
        <time>2025-10-28T21:01:28.999Z</time>
      </trkpt>
      <trkpt lat="45.80348" lon="3.68628">
        <ele>1173.8</ele>
        <time>2025-10-28T21:01:28.999Z</time>
      </trkpt>
      <trkpt lat="45.80343" lon="3.68602">
        <ele>1176.7</ele>
        <time>2025-10-28T21:01:28.999Z</time>
      </trkpt>
      <trkpt lat="45.80329" lon="3.68579">
        <ele>1180.4</ele>
        <time>2025-10-28T21:01:28.999Z</time>
      </trkpt>
      <trkpt lat="45.80302" lon="3.68573">
        <ele>1183</ele>
        <time>2025-10-28T21:01:28.999Z</time>
      </trkpt>
      <trkpt lat="45.80276" lon="3.68588">
        <ele>1183.6</ele>
        <time>2025-10-28T21:01:28.999Z</time>
      </trkpt>
      <trkpt lat="45.80267" lon="3.68603">
        <ele>1184.8</ele>
        <time>2025-10-28T21:01:28.999Z</time>
      </trkpt>
      <trkpt lat="45.80263" lon="3.68609">
        <ele>1185.1</ele>
        <time>2025-10-28T21:01:28.999Z</time>
      </trkpt>
      <trkpt lat="45.80255" lon="3.68638">
        <ele>1188.4</ele>
        <time>2025-10-28T21:01:28.999Z</time>
      </trkpt>
      <trkpt lat="45.8025" lon="3.68655">
        <ele>1189.7</ele>
        <time>2025-10-28T21:01:28.999Z</time>
      </trkpt>
      <trkpt lat="45.80246" lon="3.68663">
        <ele>1189.9</ele>
        <time>2025-10-28T21:01:28.999Z</time>
      </trkpt>
      <trkpt lat="45.80245" lon="3.6867">
        <ele>1190.4</ele>
        <time>2025-10-28T21:01:28.999Z</time>
      </trkpt>
      <trkpt lat="45.80246" lon="3.68677">
        <ele>1191.4</ele>
        <time>2025-10-28T21:01:28.999Z</time>
      </trkpt>
      <trkpt lat="45.80247" lon="3.68681">
        <ele>1192.1</ele>
        <time>2025-10-28T21:01:28.999Z</time>
      </trkpt>
      <trkpt lat="45.80258" lon="3.68696">
        <ele>1193.5</ele>
        <time>2025-10-28T21:01:28.999Z</time>
        <extensions>
          <visugpx:TrkExtension xmlns:visugpx="https://www.visugpx.com/editgpx/">
            <visugpx:node>1</visugpx:node>
            </visugpx:TrkExtension>
        </extensions>
      </trkpt>
      <trkpt lat="45.80256" lon="3.68694">
        <ele>1193.5</ele>
      </trkpt>
      <trkpt lat="45.80249" lon="3.68683">
        <ele>1192.6</ele>
      </trkpt>
      <trkpt lat="45.80245" lon="3.68673">
        <ele>1190.8</ele>
      </trkpt>
      <trkpt lat="45.80246" lon="3.6866">
        <ele>1189.6</ele>
      </trkpt>
      <trkpt lat="45.8025" lon="3.68654">
        <ele>1189.6</ele>
      </trkpt>
      <trkpt lat="45.80252" lon="3.68651">
        <ele>1189.6</ele>
      </trkpt>
      <trkpt lat="45.80254" lon="3.68646">
        <ele>1189.2</ele>
      </trkpt>
      <trkpt lat="45.80255" lon="3.6864">
        <ele>1188.7</ele>
      </trkpt>
      <trkpt lat="45.80257" lon="3.68633">
        <ele>1187.9</ele>
      </trkpt>
      <trkpt lat="45.80258" lon="3.68625">
        <ele>1186.9</ele>
      </trkpt>
      <trkpt lat="45.80261" lon="3.68614">
        <ele>1185.6</ele>
      </trkpt>
      <trkpt lat="45.80266" lon="3.68603">
        <ele>1184.7</ele>
      </trkpt>
      <trkpt lat="45.80241" lon="3.68602">
        <ele>1181.8</ele>
      </trkpt>
      <trkpt lat="45.80236" lon="3.68598">
        <ele>1180.8</ele>
      </trkpt>
      <trkpt lat="45.80236" lon="3.68581">
        <ele>1179.2</ele>
      </trkpt>
      <trkpt lat="45.80231" lon="3.68562">
        <ele>1176.1</ele>
      </trkpt>
      <trkpt lat="45.80225" lon="3.68556">
        <ele>1174.5</ele>
      </trkpt>
      <trkpt lat="45.80208" lon="3.68543">
        <ele>1169.8</ele>
      </trkpt>
      <trkpt lat="45.80201" lon="3.68539">
        <ele>1168.1</ele>
      </trkpt>
      <trkpt lat="45.80192" lon="3.68537">
        <ele>1166</ele>
      </trkpt>
      <trkpt lat="45.80161" lon="3.6856">
        <ele>1158.9</ele>
      </trkpt>
      <trkpt lat="45.80121" lon="3.68595">
        <ele>1143.1</ele>
      </trkpt>
      <trkpt lat="45.80093" lon="3.68625">
        <ele>1129.7</ele>
      </trkpt>
      <trkpt lat="45.80055" lon="3.68667">
        <ele>1111.7</ele>
      </trkpt>
      <trkpt lat="45.80034" lon="3.68686">
        <ele>1101.3</ele>
      </trkpt>
      <trkpt lat="45.80039" lon="3.68759">
        <ele>1101.8</ele>
      </trkpt>
      <trkpt lat="45.80043" lon="3.68777">
        <ele>1102.6</ele>
      </trkpt>
      <trkpt lat="45.80017" lon="3.68782">
        <ele>1091.3</ele>
      </trkpt>
      <trkpt lat="45.80004" lon="3.68778">
        <ele>1085.7</ele>
      </trkpt>
      <trkpt lat="45.79985" lon="3.68768">
        <ele>1078.1</ele>
      </trkpt>
      <trkpt lat="45.79963" lon="3.68767">
        <ele>1069.5</ele>
      </trkpt>
      <trkpt lat="45.79947" lon="3.68772">
        <ele>1063.2</ele>
      </trkpt>
      <trkpt lat="45.79926" lon="3.6879">
        <ele>1055.4</ele>
      </trkpt>
      <trkpt lat="45.79914" lon="3.68802">
        <ele>1050.9</ele>
      </trkpt>
      <trkpt lat="45.799" lon="3.6881">
        <ele>1045.2</ele>
      </trkpt>
      <trkpt lat="45.79881" lon="3.68805">
        <ele>1037.9</ele>
      </trkpt>
      <trkpt lat="45.79868" lon="3.68803">
        <ele>1032.7</ele>
      </trkpt>
      <trkpt lat="45.79855" lon="3.68804">
        <ele>1027.8</ele>
      </trkpt>
      <trkpt lat="45.79839" lon="3.68816">
        <ele>1022</ele>
      </trkpt>
      <trkpt lat="45.79822" lon="3.68838">
        <ele>1016.3</ele>
      </trkpt>
      <trkpt lat="45.79807" lon="3.6886">
        <ele>1010.6</ele>
      </trkpt>
      <trkpt lat="45.79782" lon="3.68876">
        <ele>1003.7</ele>
      </trkpt>
      <trkpt lat="45.79777" lon="3.68882">
        <ele>1002.5</ele>
      </trkpt>
      <trkpt lat="45.7976" lon="3.68905">
        <ele>997.2</ele>
      </trkpt>
      <trkpt lat="45.79739" lon="3.68936">
        <ele>989.7</ele>
      </trkpt>
      <trkpt lat="45.7972" lon="3.68936">
        <ele>983.7</ele>
      </trkpt>
      <trkpt lat="45.79709" lon="3.68934">
        <ele>980.6</ele>
      </trkpt>
      <trkpt lat="45.79697" lon="3.68934">
        <ele>977.1</ele>
      </trkpt>
      <trkpt lat="45.79683" lon="3.68934">
        <ele>973.3</ele>
      </trkpt>
      <trkpt lat="45.79667" lon="3.68924">
        <ele>969.1</ele>
      </trkpt>
      <trkpt lat="45.79657" lon="3.68916">
        <ele>966.9</ele>
      </trkpt>
      <trkpt lat="45.79649" lon="3.68908">
        <ele>965</ele>
      </trkpt>
      <trkpt lat="45.79639" lon="3.68895">
        <ele>962.2</ele>
      </trkpt>
      <trkpt lat="45.79633" lon="3.68886">
        <ele>960.4</ele>
      </trkpt>
      <trkpt lat="45.79627" lon="3.68881">
        <ele>958.7</ele>
      </trkpt>
      <trkpt lat="45.79628" lon="3.68879">
        <ele>958.9</ele>
      </trkpt>
      <trkpt lat="45.79628" lon="3.68871">
        <ele>958.6</ele>
      </trkpt>
      <trkpt lat="45.79627" lon="3.6886">
        <ele>958</ele>
      </trkpt>
      <trkpt lat="45.79626" lon="3.68855">
        <ele>957.6</ele>
        <extensions>
          <visugpx:TrkExtension xmlns:visugpx="https://www.visugpx.com/editgpx/">
            <visugpx:node>2</visugpx:node>
            </visugpx:TrkExtension>
        </extensions>
      </trkpt>
      <trkpt lat="45.79625" lon="3.68841">
        <ele>957.1</ele>
      </trkpt>
      <trkpt lat="45.79623" lon="3.68821">
        <ele>955.9</ele>
      </trkpt>
      <trkpt lat="45.79621" lon="3.68797">
        <ele>954.1</ele>
      </trkpt>
      <trkpt lat="45.79621" lon="3.68783">
        <ele>953.4</ele>
      </trkpt>
      <trkpt lat="45.79622" lon="3.6877">
        <ele>953.1</ele>
      </trkpt>
      <trkpt lat="45.79622" lon="3.68762">
        <ele>952.8</ele>
      </trkpt>
      <trkpt lat="45.79623" lon="3.68752">
        <ele>952.6</ele>
      </trkpt>
      <trkpt lat="45.79625" lon="3.68735">
        <ele>952.2</ele>
      </trkpt>
      <trkpt lat="45.79627" lon="3.68724">
        <ele>952.1</ele>
      </trkpt>
      <trkpt lat="45.7963" lon="3.68705">
        <ele>951.9</ele>
      </trkpt>
      <trkpt lat="45.79632" lon="3.68697">
        <ele>952.1</ele>
      </trkpt>
      <trkpt lat="45.79635" lon="3.68688">
        <ele>952.4</ele>
      </trkpt>
      <trkpt lat="45.79638" lon="3.6868">
        <ele>952.7</ele>
      </trkpt>
      <trkpt lat="45.79646" lon="3.68663">
        <ele>953.8</ele>
      </trkpt>
      <trkpt lat="45.7965" lon="3.68653">
        <ele>954.4</ele>
      </trkpt>
      <trkpt lat="45.79652" lon="3.68646">
        <ele>954.6</ele>
      </trkpt>
      <trkpt lat="45.79653" lon="3.68639">
        <ele>954.6</ele>
      </trkpt>
      <trkpt lat="45.79656" lon="3.68629">
        <ele>955.2</ele>
      </trkpt>
      <trkpt lat="45.79656" lon="3.68628">
        <ele>955.2</ele>
      </trkpt>
      <trkpt lat="45.79658" lon="3.68619">
        <ele>955.5</ele>
      </trkpt>
      <trkpt lat="45.79661" lon="3.68604">
        <ele>956</ele>
      </trkpt>
      <trkpt lat="45.79665" lon="3.6859">
        <ele>956.7</ele>
      </trkpt>
      <trkpt lat="45.7967" lon="3.68571">
        <ele>957</ele>
      </trkpt>
      <trkpt lat="45.79674" lon="3.68556">
        <ele>956.9</ele>
      </trkpt>
      <trkpt lat="45.79676" lon="3.68544">
        <ele>956.4</ele>
      </trkpt>
      <trkpt lat="45.7968" lon="3.68526">
        <ele>956.3</ele>
      </trkpt>
      <trkpt lat="45.79682" lon="3.68512">
        <ele>956.4</ele>
      </trkpt>
      <trkpt lat="45.79683" lon="3.68496">
        <ele>956</ele>
      </trkpt>
      <trkpt lat="45.79686" lon="3.68472">
        <ele>955.3</ele>
      </trkpt>
      <trkpt lat="45.79689" lon="3.68438">
        <ele>955</ele>
      </trkpt>
      <trkpt lat="45.79689" lon="3.68422">
        <ele>954.4</ele>
      </trkpt>
      <trkpt lat="45.79691" lon="3.68406">
        <ele>954.2</ele>
      </trkpt>
      <trkpt lat="45.79692" lon="3.68393">
        <ele>953.6</ele>
      </trkpt>
      <trkpt lat="45.79694" lon="3.6835">
        <ele>953.1</ele>
      </trkpt>
      <trkpt lat="45.79695" lon="3.68335">
        <ele>952.3</ele>
      </trkpt>
      <trkpt lat="45.79698" lon="3.6831">
        <ele>951.5</ele>
      </trkpt>
      <trkpt lat="45.79703" lon="3.68286">
        <ele>950.7</ele>
      </trkpt>
      <trkpt lat="45.79707" lon="3.68269">
        <ele>949.9</ele>
      </trkpt>
      <trkpt lat="45.79712" lon="3.68251">
        <ele>949.4</ele>
      </trkpt>
      <trkpt lat="45.7972" lon="3.68224">
        <ele>949.5</ele>
      </trkpt>
      <trkpt lat="45.79728" lon="3.68197">
        <ele>950</ele>
      </trkpt>
      <trkpt lat="45.7974" lon="3.68159">
        <ele>950.7</ele>
      </trkpt>
      <trkpt lat="45.79754" lon="3.6812">
        <ele>953.4</ele>
      </trkpt>
      <trkpt lat="45.79757" lon="3.68108">
        <ele>953.6</ele>
      </trkpt>
      <trkpt lat="45.7976" lon="3.68096">
        <ele>953.6</ele>
      </trkpt>
      <trkpt lat="45.79761" lon="3.68072">
        <ele>952.2</ele>
      </trkpt>
      <trkpt lat="45.79761" lon="3.68038">
        <ele>949.1</ele>
      </trkpt>
      <trkpt lat="45.79764" lon="3.68017">
        <ele>948.1</ele>
      </trkpt>
      <trkpt lat="45.79763" lon="3.68004">
        <ele>946.6</ele>
      </trkpt>
      <trkpt lat="45.79761" lon="3.67993">
        <ele>945</ele>
      </trkpt>
      <trkpt lat="45.79759" lon="3.6798">
        <ele>943.2</ele>
      </trkpt>
      <trkpt lat="45.79757" lon="3.67972">
        <ele>942</ele>
      </trkpt>
      <trkpt lat="45.79757" lon="3.67956">
        <ele>940.7</ele>
      </trkpt>
      <trkpt lat="45.79758" lon="3.67942">
        <ele>939.8</ele>
      </trkpt>
      <trkpt lat="45.79758" lon="3.67928">
        <ele>938.8</ele>
      </trkpt>
      <trkpt lat="45.79759" lon="3.67916">
        <ele>938.2</ele>
      </trkpt>
      <trkpt lat="45.79757" lon="3.67907">
        <ele>937</ele>
      </trkpt>
      <trkpt lat="45.79756" lon="3.679">
        <ele>936.2</ele>
      </trkpt>
      <trkpt lat="45.79756" lon="3.67886">
        <ele>935</ele>
      </trkpt>
      <trkpt lat="45.79757" lon="3.67875">
        <ele>933.9</ele>
      </trkpt>
      <trkpt lat="45.79759" lon="3.67869">
        <ele>933.6</ele>
      </trkpt>
      <trkpt lat="45.79766" lon="3.67846">
        <ele>931.5</ele>
      </trkpt>
      <trkpt lat="45.79766" lon="3.67827">
        <ele>929</ele>
      </trkpt>
      <trkpt lat="45.79763" lon="3.67811">
        <ele>927.1</ele>
      </trkpt>
      <trkpt lat="45.79748" lon="3.67779">
        <ele>923.6</ele>
      </trkpt>
      <trkpt lat="45.79714" lon="3.67728">
        <ele>923.2</ele>
      </trkpt>
      <trkpt lat="45.79692" lon="3.677">
        <ele>925.2</ele>
      </trkpt>
      <trkpt lat="45.79684" lon="3.67685">
        <ele>926.3</ele>
      </trkpt>
      <trkpt lat="45.79678" lon="3.67682">
        <ele>925.6</ele>
      </trkpt>
      <trkpt lat="45.79665" lon="3.67681">
        <ele>923.7</ele>
      </trkpt>
      <trkpt lat="45.79658" lon="3.67679">
        <ele>923.1</ele>
      </trkpt>
      <trkpt lat="45.79645" lon="3.67677">
        <ele>921.9</ele>
      </trkpt>
      <trkpt lat="45.79602" lon="3.67658">
        <ele>919.2</ele>
      </trkpt>
      <trkpt lat="45.796" lon="3.6762">
        <ele>919.5</ele>
      </trkpt>
      <trkpt lat="45.796" lon="3.67598">
        <ele>917.8</ele>
      </trkpt>
      <trkpt lat="45.79605" lon="3.67572">
        <ele>915.3</ele>
        <extensions>
          <visugpx:TrkExtension xmlns:visugpx="https://www.visugpx.com/editgpx/">
            <visugpx:node>3</visugpx:node>
            </visugpx:TrkExtension>
        </extensions>
      </trkpt>
      <trkpt lat="45.79605" lon="3.67567">
        <ele>914.8</ele>
      </trkpt>
      <trkpt lat="45.79614" lon="3.67525">
        <ele>910</ele>
      </trkpt>
      <trkpt lat="45.79617" lon="3.67508">
        <ele>908</ele>
      </trkpt>
      <trkpt lat="45.79622" lon="3.67498">
        <ele>907.2</ele>
      </trkpt>
      <trkpt lat="45.79624" lon="3.67492">
        <ele>906.5</ele>
      </trkpt>
      <trkpt lat="45.79624" lon="3.67486">
        <ele>905.5</ele>
      </trkpt>
      <trkpt lat="45.79622" lon="3.67479">
        <ele>903.9</ele>
      </trkpt>
      <trkpt lat="45.79619" lon="3.67465">
        <ele>900.9</ele>
      </trkpt>
      <trkpt lat="45.79615" lon="3.67445">
        <ele>896.9</ele>
      </trkpt>
      <trkpt lat="45.7961" lon="3.67427">
        <ele>894.6</ele>
      </trkpt>
      <trkpt lat="45.79604" lon="3.67405">
        <ele>892.3</ele>
      </trkpt>
      <trkpt lat="45.79601" lon="3.67386">
        <ele>890.2</ele>
      </trkpt>
      <trkpt lat="45.79597" lon="3.67367">
        <ele>887.2</ele>
      </trkpt>
      <trkpt lat="45.79595" lon="3.67361">
        <ele>886.3</ele>
      </trkpt>
      <trkpt lat="45.79594" lon="3.67353">
        <ele>886</ele>
      </trkpt>
      <trkpt lat="45.79592" lon="3.67345">
        <ele>885.5</ele>
      </trkpt>
      <trkpt lat="45.79595" lon="3.67336">
        <ele>885.7</ele>
      </trkpt>
      <trkpt lat="45.79597" lon="3.67327">
        <ele>886.2</ele>
      </trkpt>
      <trkpt lat="45.79599" lon="3.67316">
        <ele>887</ele>
      </trkpt>
      <trkpt lat="45.79599" lon="3.67304">
        <ele>887.4</ele>
      </trkpt>
      <trkpt lat="45.79599" lon="3.67292">
        <ele>887.1</ele>
      </trkpt>
      <trkpt lat="45.79598" lon="3.67282">
        <ele>886.7</ele>
      </trkpt>
      <trkpt lat="45.79596" lon="3.67269">
        <ele>887.1</ele>
      </trkpt>
      <trkpt lat="45.79593" lon="3.67253">
        <ele>888.1</ele>
      </trkpt>
      <trkpt lat="45.79588" lon="3.67229">
        <ele>888.8</ele>
      </trkpt>
      <trkpt lat="45.79585" lon="3.67212">
        <ele>888.8</ele>
      </trkpt>
      <trkpt lat="45.79582" lon="3.67197">
        <ele>888.7</ele>
      </trkpt>
      <trkpt lat="45.79582" lon="3.67187">
        <ele>888.8</ele>
      </trkpt>
      <trkpt lat="45.79581" lon="3.67176">
        <ele>888.6</ele>
      </trkpt>
      <trkpt lat="45.79581" lon="3.67163">
        <ele>888.5</ele>
      </trkpt>
      <trkpt lat="45.79581" lon="3.67153">
        <ele>888.2</ele>
      </trkpt>
      <trkpt lat="45.79582" lon="3.67143">
        <ele>888</ele>
      </trkpt>
      <trkpt lat="45.79581" lon="3.6714">
        <ele>887.7</ele>
      </trkpt>
      <trkpt lat="45.79581" lon="3.67131">
        <ele>887.4</ele>
      </trkpt>
      <trkpt lat="45.79581" lon="3.67117">
        <ele>886.9</ele>
      </trkpt>
      <trkpt lat="45.79581" lon="3.67086">
        <ele>885.8</ele>
      </trkpt>
      <trkpt lat="45.79581" lon="3.67075">
        <ele>885.1</ele>
      </trkpt>
      <trkpt lat="45.79582" lon="3.67064">
        <ele>884.4</ele>
      </trkpt>
      <trkpt lat="45.79583" lon="3.67057">
        <ele>884.1</ele>
      </trkpt>
      <trkpt lat="45.79585" lon="3.67048">
        <ele>883.6</ele>
      </trkpt>
      <trkpt lat="45.79589" lon="3.67037">
        <ele>883.1</ele>
      </trkpt>
      <trkpt lat="45.79592" lon="3.67025">
        <ele>882.6</ele>
      </trkpt>
      <trkpt lat="45.79593" lon="3.67019">
        <ele>882.5</ele>
      </trkpt>
      <trkpt lat="45.79593" lon="3.67013">
        <ele>882.3</ele>
      </trkpt>
      <trkpt lat="45.79593" lon="3.67006">
        <ele>882.2</ele>
      </trkpt>
      <trkpt lat="45.79592" lon="3.67">
        <ele>881.9</ele>
      </trkpt>
      <trkpt lat="45.79591" lon="3.66994">
        <ele>882</ele>
      </trkpt>
      <trkpt lat="45.79588" lon="3.66984">
        <ele>882</ele>
      </trkpt>
      <trkpt lat="45.79585" lon="3.66974">
        <ele>882.1</ele>
      </trkpt>
      <trkpt lat="45.79583" lon="3.66965">
        <ele>882</ele>
      </trkpt>
      <trkpt lat="45.7958" lon="3.66957">
        <ele>881.9</ele>
      </trkpt>
      <trkpt lat="45.79576" lon="3.66951">
        <ele>881.9</ele>
      </trkpt>
      <trkpt lat="45.79571" lon="3.66943">
        <ele>882</ele>
      </trkpt>
      <trkpt lat="45.79567" lon="3.66937">
        <ele>882.2</ele>
      </trkpt>
      <trkpt lat="45.79558" lon="3.66937">
        <ele>882.2</ele>
      </trkpt>
      <trkpt lat="45.7955" lon="3.66938">
        <ele>882</ele>
      </trkpt>
      <trkpt lat="45.79547" lon="3.66939">
        <ele>881.9</ele>
      </trkpt>
      <trkpt lat="45.79542" lon="3.66941">
        <ele>881.6</ele>
      </trkpt>
      <trkpt lat="45.79534" lon="3.66944">
        <ele>881.2</ele>
      </trkpt>
      <trkpt lat="45.7953" lon="3.66946">
        <ele>881</ele>
      </trkpt>
      <trkpt lat="45.79527" lon="3.66946">
        <ele>880.9</ele>
      </trkpt>
      <trkpt lat="45.79522" lon="3.66945">
        <ele>881</ele>
      </trkpt>
      <trkpt lat="45.79515" lon="3.66942">
        <ele>881</ele>
      </trkpt>
      <trkpt lat="45.79506" lon="3.66935">
        <ele>881.1</ele>
      </trkpt>
      <trkpt lat="45.79502" lon="3.66932">
        <ele>881</ele>
      </trkpt>
      <trkpt lat="45.79491" lon="3.66927">
        <ele>880.4</ele>
      </trkpt>
      <trkpt lat="45.79488" lon="3.66924">
        <ele>880.3</ele>
      </trkpt>
      <trkpt lat="45.79483" lon="3.66917">
        <ele>880.4</ele>
      </trkpt>
      <trkpt lat="45.79479" lon="3.66912">
        <ele>880.4</ele>
      </trkpt>
      <trkpt lat="45.79473" lon="3.66906">
        <ele>880.4</ele>
      </trkpt>
      <trkpt lat="45.79464" lon="3.66897">
        <ele>880.1</ele>
      </trkpt>
      <trkpt lat="45.7946" lon="3.66892">
        <ele>880</ele>
      </trkpt>
      <trkpt lat="45.79457" lon="3.66885">
        <ele>879.8</ele>
      </trkpt>
      <trkpt lat="45.79455" lon="3.66876">
        <ele>879.6</ele>
      </trkpt>
      <trkpt lat="45.79451" lon="3.66851">
        <ele>878.9</ele>
      </trkpt>
      <trkpt lat="45.79451" lon="3.66845">
        <ele>878.7</ele>
      </trkpt>
      <trkpt lat="45.7945" lon="3.66838">
        <ele>878.4</ele>
      </trkpt>
      <trkpt lat="45.79449" lon="3.66809">
        <ele>877.1</ele>
      </trkpt>
      <trkpt lat="45.79447" lon="3.66784">
        <ele>876.2</ele>
      </trkpt>
      <trkpt lat="45.79445" lon="3.6676">
        <ele>875.3</ele>
      </trkpt>
      <trkpt lat="45.79443" lon="3.66744">
        <ele>874.6</ele>
      </trkpt>
      <trkpt lat="45.79444" lon="3.66736">
        <ele>874</ele>
      </trkpt>
      <trkpt lat="45.79445" lon="3.66732">
        <ele>873.7</ele>
      </trkpt>
      <trkpt lat="45.79446" lon="3.66729">
        <ele>873.4</ele>
      </trkpt>
      <trkpt lat="45.79454" lon="3.66704">
        <ele>871.6</ele>
      </trkpt>
      <trkpt lat="45.79463" lon="3.66686">
        <ele>870.7</ele>
      </trkpt>
      <trkpt lat="45.79467" lon="3.66678">
        <ele>870.4</ele>
      </trkpt>
      <trkpt lat="45.79469" lon="3.66671">
        <ele>870.2</ele>
      </trkpt>
      <trkpt lat="45.7947" lon="3.66664">
        <ele>870</ele>
      </trkpt>
      <trkpt lat="45.7947" lon="3.66658">
        <ele>870</ele>
      </trkpt>
      <trkpt lat="45.79468" lon="3.66651">
        <ele>870</ele>
      </trkpt>
      <trkpt lat="45.79466" lon="3.66646">
        <ele>870</ele>
      </trkpt>
      <trkpt lat="45.79461" lon="3.66636">
        <ele>870.1</ele>
      </trkpt>
      <trkpt lat="45.79451" lon="3.66619">
        <ele>870.7</ele>
        <extensions>
          <visugpx:TrkExtension xmlns:visugpx="https://www.visugpx.com/editgpx/">
            <visugpx:node>4</visugpx:node>
            </visugpx:TrkExtension>
        </extensions>
      </trkpt>
      <trkpt lat="45.79449" lon="3.66617">
        <ele>870.8</ele>
      </trkpt>
      <trkpt lat="45.79443" lon="3.66607">
        <ele>871.2</ele>
      </trkpt>
      <trkpt lat="45.79439" lon="3.66603">
        <ele>871.4</ele>
      </trkpt>
      <trkpt lat="45.79433" lon="3.66597">
        <ele>871.7</ele>
      </trkpt>
      <trkpt lat="45.79424" lon="3.66585">
        <ele>872</ele>
      </trkpt>
      <trkpt lat="45.79416" lon="3.66572">
        <ele>872.4</ele>
      </trkpt>
      <trkpt lat="45.79408" lon="3.66554">
        <ele>873.1</ele>
      </trkpt>
      <trkpt lat="45.79403" lon="3.66547">
        <ele>873.5</ele>
      </trkpt>
      <trkpt lat="45.79398" lon="3.6654">
        <ele>873.9</ele>
      </trkpt>
      <trkpt lat="45.79388" lon="3.66528">
        <ele>875</ele>
      </trkpt>
      <trkpt lat="45.7938" lon="3.66519">
        <ele>875.3</ele>
      </trkpt>
      <trkpt lat="45.79359" lon="3.66495">
        <ele>876.1</ele>
      </trkpt>
      <trkpt lat="45.79343" lon="3.66476">
        <ele>876.8</ele>
      </trkpt>
      <trkpt lat="45.79325" lon="3.66458">
        <ele>877.5</ele>
      </trkpt>
      <trkpt lat="45.79307" lon="3.66442">
        <ele>878.1</ele>
      </trkpt>
      <trkpt lat="45.79301" lon="3.66436">
        <ele>878.4</ele>
      </trkpt>
      <trkpt lat="45.79292" lon="3.66427">
        <ele>878.8</ele>
      </trkpt>
      <trkpt lat="45.79285" lon="3.66421">
        <ele>879</ele>
      </trkpt>
      <trkpt lat="45.79279" lon="3.66416">
        <ele>879</ele>
      </trkpt>
      <trkpt lat="45.79273" lon="3.66413">
        <ele>879.6</ele>
      </trkpt>
      <trkpt lat="45.79266" lon="3.66411">
        <ele>880.2</ele>
      </trkpt>
      <trkpt lat="45.79254" lon="3.66411">
        <ele>880.9</ele>
      </trkpt>
      <trkpt lat="45.79245" lon="3.6641">
        <ele>881.9</ele>
      </trkpt>
      <trkpt lat="45.79241" lon="3.66408">
        <ele>882.5</ele>
      </trkpt>
      <trkpt lat="45.79237" lon="3.66406">
        <ele>883.1</ele>
      </trkpt>
      <trkpt lat="45.79234" lon="3.66402">
        <ele>883.5</ele>
      </trkpt>
      <trkpt lat="45.79236" lon="3.66397">
        <ele>883.4</ele>
      </trkpt>
      <trkpt lat="45.79239" lon="3.66388">
        <ele>883.2</ele>
      </trkpt>
      <trkpt lat="45.79243" lon="3.66378">
        <ele>883.3</ele>
      </trkpt>
      <trkpt lat="45.79249" lon="3.66364">
        <ele>883.8</ele>
      </trkpt>
      <trkpt lat="45.79256" lon="3.66351">
        <ele>883.8</ele>
      </trkpt>
      <trkpt lat="45.79263" lon="3.6633">
        <ele>884.2</ele>
      </trkpt>
      <trkpt lat="45.79271" lon="3.66311">
        <ele>884.7</ele>
      </trkpt>
      <trkpt lat="45.79279" lon="3.66293">
        <ele>885</ele>
      </trkpt>
      <trkpt lat="45.79286" lon="3.66278">
        <ele>885</ele>
      </trkpt>
      <trkpt lat="45.79293" lon="3.66263">
        <ele>885.3</ele>
      </trkpt>
      <trkpt lat="45.79301" lon="3.6625">
        <ele>885.8</ele>
      </trkpt>
      <trkpt lat="45.79308" lon="3.66238">
        <ele>886.5</ele>
      </trkpt>
      <trkpt lat="45.79313" lon="3.66227">
        <ele>887</ele>
      </trkpt>
      <trkpt lat="45.79315" lon="3.66219">
        <ele>887.5</ele>
      </trkpt>
      <trkpt lat="45.79319" lon="3.66203">
        <ele>888.2</ele>
      </trkpt>
      <trkpt lat="45.79326" lon="3.66177">
        <ele>890</ele>
      </trkpt>
      <trkpt lat="45.79329" lon="3.66161">
        <ele>891.3</ele>
      </trkpt>
      <trkpt lat="45.79332" lon="3.66144">
        <ele>892.6</ele>
      </trkpt>
      <trkpt lat="45.79334" lon="3.66127">
        <ele>894.3</ele>
      </trkpt>
      <trkpt lat="45.79334" lon="3.66107">
        <ele>896.5</ele>
      </trkpt>
      <trkpt lat="45.79332" lon="3.66086">
        <ele>898.6</ele>
      </trkpt>
      <trkpt lat="45.7933" lon="3.66065">
        <ele>901.4</ele>
      </trkpt>
      <trkpt lat="45.79326" lon="3.66041">
        <ele>904.2</ele>
      </trkpt>
      <trkpt lat="45.79321" lon="3.66016">
        <ele>907.3</ele>
      </trkpt>
      <trkpt lat="45.79317" lon="3.65995">
        <ele>909.8</ele>
      </trkpt>
      <trkpt lat="45.79315" lon="3.65985">
        <ele>910.6</ele>
      </trkpt>
      <trkpt lat="45.79309" lon="3.6597">
        <ele>911.6</ele>
      </trkpt>
      <trkpt lat="45.79304" lon="3.65962">
        <ele>912.4</ele>
      </trkpt>
      <trkpt lat="45.79292" lon="3.65941">
        <ele>914.3</ele>
      </trkpt>
      <trkpt lat="45.79287" lon="3.65928">
        <ele>914.8</ele>
      </trkpt>
      <trkpt lat="45.79283" lon="3.65913">
        <ele>915.7</ele>
      </trkpt>
      <trkpt lat="45.79282" lon="3.65902">
        <ele>916.4</ele>
      </trkpt>
      <trkpt lat="45.79281" lon="3.65881">
        <ele>917.9</ele>
      </trkpt>
      <trkpt lat="45.79284" lon="3.65864">
        <ele>919.7</ele>
      </trkpt>
      <trkpt lat="45.79288" lon="3.65841">
        <ele>921.2</ele>
      </trkpt>
      <trkpt lat="45.79291" lon="3.65834">
        <ele>921.9</ele>
      </trkpt>
      <trkpt lat="45.79297" lon="3.6582">
        <ele>922.5</ele>
      </trkpt>
      <trkpt lat="45.79302" lon="3.65813">
        <ele>923.3</ele>
      </trkpt>
      <trkpt lat="45.7931" lon="3.65801">
        <ele>924.3</ele>
      </trkpt>
      <trkpt lat="45.79317" lon="3.65791">
        <ele>924.6</ele>
      </trkpt>
      <trkpt lat="45.79325" lon="3.65784">
        <ele>925.2</ele>
      </trkpt>
      <trkpt lat="45.79334" lon="3.6578">
        <ele>926.3</ele>
      </trkpt>
      <trkpt lat="45.79345" lon="3.65777">
        <ele>928</ele>
      </trkpt>
      <trkpt lat="45.79358" lon="3.65775">
        <ele>930.2</ele>
      </trkpt>
      <trkpt lat="45.79373" lon="3.65776">
        <ele>933.1</ele>
      </trkpt>
      <trkpt lat="45.79391" lon="3.65779">
        <ele>936.3</ele>
      </trkpt>
      <trkpt lat="45.79407" lon="3.65784">
        <ele>938.9</ele>
      </trkpt>
      <trkpt lat="45.79412" lon="3.65784">
        <ele>939.7</ele>
      </trkpt>
      <trkpt lat="45.79416" lon="3.65783">
        <ele>940.5</ele>
      </trkpt>
      <trkpt lat="45.7942" lon="3.6578">
        <ele>941</ele>
      </trkpt>
      <trkpt lat="45.79426" lon="3.65773">
        <ele>941.5</ele>
      </trkpt>
      <trkpt lat="45.79431" lon="3.65766">
        <ele>942</ele>
      </trkpt>
      <trkpt lat="45.79441" lon="3.65758">
        <ele>943.1</ele>
      </trkpt>
      <trkpt lat="45.79451" lon="3.65748">
        <ele>944.8</ele>
      </trkpt>
      <trkpt lat="45.79463" lon="3.65736">
        <ele>946.8</ele>
      </trkpt>
      <trkpt lat="45.79472" lon="3.65726">
        <ele>948.7</ele>
      </trkpt>
      <trkpt lat="45.79484" lon="3.65719">
        <ele>950.7</ele>
      </trkpt>
      <trkpt lat="45.795" lon="3.65709">
        <ele>953.9</ele>
      </trkpt>
      <trkpt lat="45.79509" lon="3.65701">
        <ele>955.6</ele>
      </trkpt>
      <trkpt lat="45.79518" lon="3.65692">
        <ele>957.7</ele>
      </trkpt>
      <trkpt lat="45.79522" lon="3.65685">
        <ele>959.1</ele>
      </trkpt>
      <trkpt lat="45.79523" lon="3.65678">
        <ele>960.4</ele>
      </trkpt>
      <trkpt lat="45.79523" lon="3.65671">
        <ele>961.6</ele>
      </trkpt>
      <trkpt lat="45.79521" lon="3.65659">
        <ele>963.3</ele>
      </trkpt>
      <trkpt lat="45.79517" lon="3.65644">
        <ele>965.2</ele>
      </trkpt>
      <trkpt lat="45.79517" lon="3.6564">
        <ele>965.9</ele>
      </trkpt>
      <trkpt lat="45.79514" lon="3.65619">
        <ele>968</ele>
      </trkpt>
      <trkpt lat="45.7951" lon="3.65586">
        <ele>970.6</ele>
      </trkpt>
      <trkpt lat="45.79508" lon="3.65567">
        <ele>971.9</ele>
      </trkpt>
      <trkpt lat="45.79508" lon="3.65556">
        <ele>973</ele>
      </trkpt>
      <trkpt lat="45.79509" lon="3.65542">
        <ele>973.6</ele>
      </trkpt>
      <trkpt lat="45.79513" lon="3.65523">
        <ele>975.2</ele>
      </trkpt>
      <trkpt lat="45.79519" lon="3.65494">
        <ele>977.3</ele>
      </trkpt>
      <trkpt lat="45.79526" lon="3.65465">
        <ele>979.5</ele>
      </trkpt>
      <trkpt lat="45.79532" lon="3.65433">
        <ele>983.1</ele>
      </trkpt>
      <trkpt lat="45.79538" lon="3.65408">
        <ele>986.5</ele>
      </trkpt>
      <trkpt lat="45.79546" lon="3.65378">
        <ele>990.1</ele>
      </trkpt>
      <trkpt lat="45.79548" lon="3.6536">
        <ele>991.3</ele>
      </trkpt>
      <trkpt lat="45.79551" lon="3.65343">
        <ele>991.6</ele>
      </trkpt>
      <trkpt lat="45.79554" lon="3.65333">
        <ele>991.8</ele>
      </trkpt>
      <trkpt lat="45.79558" lon="3.65321">
        <ele>992.8</ele>
      </trkpt>
      <trkpt lat="45.79564" lon="3.65306">
        <ele>994.2</ele>
      </trkpt>
      <trkpt lat="45.79569" lon="3.65294">
        <ele>994.7</ele>
      </trkpt>
      <trkpt lat="45.79572" lon="3.6529">
        <ele>995</ele>
      </trkpt>
      <trkpt lat="45.79571" lon="3.65279">
        <ele>994.7</ele>
      </trkpt>
      <trkpt lat="45.79572" lon="3.65266">
        <ele>994.5</ele>
      </trkpt>
      <trkpt lat="45.79573" lon="3.65256">
        <ele>994.4</ele>
      </trkpt>
      <trkpt lat="45.79577" lon="3.65237">
        <ele>993.8</ele>
      </trkpt>
      <trkpt lat="45.79582" lon="3.65216">
        <ele>992.6</ele>
      </trkpt>
      <trkpt lat="45.79585" lon="3.652">
        <ele>991.5</ele>
      </trkpt>
      <trkpt lat="45.79588" lon="3.65184">
        <ele>990.9</ele>
      </trkpt>
      <trkpt lat="45.7959" lon="3.6517">
        <ele>990.4</ele>
      </trkpt>
      <trkpt lat="45.79593" lon="3.6515">
        <ele>989.3</ele>
      </trkpt>
      <trkpt lat="45.79595" lon="3.65126">
        <ele>987.8</ele>
      </trkpt>
      <trkpt lat="45.79597" lon="3.65107">
        <ele>986.7</ele>
      </trkpt>
      <trkpt lat="45.79599" lon="3.6509">
        <ele>985.5</ele>
      </trkpt>
      <trkpt lat="45.79599" lon="3.65087">
        <ele>985.3</ele>
      </trkpt>
      <trkpt lat="45.79601" lon="3.6507">
        <ele>983.7</ele>
      </trkpt>
      <trkpt lat="45.79602" lon="3.65062">
        <ele>982.9</ele>
      </trkpt>
      <trkpt lat="45.79603" lon="3.65053">
        <ele>982.1</ele>
      </trkpt>
      <trkpt lat="45.79609" lon="3.65008">
        <ele>978.7</ele>
      </trkpt>
      <trkpt lat="45.79613" lon="3.64979">
        <ele>976.4</ele>
      </trkpt>
      <trkpt lat="45.79616" lon="3.64957">
        <ele>974.6</ele>
      </trkpt>
      <trkpt lat="45.79618" lon="3.64934">
        <ele>973</ele>
      </trkpt>
      <trkpt lat="45.79618" lon="3.64917">
        <ele>971.8</ele>
      </trkpt>
      <trkpt lat="45.79619" lon="3.64893">
        <ele>971.5</ele>
      </trkpt>
      <trkpt lat="45.79619" lon="3.64849">
        <ele>971.1</ele>
      </trkpt>
      <trkpt lat="45.79619" lon="3.64823">
        <ele>970.7</ele>
      </trkpt>
      <trkpt lat="45.79619" lon="3.64804">
        <ele>969.8</ele>
      </trkpt>
      <trkpt lat="45.79616" lon="3.6478">
        <ele>969.4</ele>
      </trkpt>
      <trkpt lat="45.79614" lon="3.64758">
        <ele>969.6</ele>
      </trkpt>
      <trkpt lat="45.79611" lon="3.64736">
        <ele>969.5</ele>
      </trkpt>
      <trkpt lat="45.7961" lon="3.64723">
        <ele>969.1</ele>
      </trkpt>
      <trkpt lat="45.79609" lon="3.64705">
        <ele>969.1</ele>
      </trkpt>
      <trkpt lat="45.79607" lon="3.64683">
        <ele>969.3</ele>
      </trkpt>
      <trkpt lat="45.79606" lon="3.64666">
        <ele>969.6</ele>
      </trkpt>
      <trkpt lat="45.79606" lon="3.64649">
        <ele>969.5</ele>
      </trkpt>
      <trkpt lat="45.79606" lon="3.64635">
        <ele>969.7</ele>
      </trkpt>
      <trkpt lat="45.79606" lon="3.64619">
        <ele>970.6</ele>
      </trkpt>
      <trkpt lat="45.79608" lon="3.646">
        <ele>971</ele>
      </trkpt>
      <trkpt lat="45.79609" lon="3.64584">
        <ele>970.6</ele>
      </trkpt>
      <trkpt lat="45.7961" lon="3.6458">
        <ele>970.7</ele>
        <extensions>
          <visugpx:TrkExtension xmlns:visugpx="https://www.visugpx.com/editgpx/">
            <visugpx:node>5</visugpx:node>
            </visugpx:TrkExtension>
        </extensions>
      </trkpt>
      <trkpt lat="45.79612" lon="3.6457">
        <ele>970.6</ele>
      </trkpt>
      <trkpt lat="45.79618" lon="3.64545">
        <ele>970.8</ele>
      </trkpt>
      <trkpt lat="45.79623" lon="3.64526">
        <ele>971.5</ele>
      </trkpt>
      <trkpt lat="45.79629" lon="3.64512">
        <ele>972</ele>
      </trkpt>
      <trkpt lat="45.79635" lon="3.64504">
        <ele>972.1</ele>
      </trkpt>
      <trkpt lat="45.7965" lon="3.64486">
        <ele>972.6</ele>
      </trkpt>
      <trkpt lat="45.79665" lon="3.64467">
        <ele>973.4</ele>
      </trkpt>
      <trkpt lat="45.79676" lon="3.64451">
        <ele>973.5</ele>
      </trkpt>
      <trkpt lat="45.79678" lon="3.64447">
        <ele>973.6</ele>
      </trkpt>
      <trkpt lat="45.79681" lon="3.64441">
        <ele>973.6</ele>
      </trkpt>
      <trkpt lat="45.79686" lon="3.64434">
        <ele>973.3</ele>
      </trkpt>
      <trkpt lat="45.79693" lon="3.64429">
        <ele>972.7</ele>
      </trkpt>
      <trkpt lat="45.79701" lon="3.64422">
        <ele>972.3</ele>
      </trkpt>
      <trkpt lat="45.79711" lon="3.64415">
        <ele>971.9</ele>
      </trkpt>
      <trkpt lat="45.79716" lon="3.64409">
        <ele>971.8</ele>
      </trkpt>
      <trkpt lat="45.79723" lon="3.64402">
        <ele>970.8</ele>
      </trkpt>
      <trkpt lat="45.79727" lon="3.64394">
        <ele>969.9</ele>
      </trkpt>
      <trkpt lat="45.79729" lon="3.64387">
        <ele>969.6</ele>
      </trkpt>
      <trkpt lat="45.79731" lon="3.64375">
        <ele>969.8</ele>
      </trkpt>
      <trkpt lat="45.79734" lon="3.64358">
        <ele>969.6</ele>
      </trkpt>
      <trkpt lat="45.79741" lon="3.64323">
        <ele>968</ele>
      </trkpt>
      <trkpt lat="45.79747" lon="3.64296">
        <ele>966.9</ele>
      </trkpt>
      <trkpt lat="45.79752" lon="3.64272">
        <ele>965.8</ele>
      </trkpt>
      <trkpt lat="45.79755" lon="3.64261">
        <ele>965.6</ele>
      </trkpt>
      <trkpt lat="45.79764" lon="3.64207">
        <ele>965.3</ele>
      </trkpt>
      <trkpt lat="45.7977" lon="3.64181">
        <ele>966.4</ele>
      </trkpt>
      <trkpt lat="45.79775" lon="3.64136">
        <ele>967.9</ele>
      </trkpt>
      <trkpt lat="45.79778" lon="3.64092">
        <ele>970.7</ele>
      </trkpt>
      <trkpt lat="45.79772" lon="3.64095">
        <ele>972</ele>
      </trkpt>
      <trkpt lat="45.79766" lon="3.64097">
        <ele>973.4</ele>
      </trkpt>
      <trkpt lat="45.7976" lon="3.64103">
        <ele>974.3</ele>
      </trkpt>
      <trkpt lat="45.79756" lon="3.64107">
        <ele>974.9</ele>
      </trkpt>
      <trkpt lat="45.79753" lon="3.64113">
        <ele>975.1</ele>
      </trkpt>
      <trkpt lat="45.79745" lon="3.64126">
        <ele>976.7</ele>
      </trkpt>
      <trkpt lat="45.79737" lon="3.64141">
        <ele>977.7</ele>
      </trkpt>
      <trkpt lat="45.79712" lon="3.64178">
        <ele>981.5</ele>
      </trkpt>
      <trkpt lat="45.7969" lon="3.64209">
        <ele>985</ele>
      </trkpt>
      <trkpt lat="45.79681" lon="3.6422">
        <ele>986.5</ele>
      </trkpt>
      <trkpt lat="45.79664" lon="3.64234">
        <ele>990</ele>
      </trkpt>
      <trkpt lat="45.79647" lon="3.64244">
        <ele>992</ele>
      </trkpt>
      <trkpt lat="45.79628" lon="3.64235">
        <ele>994.5</ele>
      </trkpt>
      <trkpt lat="45.79622" lon="3.6423">
        <ele>995.4</ele>
      </trkpt>
      <trkpt lat="45.79616" lon="3.64218">
        <ele>996.8</ele>
      </trkpt>
      <trkpt lat="45.79611" lon="3.64205">
        <ele>998.2</ele>
      </trkpt>
      <trkpt lat="45.79607" lon="3.64189">
        <ele>999.6</ele>
      </trkpt>
      <trkpt lat="45.79603" lon="3.64166">
        <ele>1001.6</ele>
      </trkpt>
      <trkpt lat="45.79599" lon="3.64143">
        <ele>1003.6</ele>
      </trkpt>
      <trkpt lat="45.79597" lon="3.64129">
        <ele>1004.9</ele>
      </trkpt>
      <trkpt lat="45.79598" lon="3.64108">
        <ele>1006.8</ele>
      </trkpt>
      <trkpt lat="45.79599" lon="3.64087">
        <ele>1009</ele>
      </trkpt>
      <trkpt lat="45.79599" lon="3.64065">
        <ele>1012.8</ele>
      </trkpt>
      <trkpt lat="45.79596" lon="3.64052">
        <ele>1015.1</ele>
      </trkpt>
      <trkpt lat="45.79592" lon="3.64043">
        <ele>1016.7</ele>
      </trkpt>
      <trkpt lat="45.79586" lon="3.64032">
        <ele>1019</ele>
      </trkpt>
      <trkpt lat="45.79572" lon="3.64008">
        <ele>1023.4</ele>
      </trkpt>
      <trkpt lat="45.79561" lon="3.63992">
        <ele>1026.5</ele>
      </trkpt>
      <trkpt lat="45.79556" lon="3.63977">
        <ele>1029.2</ele>
      </trkpt>
      <trkpt lat="45.79552" lon="3.63961">
        <ele>1032.2</ele>
      </trkpt>
      <trkpt lat="45.79547" lon="3.63948">
        <ele>1034.6</ele>
      </trkpt>
      <trkpt lat="45.7954" lon="3.63931">
        <ele>1037.1</ele>
      </trkpt>
      <trkpt lat="45.79526" lon="3.63902">
        <ele>1041.4</ele>
      </trkpt>
      <trkpt lat="45.79497" lon="3.63857">
        <ele>1047.2</ele>
      </trkpt>
      <trkpt lat="45.7949" lon="3.63844">
        <ele>1048.3</ele>
        <extensions>
          <visugpx:TrkExtension xmlns:visugpx="https://www.visugpx.com/editgpx/">
            <visugpx:node>6</visugpx:node>
            </visugpx:TrkExtension>
        </extensions>
      </trkpt>
      <trkpt lat="45.79479" lon="3.63824">
        <ele>1049.8</ele>
      </trkpt>
      <trkpt lat="45.79467" lon="3.63805">
        <ele>1051.3</ele>
      </trkpt>
      <trkpt lat="45.79462" lon="3.63794">
        <ele>1052</ele>
      </trkpt>
      <trkpt lat="45.79486" lon="3.63759">
        <ele>1059.7</ele>
      </trkpt>
      <trkpt lat="45.795" lon="3.6375">
        <ele>1062</ele>
      </trkpt>
      <trkpt lat="45.79507" lon="3.63742">
        <ele>1062.2</ele>
      </trkpt>
      <trkpt lat="45.79512" lon="3.63742">
        <ele>1063</ele>
      </trkpt>
      <trkpt lat="45.79517" lon="3.63743">
        <ele>1063.8</ele>
      </trkpt>
      <trkpt lat="45.79525" lon="3.63748">
        <ele>1065.4</ele>
      </trkpt>
      <trkpt lat="45.79531" lon="3.63751">
        <ele>1066.7</ele>
      </trkpt>
      <trkpt lat="45.79536" lon="3.63751">
        <ele>1067.9</ele>
      </trkpt>
      <trkpt lat="45.79547" lon="3.63749">
        <ele>1070.7</ele>
      </trkpt>
      <trkpt lat="45.79555" lon="3.63746">
        <ele>1072</ele>
      </trkpt>
      <trkpt lat="45.79561" lon="3.63741">
        <ele>1069.5</ele>
      </trkpt>
      <trkpt lat="45.79563" lon="3.6374">
        <ele>1068.8</ele>
        <extensions>
          <visugpx:TrkExtension xmlns:visugpx="https://www.visugpx.com/editgpx/">
            <visugpx:node>7</visugpx:node>
            </visugpx:TrkExtension>
        </extensions>
      </trkpt>
      <trkpt lat="45.79561" lon="3.63741">
        <ele>1069.5</ele>
      </trkpt>
      <trkpt lat="45.79555" lon="3.63746">
        <ele>1072</ele>
      </trkpt>
      <trkpt lat="45.79547" lon="3.63749">
        <ele>1070.7</ele>
      </trkpt>
      <trkpt lat="45.79536" lon="3.63751">
        <ele>1067.9</ele>
      </trkpt>
      <trkpt lat="45.79531" lon="3.63751">
        <ele>1066.7</ele>
      </trkpt>
      <trkpt lat="45.79525" lon="3.63748">
        <ele>1065.4</ele>
      </trkpt>
      <trkpt lat="45.79517" lon="3.63743">
        <ele>1063.8</ele>
      </trkpt>
      <trkpt lat="45.79512" lon="3.63742">
        <ele>1063</ele>
      </trkpt>
      <trkpt lat="45.79507" lon="3.63742">
        <ele>1062.2</ele>
      </trkpt>
      <trkpt lat="45.795" lon="3.6375">
        <ele>1062</ele>
      </trkpt>
      <trkpt lat="45.79486" lon="3.63759">
        <ele>1059.7</ele>
      </trkpt>
      <trkpt lat="45.79462" lon="3.63794">
        <ele>1052</ele>
      </trkpt>
      <trkpt lat="45.79467" lon="3.63805">
        <ele>1051.3</ele>
      </trkpt>
      <trkpt lat="45.79479" lon="3.63824">
        <ele>1049.8</ele>
      </trkpt>
      <trkpt lat="45.79497" lon="3.63857">
        <ele>1047.2</ele>
      </trkpt>
      <trkpt lat="45.79526" lon="3.63902">
        <ele>1041.4</ele>
      </trkpt>
      <trkpt lat="45.7954" lon="3.63931">
        <ele>1037.1</ele>
      </trkpt>
      <trkpt lat="45.79547" lon="3.63948">
        <ele>1034.6</ele>
      </trkpt>
      <trkpt lat="45.79552" lon="3.63961">
        <ele>1032.2</ele>
      </trkpt>
      <trkpt lat="45.79556" lon="3.63977">
        <ele>1029.2</ele>
      </trkpt>
      <trkpt lat="45.79561" lon="3.63992">
        <ele>1026.5</ele>
      </trkpt>
      <trkpt lat="45.79572" lon="3.64008">
        <ele>1023.4</ele>
      </trkpt>
      <trkpt lat="45.79586" lon="3.64032">
        <ele>1019</ele>
      </trkpt>
      <trkpt lat="45.79592" lon="3.64043">
        <ele>1016.7</ele>
      </trkpt>
      <trkpt lat="45.79596" lon="3.64052">
        <ele>1015.1</ele>
      </trkpt>
      <trkpt lat="45.79599" lon="3.64065">
        <ele>1012.8</ele>
      </trkpt>
      <trkpt lat="45.79599" lon="3.64087">
        <ele>1009</ele>
      </trkpt>
      <trkpt lat="45.79598" lon="3.64108">
        <ele>1006.8</ele>
      </trkpt>
      <trkpt lat="45.79597" lon="3.64129">
        <ele>1004.9</ele>
      </trkpt>
      <trkpt lat="45.79599" lon="3.64143">
        <ele>1003.6</ele>
      </trkpt>
      <trkpt lat="45.79603" lon="3.64166">
        <ele>1001.6</ele>
      </trkpt>
      <trkpt lat="45.79607" lon="3.64189">
        <ele>999.6</ele>
      </trkpt>
      <trkpt lat="45.79611" lon="3.64205">
        <ele>998.2</ele>
      </trkpt>
      <trkpt lat="45.79616" lon="3.64218">
        <ele>996.8</ele>
      </trkpt>
      <trkpt lat="45.79622" lon="3.6423">
        <ele>995.4</ele>
      </trkpt>
      <trkpt lat="45.79628" lon="3.64235">
        <ele>994.5</ele>
      </trkpt>
      <trkpt lat="45.79647" lon="3.64244">
        <ele>992</ele>
      </trkpt>
      <trkpt lat="45.79664" lon="3.64234">
        <ele>990</ele>
      </trkpt>
      <trkpt lat="45.79681" lon="3.6422">
        <ele>986.5</ele>
      </trkpt>
      <trkpt lat="45.7969" lon="3.64209">
        <ele>985</ele>
      </trkpt>
      <trkpt lat="45.79712" lon="3.64178">
        <ele>981.5</ele>
      </trkpt>
      <trkpt lat="45.79737" lon="3.64141">
        <ele>977.7</ele>
      </trkpt>
      <trkpt lat="45.79745" lon="3.64126">
        <ele>976.7</ele>
      </trkpt>
      <trkpt lat="45.79753" lon="3.64113">
        <ele>975.1</ele>
      </trkpt>
      <trkpt lat="45.79756" lon="3.64107">
        <ele>974.9</ele>
      </trkpt>
      <trkpt lat="45.7976" lon="3.64103">
        <ele>974.3</ele>
      </trkpt>
      <trkpt lat="45.79766" lon="3.64097">
        <ele>973.4</ele>
      </trkpt>
      <trkpt lat="45.79772" lon="3.64095">
        <ele>972</ele>
      </trkpt>
      <trkpt lat="45.79778" lon="3.64092">
        <ele>970.7</ele>
      </trkpt>
      <trkpt lat="45.79785" lon="3.64086">
        <ele>969.8</ele>
      </trkpt>
      <trkpt lat="45.79788" lon="3.64083">
        <ele>969.5</ele>
      </trkpt>
      <trkpt lat="45.79791" lon="3.6408">
        <ele>969.1</ele>
      </trkpt>
      <trkpt lat="45.79795" lon="3.64072">
        <ele>969</ele>
      </trkpt>
      <trkpt lat="45.79799" lon="3.64061">
        <ele>969.3</ele>
      </trkpt>
      <trkpt lat="45.79801" lon="3.64053">
        <ele>969.4</ele>
      </trkpt>
      <trkpt lat="45.79803" lon="3.64045">
        <ele>969.2</ele>
      </trkpt>
      <trkpt lat="45.79808" lon="3.64035">
        <ele>968.2</ele>
      </trkpt>
      <trkpt lat="45.79821" lon="3.64016">
        <ele>965.9</ele>
      </trkpt>
      <trkpt lat="45.79833" lon="3.64001">
        <ele>963.1</ele>
      </trkpt>
      <trkpt lat="45.79852" lon="3.63972">
        <ele>959.3</ele>
      </trkpt>
      <trkpt lat="45.79862" lon="3.63957">
        <ele>956.8</ele>
      </trkpt>
      <trkpt lat="45.79871" lon="3.63947">
        <ele>955.2</ele>
      </trkpt>
      <trkpt lat="45.79889" lon="3.63932">
        <ele>951.5</ele>
      </trkpt>
      <trkpt lat="45.79902" lon="3.63921">
        <ele>947.9</ele>
      </trkpt>
      <trkpt lat="45.79914" lon="3.63913">
        <ele>944.5</ele>
      </trkpt>
      <trkpt lat="45.79921" lon="3.63906">
        <ele>943.1</ele>
      </trkpt>
      <trkpt lat="45.79931" lon="3.63898">
        <ele>941.6</ele>
      </trkpt>
      <trkpt lat="45.79941" lon="3.63893">
        <ele>940.4</ele>
      </trkpt>
      <trkpt lat="45.7994" lon="3.63883">
        <ele>939.9</ele>
      </trkpt>
      <trkpt lat="45.79939" lon="3.63875">
        <ele>939.2</ele>
      </trkpt>
      <trkpt lat="45.79939" lon="3.63866">
        <ele>938.3</ele>
      </trkpt>
      <trkpt lat="45.7994" lon="3.6385">
        <ele>936.8</ele>
      </trkpt>
      <trkpt lat="45.79944" lon="3.63824">
        <ele>934.1</ele>
      </trkpt>
      <trkpt lat="45.79946" lon="3.63795">
        <ele>930.5</ele>
      </trkpt>
      <trkpt lat="45.79946" lon="3.63734">
        <ele>922.9</ele>
      </trkpt>
      <trkpt lat="45.79946" lon="3.6369">
        <ele>917</ele>
      </trkpt>
      <trkpt lat="45.79946" lon="3.63683">
        <ele>916</ele>
      </trkpt>
      <trkpt lat="45.79943" lon="3.63658">
        <ele>913.1</ele>
      </trkpt>
      <trkpt lat="45.79937" lon="3.63616">
        <ele>907.7</ele>
      </trkpt>
      <trkpt lat="45.7993" lon="3.63559">
        <ele>900.2</ele>
      </trkpt>
      <trkpt lat="45.79924" lon="3.63515">
        <ele>896.4</ele>
      </trkpt>
      <trkpt lat="45.79921" lon="3.63482">
        <ele>893.3</ele>
      </trkpt>
      <trkpt lat="45.79921" lon="3.63455">
        <ele>891.2</ele>
      </trkpt>
      <trkpt lat="45.79922" lon="3.63417">
        <ele>888.5</ele>
      </trkpt>
      <trkpt lat="45.79926" lon="3.63379">
        <ele>884</ele>
      </trkpt>
      <trkpt lat="45.79933" lon="3.63314">
        <ele>875.2</ele>
      </trkpt>
      <trkpt lat="45.79942" lon="3.63259">
        <ele>865.9</ele>
      </trkpt>
      <trkpt lat="45.79951" lon="3.632">
        <ele>857.2</ele>
      </trkpt>
      <trkpt lat="45.79956" lon="3.63176">
        <ele>854.3</ele>
      </trkpt>
      <trkpt lat="45.79959" lon="3.63168">
        <ele>852.9</ele>
      </trkpt>
      <trkpt lat="45.79962" lon="3.63163">
        <ele>851.8</ele>
      </trkpt>
      <trkpt lat="45.79966" lon="3.63158">
        <ele>850.3</ele>
      </trkpt>
      <trkpt lat="45.79974" lon="3.63155">
        <ele>847.7</ele>
      </trkpt>
      <trkpt lat="45.79982" lon="3.63155">
        <ele>845.7</ele>
      </trkpt>
      <trkpt lat="45.79992" lon="3.63161">
        <ele>843.6</ele>
      </trkpt>
      <trkpt lat="45.8" lon="3.63168">
        <ele>842.1</ele>
      </trkpt>
      <trkpt lat="45.80013" lon="3.63183">
        <ele>840.2</ele>
      </trkpt>
      <trkpt lat="45.80024" lon="3.63193">
        <ele>838</ele>
      </trkpt>
      <trkpt lat="45.80031" lon="3.63198">
        <ele>836.3</ele>
      </trkpt>
      <trkpt lat="45.80048" lon="3.63206">
        <ele>832.3</ele>
      </trkpt>
      <trkpt lat="45.80062" lon="3.6321">
        <ele>829.2</ele>
      </trkpt>
      <trkpt lat="45.80072" lon="3.63188">
        <ele>824.8</ele>
      </trkpt>
      <trkpt lat="45.80089" lon="3.63147">
        <ele>817.2</ele>
      </trkpt>
      <trkpt lat="45.80093" lon="3.63117">
        <ele>813.5</ele>
      </trkpt>
      <trkpt lat="45.80096" lon="3.63082">
        <ele>810.1</ele>
      </trkpt>
      <trkpt lat="45.80095" lon="3.63058">
        <ele>808.3</ele>
      </trkpt>
      <trkpt lat="45.80093" lon="3.63024">
        <ele>804.5</ele>
      </trkpt>
      <trkpt lat="45.80088" lon="3.63001">
        <ele>802.9</ele>
      </trkpt>
      <trkpt lat="45.80083" lon="3.62978">
        <ele>801.7</ele>
      </trkpt>
      <trkpt lat="45.80073" lon="3.62949">
        <ele>799.4</ele>
      </trkpt>
      <trkpt lat="45.80061" lon="3.62913">
        <ele>795.6</ele>
      </trkpt>
      <trkpt lat="45.80051" lon="3.6289">
        <ele>791.3</ele>
      </trkpt>
      <trkpt lat="45.8004" lon="3.62866">
        <ele>787.6</ele>
      </trkpt>
      <trkpt lat="45.80027" lon="3.6284">
        <ele>783.1</ele>
      </trkpt>
      <trkpt lat="45.80011" lon="3.62811">
        <ele>779</ele>
      </trkpt>
      <trkpt lat="45.80001" lon="3.62791">
        <ele>777.2</ele>
      </trkpt>
      <trkpt lat="45.79991" lon="3.62769">
        <ele>776.9</ele>
      </trkpt>
      <trkpt lat="45.79983" lon="3.62749">
        <ele>775.5</ele>
      </trkpt>
      <trkpt lat="45.79976" lon="3.62725">
        <ele>772.4</ele>
      </trkpt>
      <trkpt lat="45.79966" lon="3.62686">
        <ele>769</ele>
      </trkpt>
      <trkpt lat="45.79964" lon="3.62673">
        <ele>767.9</ele>
      </trkpt>
      <trkpt lat="45.79963" lon="3.62656">
        <ele>766.2</ele>
      </trkpt>
      <trkpt lat="45.79964" lon="3.62639">
        <ele>764.1</ele>
      </trkpt>
      <trkpt lat="45.79969" lon="3.62616">
        <ele>760.2</ele>
      </trkpt>
      <trkpt lat="45.79973" lon="3.62583">
        <ele>754.9</ele>
      </trkpt>
      <trkpt lat="45.79976" lon="3.62554">
        <ele>752.9</ele>
      </trkpt>
      <trkpt lat="45.79977" lon="3.62531">
        <ele>751</ele>
      </trkpt>
      <trkpt lat="45.79976" lon="3.62506">
        <ele>749.6</ele>
      </trkpt>
      <trkpt lat="45.79974" lon="3.6248">
        <ele>747.5</ele>
      </trkpt>
      <trkpt lat="45.7997" lon="3.6245">
        <ele>744.9</ele>
      </trkpt>
      <trkpt lat="45.79963" lon="3.62423">
        <ele>743.5</ele>
      </trkpt>
      <trkpt lat="45.79956" lon="3.62401">
        <ele>742.4</ele>
      </trkpt>
      <trkpt lat="45.79947" lon="3.62375">
        <ele>741.1</ele>
      </trkpt>
      <trkpt lat="45.79938" lon="3.62352">
        <ele>739.2</ele>
      </trkpt>
      <trkpt lat="45.79933" lon="3.62329">
        <ele>736.7</ele>
      </trkpt>
      <trkpt lat="45.79918" lon="3.62285">
        <ele>731.9</ele>
      </trkpt>
      <trkpt lat="45.79915" lon="3.6226">
        <ele>728.6</ele>
      </trkpt>
      <trkpt lat="45.79905" lon="3.62229">
        <ele>724.5</ele>
      </trkpt>
      <trkpt lat="45.79898" lon="3.62191">
        <ele>718</ele>
      </trkpt>
      <trkpt lat="45.79906" lon="3.6213">
        <ele>707.6</ele>
      </trkpt>
      <trkpt lat="45.79921" lon="3.62129">
        <ele>706.5</ele>
      </trkpt>
      <trkpt lat="45.79933" lon="3.62131">
        <ele>705.4</ele>
      </trkpt>
      <trkpt lat="45.7995" lon="3.62137">
        <ele>704.2</ele>
      </trkpt>
      <trkpt lat="45.79963" lon="3.62139">
        <ele>703</ele>
      </trkpt>
      <trkpt lat="45.79971" lon="3.62145">
        <ele>703</ele>
      </trkpt>
      <trkpt lat="45.79979" lon="3.62141">
        <ele>701.8</ele>
      </trkpt>
      <trkpt lat="45.7999" lon="3.62126">
        <ele>699</ele>
      </trkpt>
      <trkpt lat="45.8" lon="3.62115">
        <ele>696.6</ele>
      </trkpt>
      <trkpt lat="45.8002" lon="3.62085">
        <ele>688.7</ele>
      </trkpt>
      <trkpt lat="45.80025" lon="3.62102">
        <ele>690.8</ele>
      </trkpt>
      <trkpt lat="45.80037" lon="3.62135">
        <ele>694.1</ele>
      </trkpt>
      <trkpt lat="45.80052" lon="3.62161">
        <ele>695.7</ele>
      </trkpt>
      <trkpt lat="45.80072" lon="3.62192">
        <ele>696.5</ele>
      </trkpt>
      <trkpt lat="45.80088" lon="3.62218">
        <ele>696.6</ele>
      </trkpt>
      <trkpt lat="45.80107" lon="3.62234">
        <ele>695.4</ele>
      </trkpt>
      <trkpt lat="45.80127" lon="3.62246">
        <ele>694.7</ele>
      </trkpt>
      <trkpt lat="45.80149" lon="3.62259">
        <ele>694.4</ele>
      </trkpt>
      <trkpt lat="45.8017" lon="3.62278">
        <ele>694.8</ele>
      </trkpt>
      <trkpt lat="45.80186" lon="3.62307">
        <ele>696.4</ele>
      </trkpt>
      <trkpt lat="45.80202" lon="3.62338">
        <ele>699.5</ele>
      </trkpt>
      <trkpt lat="45.80214" lon="3.62358">
        <ele>701</ele>
      </trkpt>
      <trkpt lat="45.80242" lon="3.62365">
        <ele>700</ele>
      </trkpt>
      <trkpt lat="45.8029" lon="3.62369">
        <ele>696.4</ele>
      </trkpt>
      <trkpt lat="45.80289" lon="3.62344">
        <ele>693.6</ele>
      </trkpt>
      <trkpt lat="45.80291" lon="3.62331">
        <ele>691.8</ele>
      </trkpt>
      <trkpt lat="45.80296" lon="3.62324">
        <ele>690.6</ele>
      </trkpt>
      <trkpt lat="45.80309" lon="3.62318">
        <ele>688.1</ele>
      </trkpt>
      <trkpt lat="45.80318" lon="3.62316">
        <ele>686.1</ele>
      </trkpt>
      <trkpt lat="45.80338" lon="3.62313">
        <ele>681.8</ele>
      </trkpt>
      <trkpt lat="45.80367" lon="3.62314">
        <ele>675.4</ele>
      </trkpt>
      <trkpt lat="45.80412" lon="3.62321">
        <ele>667</ele>
      </trkpt>
      <trkpt lat="45.80449" lon="3.62323">
        <ele>661.1</ele>
      </trkpt>
      <trkpt lat="45.80452" lon="3.62322">
        <ele>660.7</ele>
      </trkpt>
      <trkpt lat="45.80454" lon="3.62315">
        <ele>660.1</ele>
      </trkpt>
      <trkpt lat="45.8046" lon="3.62197">
        <ele>655.8</ele>
      </trkpt>
      <trkpt lat="45.8046" lon="3.62196">
        <ele>655.8</ele>
        <extensions>
          <visugpx:TrkExtension xmlns:visugpx="https://www.visugpx.com/editgpx/">
            <visugpx:node>8</visugpx:node>
            </visugpx:TrkExtension>
        </extensions>
      </trkpt>
      <trkpt lat="45.80461" lon="3.62169">
        <ele>651.9</ele>
      </trkpt>
      <trkpt lat="45.80464" lon="3.62125">
        <ele>648.4</ele>
      </trkpt>
      <trkpt lat="45.80468" lon="3.62075">
        <ele>646.4</ele>
      </trkpt>
      <trkpt lat="45.80469" lon="3.62046">
        <ele>645.3</ele>
      </trkpt>
      <trkpt lat="45.80468" lon="3.62026">
        <ele>644.4</ele>
      </trkpt>
      <trkpt lat="45.80464" lon="3.61996">
        <ele>643.2</ele>
      </trkpt>
      <trkpt lat="45.80462" lon="3.61961">
        <ele>642.4</ele>
      </trkpt>
      <trkpt lat="45.80458" lon="3.6193">
        <ele>641.4</ele>
      </trkpt>
      <trkpt lat="45.80456" lon="3.61908">
        <ele>640.8</ele>
      </trkpt>
      <trkpt lat="45.80455" lon="3.619">
        <ele>640.3</ele>
      </trkpt>
      <trkpt lat="45.80455" lon="3.61893">
        <ele>640</ele>
      </trkpt>
      <trkpt lat="45.80457" lon="3.61886">
        <ele>640</ele>
      </trkpt>
      <trkpt lat="45.80468" lon="3.61846">
        <ele>638.5</ele>
      </trkpt>
      <trkpt lat="45.80472" lon="3.6183">
        <ele>637.7</ele>
      </trkpt>
      <trkpt lat="45.80477" lon="3.61807">
        <ele>637.1</ele>
      </trkpt>
      <trkpt lat="45.80482" lon="3.61791">
        <ele>636.2</ele>
      </trkpt>
      <trkpt lat="45.80484" lon="3.61782">
        <ele>635.3</ele>
      </trkpt>
      <trkpt lat="45.80484" lon="3.61777">
        <ele>634.6</ele>
      </trkpt>
      <trkpt lat="45.80484" lon="3.61773">
        <ele>634.4</ele>
      </trkpt>
      <trkpt lat="45.80481" lon="3.61754">
        <ele>632.6</ele>
      </trkpt>
      <trkpt lat="45.80481" lon="3.61747">
        <ele>632</ele>
      </trkpt>
      <trkpt lat="45.80482" lon="3.61743">
        <ele>631.8</ele>
      </trkpt>
      <trkpt lat="45.80488" lon="3.61736">
        <ele>632</ele>
      </trkpt>
      <trkpt lat="45.80499" lon="3.61725">
        <ele>632.2</ele>
      </trkpt>
      <trkpt lat="45.80503" lon="3.61722">
        <ele>632.1</ele>
      </trkpt>
      <trkpt lat="45.80507" lon="3.6172">
        <ele>632</ele>
      </trkpt>
      <trkpt lat="45.8051" lon="3.61718">
        <ele>631.8</ele>
      </trkpt>
      <trkpt lat="45.80514" lon="3.61726">
        <ele>632.8</ele>
      </trkpt>
      <trkpt lat="45.80517" lon="3.61731">
        <ele>633.4</ele>
      </trkpt>
      <trkpt lat="45.80529" lon="3.61746">
        <ele>634.7</ele>
      </trkpt>
      <trkpt lat="45.80539" lon="3.61755">
        <ele>635.6</ele>
      </trkpt>
      <trkpt lat="45.80548" lon="3.61763">
        <ele>636.7</ele>
      </trkpt>
      <trkpt lat="45.80552" lon="3.61765">
        <ele>637.1</ele>
      </trkpt>
      <trkpt lat="45.80563" lon="3.6177">
        <ele>637.8</ele>
      </trkpt>
      <trkpt lat="45.80594" lon="3.61782">
        <ele>638.3</ele>
      </trkpt>
      <trkpt lat="45.80626" lon="3.61796">
        <ele>639.5</ele>
      </trkpt>
      <trkpt lat="45.8065" lon="3.61807">
        <ele>639.3</ele>
      </trkpt>
      <trkpt lat="45.80657" lon="3.61811">
        <ele>639</ele>
      </trkpt>
      <trkpt lat="45.80661" lon="3.61816">
        <ele>638.9</ele>
      </trkpt>
      <trkpt lat="45.80663" lon="3.6182">
        <ele>638.9</ele>
      </trkpt>
      <trkpt lat="45.80664" lon="3.61826">
        <ele>639</ele>
      </trkpt>
      <trkpt lat="45.80665" lon="3.61832">
        <ele>639.1</ele>
      </trkpt>
      <trkpt lat="45.80664" lon="3.61839">
        <ele>638.8</ele>
      </trkpt>
      <trkpt lat="45.80654" lon="3.61912">
        <ele>637.3</ele>
      </trkpt>
      <trkpt lat="45.80646" lon="3.6196">
        <ele>637.9</ele>
      </trkpt>
      <trkpt lat="45.80643" lon="3.61974">
        <ele>637.3</ele>
      </trkpt>
      <trkpt lat="45.80639" lon="3.61987">
        <ele>636.8</ele>
      </trkpt>
      <trkpt lat="45.80633" lon="3.61997">
        <ele>636.6</ele>
      </trkpt>
      <trkpt lat="45.80629" lon="3.62007">
        <ele>635.9</ele>
      </trkpt>
      <trkpt lat="45.80624" lon="3.62018">
        <ele>635.4</ele>
      </trkpt>
      <trkpt lat="45.80622" lon="3.6203">
        <ele>634.6</ele>
      </trkpt>
      <trkpt lat="45.80622" lon="3.62043">
        <ele>634.6</ele>
      </trkpt>
      <trkpt lat="45.80624" lon="3.62054">
        <ele>634.2</ele>
      </trkpt>
      <trkpt lat="45.80628" lon="3.62067">
        <ele>634</ele>
      </trkpt>
      <trkpt lat="45.80632" lon="3.62074">
        <ele>633.7</ele>
      </trkpt>
      <trkpt lat="45.80637" lon="3.62081">
        <ele>633.2</ele>
      </trkpt>
      <trkpt lat="45.80643" lon="3.62086">
        <ele>632.9</ele>
      </trkpt>
      <trkpt lat="45.80654" lon="3.62091">
        <ele>632.6</ele>
      </trkpt>
      <trkpt lat="45.80667" lon="3.62095">
        <ele>632.2</ele>
      </trkpt>
      <trkpt lat="45.80683" lon="3.621">
        <ele>632.2</ele>
      </trkpt>
      <trkpt lat="45.80688" lon="3.62099">
        <ele>631.9</ele>
      </trkpt>
      <trkpt lat="45.80692" lon="3.62096">
        <ele>631.5</ele>
      </trkpt>
      <trkpt lat="45.80696" lon="3.62093">
        <ele>631.4</ele>
      </trkpt>
      <trkpt lat="45.80699" lon="3.62086">
        <ele>631.4</ele>
      </trkpt>
      <trkpt lat="45.80709" lon="3.62066">
        <ele>632.4</ele>
      </trkpt>
      <trkpt lat="45.80719" lon="3.62051">
        <ele>632.9</ele>
      </trkpt>
      <trkpt lat="45.80725" lon="3.62041">
        <ele>632.9</ele>
      </trkpt>
      <trkpt lat="45.80736" lon="3.62027">
        <ele>633.5</ele>
      </trkpt>
      <trkpt lat="45.80742" lon="3.62019">
        <ele>634.2</ele>
      </trkpt>
      <trkpt lat="45.80757" lon="3.62002">
        <ele>636.1</ele>
      </trkpt>
      <trkpt lat="45.80764" lon="3.61995">
        <ele>636.9</ele>
      </trkpt>
      <trkpt lat="45.80771" lon="3.61987">
        <ele>637.7</ele>
      </trkpt>
      <trkpt lat="45.80778" lon="3.61977">
        <ele>638.2</ele>
      </trkpt>
      <trkpt lat="45.80788" lon="3.61957">
        <ele>640</ele>
      </trkpt>
      <trkpt lat="45.80802" lon="3.61928">
        <ele>641.8</ele>
      </trkpt>
      <trkpt lat="45.80817" lon="3.61898">
        <ele>644.5</ele>
      </trkpt>
      <trkpt lat="45.80819" lon="3.61891">
        <ele>644.9</ele>
      </trkpt>
      <trkpt lat="45.80816" lon="3.61881">
        <ele>644.1</ele>
      </trkpt>
      <trkpt lat="45.80812" lon="3.61874">
        <ele>643.3</ele>
      </trkpt>
      <trkpt lat="45.8081" lon="3.61869">
        <ele>642.8</ele>
      </trkpt>
      <trkpt lat="45.8081" lon="3.61863">
        <ele>642.6</ele>
      </trkpt>
      <trkpt lat="45.80811" lon="3.61858">
        <ele>641.7</ele>
      </trkpt>
      <trkpt lat="45.80812" lon="3.61853">
        <ele>640.4</ele>
      </trkpt>
      <trkpt lat="45.80817" lon="3.61848">
        <ele>639.5</ele>
      </trkpt>
      <trkpt lat="45.80821" lon="3.61843">
        <ele>638.5</ele>
      </trkpt>
      <trkpt lat="45.8083" lon="3.61837">
        <ele>637.7</ele>
      </trkpt>
      <trkpt lat="45.8084" lon="3.61833">
        <ele>636.2</ele>
      </trkpt>
      <trkpt lat="45.80849" lon="3.6183">
        <ele>634.3</ele>
      </trkpt>
      <trkpt lat="45.80856" lon="3.6183">
        <ele>633.6</ele>
      </trkpt>
      <trkpt lat="45.80866" lon="3.61832">
        <ele>632.7</ele>
      </trkpt>
      <trkpt lat="45.80878" lon="3.61835">
        <ele>631.5</ele>
      </trkpt>
      <trkpt lat="45.80889" lon="3.61836">
        <ele>629.9</ele>
      </trkpt>
      <trkpt lat="45.80899" lon="3.61837">
        <ele>628.9</ele>
      </trkpt>
      <trkpt lat="45.8091" lon="3.61837">
        <ele>627.4</ele>
      </trkpt>
      <trkpt lat="45.80921" lon="3.61837">
        <ele>625.7</ele>
      </trkpt>
      <trkpt lat="45.80959" lon="3.61854">
        <ele>626.8</ele>
      </trkpt>
      <trkpt lat="45.80974" lon="3.61861">
        <ele>626.6</ele>
      </trkpt>
      <trkpt lat="45.80991" lon="3.61871">
        <ele>625.6</ele>
      </trkpt>
      <trkpt lat="45.81005" lon="3.6188">
        <ele>624.4</ele>
      </trkpt>
      <trkpt lat="45.81018" lon="3.61893">
        <ele>623.6</ele>
      </trkpt>
      <trkpt lat="45.81028" lon="3.61908">
        <ele>623.4</ele>
      </trkpt>
      <trkpt lat="45.81037" lon="3.61929">
        <ele>623.5</ele>
      </trkpt>
      <trkpt lat="45.81047" lon="3.61952">
        <ele>623.2</ele>
      </trkpt>
      <trkpt lat="45.81055" lon="3.61969">
        <ele>622.7</ele>
      </trkpt>
      <trkpt lat="45.81061" lon="3.61992">
        <ele>622.2</ele>
      </trkpt>
      <trkpt lat="45.81068" lon="3.62011">
        <ele>621.2</ele>
      </trkpt>
      <trkpt lat="45.81072" lon="3.62019">
        <ele>620.8</ele>
      </trkpt>
      <trkpt lat="45.81085" lon="3.62036">
        <ele>619.7</ele>
      </trkpt>
      <trkpt lat="45.81095" lon="3.62046">
        <ele>618.8</ele>
      </trkpt>
      <trkpt lat="45.81101" lon="3.62053">
        <ele>618.7</ele>
      </trkpt>
      <trkpt lat="45.81106" lon="3.6206">
        <ele>618.6</ele>
      </trkpt>
      <trkpt lat="45.81111" lon="3.62071">
        <ele>618.7</ele>
      </trkpt>
      <trkpt lat="45.81119" lon="3.62089">
        <ele>618.1</ele>
      </trkpt>
      <trkpt lat="45.81129" lon="3.6211">
        <ele>616.8</ele>
      </trkpt>
      <trkpt lat="45.81137" lon="3.62126">
        <ele>615.6</ele>
      </trkpt>
      <trkpt lat="45.81147" lon="3.62151">
        <ele>614</ele>
      </trkpt>
      <trkpt lat="45.81156" lon="3.62173">
        <ele>612.1</ele>
      </trkpt>
      <trkpt lat="45.81172" lon="3.62206">
        <ele>610.6</ele>
      </trkpt>
      <trkpt lat="45.8118" lon="3.62225">
        <ele>610.5</ele>
      </trkpt>
      <trkpt lat="45.81186" lon="3.6224">
        <ele>610</ele>
      </trkpt>
      <trkpt lat="45.81191" lon="3.62253">
        <ele>609.3</ele>
      </trkpt>
      <trkpt lat="45.81197" lon="3.62273">
        <ele>607.9</ele>
      </trkpt>
      <trkpt lat="45.81202" lon="3.62289">
        <ele>607.1</ele>
      </trkpt>
      <trkpt lat="45.81205" lon="3.623">
        <ele>606.8</ele>
      </trkpt>
      <trkpt lat="45.81208" lon="3.62308">
        <ele>606.4</ele>
      </trkpt>
      <trkpt lat="45.81214" lon="3.62316">
        <ele>605.4</ele>
      </trkpt>
      <trkpt lat="45.8122" lon="3.62321">
        <ele>604.4</ele>
      </trkpt>
      <trkpt lat="45.81227" lon="3.62324">
        <ele>603.2</ele>
      </trkpt>
      <trkpt lat="45.81236" lon="3.62329">
        <ele>601.8</ele>
      </trkpt>
      <trkpt lat="45.81241" lon="3.62334">
        <ele>601.3</ele>
      </trkpt>
      <trkpt lat="45.81245" lon="3.6234">
        <ele>600.6</ele>
      </trkpt>
      <trkpt lat="45.81249" lon="3.62353">
        <ele>600</ele>
      </trkpt>
      <trkpt lat="45.81253" lon="3.62364">
        <ele>599.3</ele>
      </trkpt>
      <trkpt lat="45.81257" lon="3.6237">
        <ele>598.4</ele>
      </trkpt>
      <trkpt lat="45.81263" lon="3.62375">
        <ele>597.2</ele>
      </trkpt>
      <trkpt lat="45.81268" lon="3.62377">
        <ele>596.2</ele>
      </trkpt>
      <trkpt lat="45.81276" lon="3.62382">
        <ele>594.9</ele>
      </trkpt>
      <trkpt lat="45.81283" lon="3.62385">
        <ele>594.1</ele>
      </trkpt>
      <trkpt lat="45.81289" lon="3.62386">
        <ele>593.5</ele>
      </trkpt>
      <trkpt lat="45.81296" lon="3.62386">
        <ele>592.8</ele>
      </trkpt>
      <trkpt lat="45.81304" lon="3.62384">
        <ele>591.6</ele>
      </trkpt>
      <trkpt lat="45.81312" lon="3.62382">
        <ele>590.7</ele>
      </trkpt>
      <trkpt lat="45.81319" lon="3.62379">
        <ele>589.8</ele>
      </trkpt>
      <trkpt lat="45.81326" lon="3.62378">
        <ele>589.1</ele>
      </trkpt>
      <trkpt lat="45.81331" lon="3.62376">
        <ele>588.4</ele>
      </trkpt>
      <trkpt lat="45.81338" lon="3.62376">
        <ele>587.7</ele>
      </trkpt>
      <trkpt lat="45.81345" lon="3.62377">
        <ele>587.2</ele>
      </trkpt>
      <trkpt lat="45.81358" lon="3.62383">
        <ele>586.7</ele>
      </trkpt>
      <trkpt lat="45.8137" lon="3.62389">
        <ele>586.7</ele>
      </trkpt>
      <trkpt lat="45.81379" lon="3.62392">
        <ele>586.5</ele>
      </trkpt>
      <trkpt lat="45.81389" lon="3.62394">
        <ele>586.2</ele>
      </trkpt>
      <trkpt lat="45.81397" lon="3.62396">
        <ele>586.1</ele>
      </trkpt>
      <trkpt lat="45.81405" lon="3.62395">
        <ele>585.9</ele>
      </trkpt>
      <trkpt lat="45.81412" lon="3.62393">
        <ele>585.6</ele>
      </trkpt>
      <trkpt lat="45.81422" lon="3.62387">
        <ele>585.1</ele>
      </trkpt>
      <trkpt lat="45.8143" lon="3.62381">
        <ele>584.9</ele>
      </trkpt>
      <trkpt lat="45.81438" lon="3.62375">
        <ele>584.8</ele>
      </trkpt>
      <trkpt lat="45.8145" lon="3.62363">
        <ele>584.1</ele>
      </trkpt>
      <trkpt lat="45.81456" lon="3.62357">
        <ele>583.7</ele>
      </trkpt>
      <trkpt lat="45.81463" lon="3.62353">
        <ele>583.4</ele>
      </trkpt>
      <trkpt lat="45.81475" lon="3.62351">
        <ele>583.3</ele>
      </trkpt>
      <trkpt lat="45.8149" lon="3.62348">
        <ele>583.4</ele>
      </trkpt>
      <trkpt lat="45.81494" lon="3.62348">
        <ele>583.5</ele>
      </trkpt>
      <trkpt lat="45.81501" lon="3.62345">
        <ele>583.2</ele>
      </trkpt>
      <trkpt lat="45.81509" lon="3.62341">
        <ele>582.1</ele>
      </trkpt>
      <trkpt lat="45.81515" lon="3.62336">
        <ele>581.2</ele>
      </trkpt>
      <trkpt lat="45.81516" lon="3.62334">
        <ele>580.9</ele>
      </trkpt>
      <trkpt lat="45.81519" lon="3.6234">
        <ele>581.2</ele>
      </trkpt>
      <trkpt lat="45.8153" lon="3.62344">
        <ele>580.7</ele>
      </trkpt>
      <trkpt lat="45.81545" lon="3.62353">
        <ele>581.2</ele>
      </trkpt>
      <trkpt lat="45.8155" lon="3.62358">
        <ele>581.7</ele>
      </trkpt>
      <trkpt lat="45.81558" lon="3.62367">
        <ele>582.2</ele>
      </trkpt>
      <trkpt lat="45.81562" lon="3.62376">
        <ele>582.4</ele>
      </trkpt>
      <trkpt lat="45.81566" lon="3.62383">
        <ele>582.4</ele>
      </trkpt>
      <trkpt lat="45.8157" lon="3.62388">
        <ele>582.4</ele>
      </trkpt>
      <trkpt lat="45.81575" lon="3.62393">
        <ele>582.2</ele>
      </trkpt>
      <trkpt lat="45.8158" lon="3.62395">
        <ele>581.8</ele>
      </trkpt>
      <trkpt lat="45.81586" lon="3.62396">
        <ele>581.4</ele>
      </trkpt>
      <trkpt lat="45.81598" lon="3.6239">
        <ele>580.5</ele>
      </trkpt>
      <trkpt lat="45.81606" lon="3.62383">
        <ele>579.8</ele>
      </trkpt>
      <trkpt lat="45.81621" lon="3.62368">
        <ele>578.9</ele>
      </trkpt>
      <trkpt lat="45.81628" lon="3.6236">
        <ele>579.1</ele>
      </trkpt>
      <trkpt lat="45.81636" lon="3.62352">
        <ele>579.1</ele>
      </trkpt>
      <trkpt lat="45.81643" lon="3.62344">
        <ele>578.7</ele>
      </trkpt>
      <trkpt lat="45.81652" lon="3.62339">
        <ele>578.3</ele>
      </trkpt>
      <trkpt lat="45.81664" lon="3.62337">
        <ele>578.1</ele>
      </trkpt>
      <trkpt lat="45.81676" lon="3.62337">
        <ele>577.1</ele>
      </trkpt>
      <trkpt lat="45.81687" lon="3.62339">
        <ele>575.9</ele>
      </trkpt>
      <trkpt lat="45.81693" lon="3.62342">
        <ele>575.2</ele>
      </trkpt>
      <trkpt lat="45.81695" lon="3.62344">
        <ele>574.8</ele>
        <extensions>
          <visugpx:TrkExtension xmlns:visugpx="https://www.visugpx.com/editgpx/">
            <visugpx:node>9</visugpx:node>
            </visugpx:TrkExtension>
        </extensions>
      </trkpt>
      <trkpt lat="45.81701" lon="3.62349">
        <ele>573.1</ele>
      </trkpt>
      <trkpt lat="45.81708" lon="3.62356">
        <ele>571.4</ele>
      </trkpt>
      <trkpt lat="45.81715" lon="3.62369">
        <ele>569.5</ele>
      </trkpt>
      <trkpt lat="45.81723" lon="3.62383">
        <ele>568</ele>
      </trkpt>
      <trkpt lat="45.81729" lon="3.6239">
        <ele>568.1</ele>
      </trkpt>
      <trkpt lat="45.81737" lon="3.62394">
        <ele>568.4</ele>
      </trkpt>
      <trkpt lat="45.81747" lon="3.62396">
        <ele>568.7</ele>
      </trkpt>
      <trkpt lat="45.81754" lon="3.62396">
        <ele>569.5</ele>
      </trkpt>
      <trkpt lat="45.81761" lon="3.62392">
        <ele>570.3</ele>
      </trkpt>
      <trkpt lat="45.81767" lon="3.62386">
        <ele>570.8</ele>
      </trkpt>
      <trkpt lat="45.81773" lon="3.62377">
        <ele>571.2</ele>
      </trkpt>
      <trkpt lat="45.81777" lon="3.62371">
        <ele>571.6</ele>
      </trkpt>
      <trkpt lat="45.81781" lon="3.62362">
        <ele>571.5</ele>
      </trkpt>
      <trkpt lat="45.81786" lon="3.62356">
        <ele>571.8</ele>
      </trkpt>
      <trkpt lat="45.81791" lon="3.62354">
        <ele>572.4</ele>
      </trkpt>
      <trkpt lat="45.81801" lon="3.62354">
        <ele>573.8</ele>
      </trkpt>
      <trkpt lat="45.81821" lon="3.62356">
        <ele>573.6</ele>
      </trkpt>
      <trkpt lat="45.81844" lon="3.62359">
        <ele>571.4</ele>
      </trkpt>
      <trkpt lat="45.81851" lon="3.62358">
        <ele>570.3</ele>
      </trkpt>
      <trkpt lat="45.81856" lon="3.62355">
        <ele>569.5</ele>
      </trkpt>
      <trkpt lat="45.81861" lon="3.62348">
        <ele>568.5</ele>
      </trkpt>
      <trkpt lat="45.81866" lon="3.62337">
        <ele>568</ele>
      </trkpt>
      <trkpt lat="45.81871" lon="3.62323">
        <ele>566.9</ele>
      </trkpt>
      <trkpt lat="45.81875" lon="3.62308">
        <ele>565.2</ele>
      </trkpt>
      <trkpt lat="45.81877" lon="3.62285">
        <ele>563.2</ele>
      </trkpt>
      <trkpt lat="45.81882" lon="3.62261">
        <ele>561.2</ele>
      </trkpt>
      <trkpt lat="45.81892" lon="3.62227">
        <ele>559.9</ele>
      </trkpt>
      <trkpt lat="45.81897" lon="3.62214">
        <ele>559.3</ele>
      </trkpt>
      <trkpt lat="45.81903" lon="3.6219">
        <ele>558.7</ele>
      </trkpt>
      <trkpt lat="45.81904" lon="3.62181">
        <ele>559.3</ele>
      </trkpt>
      <trkpt lat="45.81906" lon="3.62165">
        <ele>560.7</ele>
      </trkpt>
      <trkpt lat="45.81927" lon="3.62175">
        <ele>560.4</ele>
      </trkpt>
      <trkpt lat="45.81943" lon="3.62182">
        <ele>560.5</ele>
      </trkpt>
      <trkpt lat="45.81953" lon="3.62187">
        <ele>561.3</ele>
      </trkpt>
      <trkpt lat="45.8196" lon="3.6219">
        <ele>561.9</ele>
      </trkpt>
      <trkpt lat="45.81972" lon="3.62199">
        <ele>562.7</ele>
      </trkpt>
      <trkpt lat="45.81989" lon="3.62212">
        <ele>563.1</ele>
      </trkpt>
      <trkpt lat="45.82003" lon="3.62224">
        <ele>564.3</ele>
      </trkpt>
      <trkpt lat="45.82013" lon="3.62235">
        <ele>565.2</ele>
      </trkpt>
      <trkpt lat="45.82019" lon="3.62242">
        <ele>565.8</ele>
      </trkpt>
      <trkpt lat="45.82023" lon="3.6225">
        <ele>566.3</ele>
      </trkpt>
      <trkpt lat="45.82033" lon="3.62268">
        <ele>567.6</ele>
      </trkpt>
      <trkpt lat="45.82046" lon="3.62293">
        <ele>568.7</ele>
      </trkpt>
      <trkpt lat="45.82057" lon="3.62313">
        <ele>570.8</ele>
      </trkpt>
      <trkpt lat="45.82063" lon="3.62321">
        <ele>571.9</ele>
      </trkpt>
      <trkpt lat="45.82068" lon="3.62329">
        <ele>572.8</ele>
      </trkpt>
      <trkpt lat="45.82074" lon="3.62337">
        <ele>574</ele>
      </trkpt>
      <trkpt lat="45.82083" lon="3.62346">
        <ele>575.1</ele>
      </trkpt>
      <trkpt lat="45.82088" lon="3.62352">
        <ele>575</ele>
      </trkpt>
      <trkpt lat="45.82095" lon="3.62355">
        <ele>575.6</ele>
      </trkpt>
      <trkpt lat="45.82102" lon="3.62358">
        <ele>576.1</ele>
      </trkpt>
      <trkpt lat="45.82109" lon="3.62361">
        <ele>576.7</ele>
      </trkpt>
      <trkpt lat="45.82125" lon="3.62365">
        <ele>577.4</ele>
      </trkpt>
      <trkpt lat="45.82137" lon="3.62369">
        <ele>578</ele>
      </trkpt>
      <trkpt lat="45.82145" lon="3.62373">
        <ele>578</ele>
      </trkpt>
      <trkpt lat="45.82154" lon="3.62377">
        <ele>578.2</ele>
      </trkpt>
      <trkpt lat="45.82161" lon="3.62381">
        <ele>578.6</ele>
      </trkpt>
      <trkpt lat="45.82168" lon="3.62385">
        <ele>578.9</ele>
      </trkpt>
      <trkpt lat="45.82178" lon="3.62394">
        <ele>578.6</ele>
      </trkpt>
      <trkpt lat="45.82182" lon="3.62399">
        <ele>578.7</ele>
      </trkpt>
      <trkpt lat="45.82187" lon="3.62404">
        <ele>578.9</ele>
      </trkpt>
      <trkpt lat="45.82193" lon="3.62414">
        <ele>579.7</ele>
      </trkpt>
      <trkpt lat="45.82198" lon="3.62422">
        <ele>579.8</ele>
      </trkpt>
      <trkpt lat="45.82205" lon="3.62435">
        <ele>580</ele>
      </trkpt>
      <trkpt lat="45.82216" lon="3.62461">
        <ele>581.8</ele>
      </trkpt>
      <trkpt lat="45.82218" lon="3.62468">
        <ele>582.4</ele>
      </trkpt>
      <trkpt lat="45.8222" lon="3.62475">
        <ele>582.8</ele>
      </trkpt>
      <trkpt lat="45.82225" lon="3.62493">
        <ele>583.2</ele>
      </trkpt>
      <trkpt lat="45.8223" lon="3.62513">
        <ele>584.3</ele>
      </trkpt>
      <trkpt lat="45.82235" lon="3.62526">
        <ele>585.3</ele>
      </trkpt>
      <trkpt lat="45.82237" lon="3.62529">
        <ele>585.7</ele>
      </trkpt>
      <trkpt lat="45.8224" lon="3.62531">
        <ele>586.1</ele>
      </trkpt>
      <trkpt lat="45.82242" lon="3.62532">
        <ele>586.3</ele>
      </trkpt>
      <trkpt lat="45.82245" lon="3.62533">
        <ele>586.7</ele>
      </trkpt>
      <trkpt lat="45.82249" lon="3.62534">
        <ele>587.1</ele>
      </trkpt>
      <trkpt lat="45.82265" lon="3.62534">
        <ele>588</ele>
      </trkpt>
      <trkpt lat="45.82287" lon="3.62533">
        <ele>589.2</ele>
      </trkpt>
      <trkpt lat="45.82294" lon="3.62533">
        <ele>589.7</ele>
      </trkpt>
      <trkpt lat="45.823" lon="3.62534">
        <ele>590.3</ele>
      </trkpt>
      <trkpt lat="45.82305" lon="3.62536">
        <ele>590.8</ele>
      </trkpt>
      <trkpt lat="45.82313" lon="3.62539">
        <ele>591.2</ele>
      </trkpt>
      <trkpt lat="45.82324" lon="3.62545">
        <ele>591.9</ele>
      </trkpt>
      <trkpt lat="45.82343" lon="3.6256">
        <ele>593.5</ele>
      </trkpt>
      <trkpt lat="45.8236" lon="3.62574">
        <ele>594.4</ele>
      </trkpt>
      <trkpt lat="45.8237" lon="3.62583">
        <ele>594.7</ele>
      </trkpt>
      <trkpt lat="45.82385" lon="3.62599">
        <ele>595.4</ele>
      </trkpt>
      <trkpt lat="45.82392" lon="3.62608">
        <ele>595.7</ele>
      </trkpt>
      <trkpt lat="45.82398" lon="3.62618">
        <ele>596.2</ele>
      </trkpt>
      <trkpt lat="45.82402" lon="3.62625">
        <ele>596.5</ele>
      </trkpt>
      <trkpt lat="45.82406" lon="3.62632">
        <ele>596.9</ele>
      </trkpt>
      <trkpt lat="45.82409" lon="3.62638">
        <ele>597.2</ele>
      </trkpt>
      <trkpt lat="45.82411" lon="3.62646">
        <ele>597.9</ele>
      </trkpt>
      <trkpt lat="45.82412" lon="3.62652">
        <ele>598.5</ele>
      </trkpt>
      <trkpt lat="45.82413" lon="3.62659">
        <ele>599.2</ele>
      </trkpt>
      <trkpt lat="45.82413" lon="3.62664">
        <ele>599.7</ele>
      </trkpt>
      <trkpt lat="45.82413" lon="3.6267">
        <ele>600.1</ele>
      </trkpt>
      <trkpt lat="45.82412" lon="3.62674">
        <ele>600.3</ele>
      </trkpt>
      <trkpt lat="45.82408" lon="3.62684">
        <ele>600.8</ele>
      </trkpt>
      <trkpt lat="45.82406" lon="3.62687">
        <ele>601</ele>
      </trkpt>
      <trkpt lat="45.82433" lon="3.62687">
        <ele>600</ele>
      </trkpt>
      <trkpt lat="45.82441" lon="3.62688">
        <ele>599.7</ele>
      </trkpt>
      <trkpt lat="45.82459" lon="3.62688">
        <ele>598.4</ele>
      </trkpt>
      <trkpt lat="45.82465" lon="3.62688">
        <ele>597.9</ele>
      </trkpt>
      <trkpt lat="45.82469" lon="3.62687">
        <ele>597.5</ele>
      </trkpt>
      <trkpt lat="45.82474" lon="3.62685">
        <ele>597.1</ele>
      </trkpt>
      <trkpt lat="45.82478" lon="3.62683">
        <ele>597.2</ele>
      </trkpt>
      <trkpt lat="45.82484" lon="3.62681">
        <ele>597.4</ele>
      </trkpt>
      <trkpt lat="45.82489" lon="3.62676">
        <ele>597.2</ele>
      </trkpt>
      <trkpt lat="45.82496" lon="3.6267">
        <ele>597.1</ele>
      </trkpt>
      <trkpt lat="45.82502" lon="3.62663">
        <ele>596.7</ele>
      </trkpt>
      <trkpt lat="45.82508" lon="3.62655">
        <ele>596.3</ele>
      </trkpt>
      <trkpt lat="45.82512" lon="3.62649">
        <ele>596</ele>
      </trkpt>
      <trkpt lat="45.82519" lon="3.62634">
        <ele>595.4</ele>
      </trkpt>
      <trkpt lat="45.82525" lon="3.6262">
        <ele>595.3</ele>
      </trkpt>
      <trkpt lat="45.82528" lon="3.62612">
        <ele>595.1</ele>
      </trkpt>
      <trkpt lat="45.82534" lon="3.62603">
        <ele>594.8</ele>
      </trkpt>
      <trkpt lat="45.82539" lon="3.62595">
        <ele>594.4</ele>
      </trkpt>
      <trkpt lat="45.82542" lon="3.62591">
        <ele>594.2</ele>
      </trkpt>
      <trkpt lat="45.82563" lon="3.62572">
        <ele>592.6</ele>
      </trkpt>
      <trkpt lat="45.82597" lon="3.62542">
        <ele>590.8</ele>
      </trkpt>
      <trkpt lat="45.82606" lon="3.62532">
        <ele>590.1</ele>
      </trkpt>
      <trkpt lat="45.8261" lon="3.62527">
        <ele>589.8</ele>
      </trkpt>
      <trkpt lat="45.82615" lon="3.6252">
        <ele>589.2</ele>
      </trkpt>
      <trkpt lat="45.82619" lon="3.62511">
        <ele>588.2</ele>
      </trkpt>
      <trkpt lat="45.8262" lon="3.62504">
        <ele>587.4</ele>
      </trkpt>
      <trkpt lat="45.82622" lon="3.62493">
        <ele>587.4</ele>
      </trkpt>
      <trkpt lat="45.82623" lon="3.6248">
        <ele>588.3</ele>
      </trkpt>
      <trkpt lat="45.82635" lon="3.62481">
        <ele>588.9</ele>
      </trkpt>
      <trkpt lat="45.82639" lon="3.62482">
        <ele>589</ele>
      </trkpt>
      <trkpt lat="45.82644" lon="3.62483">
        <ele>589.7</ele>
      </trkpt>
      <trkpt lat="45.82654" lon="3.62487">
        <ele>590.5</ele>
      </trkpt>
      <trkpt lat="45.82664" lon="3.62494">
        <ele>590.2</ele>
      </trkpt>
      <trkpt lat="45.8267" lon="3.62499">
        <ele>589.5</ele>
      </trkpt>
      <trkpt lat="45.82676" lon="3.62504">
        <ele>589.3</ele>
      </trkpt>
      <trkpt lat="45.82685" lon="3.62507">
        <ele>589.6</ele>
      </trkpt>
      <trkpt lat="45.82694" lon="3.62503">
        <ele>590.6</ele>
      </trkpt>
      <trkpt lat="45.82701" lon="3.62499">
        <ele>590.7</ele>
      </trkpt>
      <trkpt lat="45.82728" lon="3.62477">
        <ele>593</ele>
      </trkpt>
      <trkpt lat="45.8274" lon="3.62466">
        <ele>594.8</ele>
      </trkpt>
      <trkpt lat="45.82751" lon="3.62458">
        <ele>596</ele>
      </trkpt>
      <trkpt lat="45.8276" lon="3.62453">
        <ele>596.5</ele>
      </trkpt>
      <trkpt lat="45.82768" lon="3.62452">
        <ele>596.1</ele>
      </trkpt>
      <trkpt lat="45.82778" lon="3.62455">
        <ele>595.3</ele>
      </trkpt>
      <trkpt lat="45.82787" lon="3.62458">
        <ele>595.5</ele>
      </trkpt>
      <trkpt lat="45.82794" lon="3.62461">
        <ele>595.4</ele>
      </trkpt>
      <trkpt lat="45.82804" lon="3.62458">
        <ele>596.5</ele>
      </trkpt>
      <trkpt lat="45.82814" lon="3.62453">
        <ele>597.8</ele>
      </trkpt>
      <trkpt lat="45.8283" lon="3.62445">
        <ele>599</ele>
        <extensions>
          <visugpx:TrkExtension xmlns:visugpx="https://www.visugpx.com/editgpx/">
            <visugpx:node>10</visugpx:node>
            </visugpx:TrkExtension>
        </extensions>
      </trkpt>
      <trkpt lat="45.82834" lon="3.62443">
        <ele>599.3</ele>
      </trkpt>
      <trkpt lat="45.82845" lon="3.62438">
        <ele>600.1</ele>
      </trkpt>
      <trkpt lat="45.82853" lon="3.62434">
        <ele>600.5</ele>
      </trkpt>
      <trkpt lat="45.82864" lon="3.62434">
        <ele>600.5</ele>
      </trkpt>
      <trkpt lat="45.82874" lon="3.62437">
        <ele>601.5</ele>
      </trkpt>
      <trkpt lat="45.82882" lon="3.62443">
        <ele>602.1</ele>
      </trkpt>
      <trkpt lat="45.82894" lon="3.6245">
        <ele>602.7</ele>
      </trkpt>
      <trkpt lat="45.82902" lon="3.62453">
        <ele>603.1</ele>
      </trkpt>
      <trkpt lat="45.82909" lon="3.62455">
        <ele>603.4</ele>
      </trkpt>
      <trkpt lat="45.82918" lon="3.62456">
        <ele>604.2</ele>
      </trkpt>
      <trkpt lat="45.8293" lon="3.62457">
        <ele>605.3</ele>
      </trkpt>
      <trkpt lat="45.82945" lon="3.62459">
        <ele>606.4</ele>
      </trkpt>
      <trkpt lat="45.8295" lon="3.6246">
        <ele>607</ele>
      </trkpt>
      <trkpt lat="45.82956" lon="3.62463">
        <ele>607.3</ele>
      </trkpt>
      <trkpt lat="45.82963" lon="3.62467">
        <ele>607.5</ele>
      </trkpt>
      <trkpt lat="45.82979" lon="3.62478">
        <ele>607.7</ele>
      </trkpt>
      <trkpt lat="45.82991" lon="3.62482">
        <ele>608.6</ele>
      </trkpt>
      <trkpt lat="45.83002" lon="3.62485">
        <ele>609.2</ele>
      </trkpt>
      <trkpt lat="45.83012" lon="3.62485">
        <ele>608.8</ele>
      </trkpt>
      <trkpt lat="45.83018" lon="3.62483">
        <ele>609.2</ele>
      </trkpt>
      <trkpt lat="45.83027" lon="3.62478">
        <ele>610.3</ele>
      </trkpt>
      <trkpt lat="45.83034" lon="3.6247">
        <ele>611.3</ele>
      </trkpt>
      <trkpt lat="45.83045" lon="3.62456">
        <ele>612.2</ele>
      </trkpt>
      <trkpt lat="45.83057" lon="3.62438">
        <ele>613.7</ele>
      </trkpt>
      <trkpt lat="45.83069" lon="3.62424">
        <ele>615.4</ele>
      </trkpt>
      <trkpt lat="45.83083" lon="3.62409">
        <ele>615.7</ele>
      </trkpt>
      <trkpt lat="45.83098" lon="3.62391">
        <ele>618.5</ele>
      </trkpt>
      <trkpt lat="45.83116" lon="3.62373">
        <ele>621.1</ele>
      </trkpt>
      <trkpt lat="45.8313" lon="3.62358">
        <ele>620.9</ele>
      </trkpt>
      <trkpt lat="45.83143" lon="3.62347">
        <ele>620.6</ele>
      </trkpt>
      <trkpt lat="45.83151" lon="3.62341">
        <ele>621.5</ele>
      </trkpt>
      <trkpt lat="45.83156" lon="3.62342">
        <ele>621.4</ele>
      </trkpt>
      <trkpt lat="45.83163" lon="3.62344">
        <ele>621.2</ele>
      </trkpt>
      <trkpt lat="45.83168" lon="3.62348">
        <ele>621.2</ele>
      </trkpt>
      <trkpt lat="45.83172" lon="3.62353">
        <ele>621.7</ele>
      </trkpt>
      <trkpt lat="45.83175" lon="3.62358">
        <ele>622</ele>
      </trkpt>
      <trkpt lat="45.83178" lon="3.62366">
        <ele>622.3</ele>
      </trkpt>
      <trkpt lat="45.83181" lon="3.62375">
        <ele>622.9</ele>
      </trkpt>
      <trkpt lat="45.83183" lon="3.62389">
        <ele>623.1</ele>
      </trkpt>
      <trkpt lat="45.83186" lon="3.62404">
        <ele>623.1</ele>
      </trkpt>
      <trkpt lat="45.83189" lon="3.62412">
        <ele>623.3</ele>
      </trkpt>
      <trkpt lat="45.83192" lon="3.62417">
        <ele>623.5</ele>
      </trkpt>
      <trkpt lat="45.83198" lon="3.62425">
        <ele>623.9</ele>
      </trkpt>
      <trkpt lat="45.83207" lon="3.62432">
        <ele>624.5</ele>
      </trkpt>
      <trkpt lat="45.83214" lon="3.62435">
        <ele>625</ele>
      </trkpt>
      <trkpt lat="45.83224" lon="3.62439">
        <ele>625.7</ele>
      </trkpt>
      <trkpt lat="45.83235" lon="3.62441">
        <ele>625.9</ele>
      </trkpt>
      <trkpt lat="45.8326" lon="3.62442">
        <ele>627.6</ele>
      </trkpt>
      <trkpt lat="45.83277" lon="3.62444">
        <ele>629</ele>
      </trkpt>
      <trkpt lat="45.83293" lon="3.62452">
        <ele>628.6</ele>
      </trkpt>
      <trkpt lat="45.83358" lon="3.62494">
        <ele>629.2</ele>
      </trkpt>
      <trkpt lat="45.83394" lon="3.62522">
        <ele>630.2</ele>
      </trkpt>
      <trkpt lat="45.83427" lon="3.62546">
        <ele>628.5</ele>
      </trkpt>
      <trkpt lat="45.83445" lon="3.62559">
        <ele>628</ele>
      </trkpt>
      <trkpt lat="45.83454" lon="3.62568">
        <ele>628.6</ele>
        <extensions>
          <visugpx:TrkExtension xmlns:visugpx="https://www.visugpx.com/editgpx/">
            <visugpx:node>11</visugpx:node>
            </visugpx:TrkExtension>
        </extensions>
      </trkpt>
      <trkpt lat="45.83454" lon="3.62568">
        <ele>628.6</ele>
      </trkpt>
      <trkpt lat="45.83466" lon="3.62583">
        <ele>628.6</ele>
      </trkpt>
      <trkpt lat="45.83476" lon="3.62598">
        <ele>628.8</ele>
      </trkpt>
      <trkpt lat="45.83484" lon="3.6261">
        <ele>628.5</ele>
      </trkpt>
      <trkpt lat="45.83492" lon="3.62616">
        <ele>628.7</ele>
      </trkpt>
      <trkpt lat="45.83504" lon="3.62618">
        <ele>629.4</ele>
      </trkpt>
      <trkpt lat="45.83516" lon="3.6262">
        <ele>630.4</ele>
      </trkpt>
      <trkpt lat="45.83525" lon="3.62622">
        <ele>631</ele>
      </trkpt>
      <trkpt lat="45.83535" lon="3.62627">
        <ele>631.3</ele>
      </trkpt>
      <trkpt lat="45.83544" lon="3.62634">
        <ele>631.4</ele>
      </trkpt>
      <trkpt lat="45.83547" lon="3.62639">
        <ele>631.4</ele>
      </trkpt>
      <trkpt lat="45.83552" lon="3.6265">
        <ele>632.2</ele>
      </trkpt>
      <trkpt lat="45.83548" lon="3.62599">
        <ele>634.7</ele>
      </trkpt>
      <trkpt lat="45.8358" lon="3.62554">
        <ele>640.3</ele>
      </trkpt>
      <trkpt lat="45.83604" lon="3.62396">
        <ele>654.5</ele>
      </trkpt>
      <trkpt lat="45.83628" lon="3.62246">
        <ele>671.7</ele>
      </trkpt>
      <trkpt lat="45.83647" lon="3.62128">
        <ele>687.9</ele>
      </trkpt>
      <trkpt lat="45.83664" lon="3.62005">
        <ele>706.8</ele>
      </trkpt>
      <trkpt lat="45.83667" lon="3.61982">
        <ele>710.7</ele>
        <extensions>
          <visugpx:TrkExtension xmlns:visugpx="https://www.visugpx.com/editgpx/">
            <visugpx:node>12</visugpx:node>
            </visugpx:TrkExtension>
        </extensions>
      </trkpt>
      <trkpt lat="45.8368" lon="3.61893">
        <ele>727.3</ele>
      </trkpt>
      <trkpt lat="45.83685" lon="3.61841">
        <ele>734.3</ele>
      </trkpt>
      <trkpt lat="45.8369" lon="3.61807">
        <ele>736.6</ele>
      </trkpt>
      <trkpt lat="45.83696" lon="3.61815">
        <ele>736.7</ele>
      </trkpt>
      <trkpt lat="45.83714" lon="3.61819">
        <ele>737.2</ele>
      </trkpt>
      <trkpt lat="45.83733" lon="3.61822">
        <ele>738</ele>
      </trkpt>
      <trkpt lat="45.83753" lon="3.6182">
        <ele>738.7</ele>
      </trkpt>
      <trkpt lat="45.83775" lon="3.6181">
        <ele>739.8</ele>
      </trkpt>
      <trkpt lat="45.83793" lon="3.61798">
        <ele>741.9</ele>
      </trkpt>
      <trkpt lat="45.83812" lon="3.61781">
        <ele>743.8</ele>
      </trkpt>
      <trkpt lat="45.83839" lon="3.61756">
        <ele>746</ele>
      </trkpt>
      <trkpt lat="45.83856" lon="3.61744">
        <ele>748.2</ele>
      </trkpt>
      <trkpt lat="45.83863" lon="3.61743">
        <ele>749.2</ele>
      </trkpt>
      <trkpt lat="45.83872" lon="3.61746">
        <ele>750.2</ele>
      </trkpt>
      <trkpt lat="45.8388" lon="3.61749">
        <ele>751.1</ele>
      </trkpt>
      <trkpt lat="45.83888" lon="3.61749">
        <ele>751.9</ele>
      </trkpt>
      <trkpt lat="45.83903" lon="3.61745">
        <ele>753.2</ele>
      </trkpt>
      <trkpt lat="45.83914" lon="3.61741">
        <ele>754.1</ele>
      </trkpt>
      <trkpt lat="45.83925" lon="3.61743">
        <ele>754.3</ele>
      </trkpt>
      <trkpt lat="45.83941" lon="3.6175">
        <ele>754</ele>
      </trkpt>
      <trkpt lat="45.83951" lon="3.61742">
        <ele>754.1</ele>
      </trkpt>
      <trkpt lat="45.83957" lon="3.61736">
        <ele>754.1</ele>
      </trkpt>
      <trkpt lat="45.83967" lon="3.61725">
        <ele>754.1</ele>
      </trkpt>
      <trkpt lat="45.8398" lon="3.61708">
        <ele>754.8</ele>
      </trkpt>
      <trkpt lat="45.83991" lon="3.61697">
        <ele>754.8</ele>
      </trkpt>
      <trkpt lat="45.84004" lon="3.61684">
        <ele>754.2</ele>
      </trkpt>
      <trkpt lat="45.8402" lon="3.61669">
        <ele>753</ele>
      </trkpt>
      <trkpt lat="45.84032" lon="3.61656">
        <ele>752</ele>
      </trkpt>
      <trkpt lat="45.84042" lon="3.61643">
        <ele>751.1</ele>
      </trkpt>
      <trkpt lat="45.84049" lon="3.61631">
        <ele>750.5</ele>
      </trkpt>
      <trkpt lat="45.8406" lon="3.61621">
        <ele>748.8</ele>
      </trkpt>
      <trkpt lat="45.84075" lon="3.61596">
        <ele>747</ele>
      </trkpt>
      <trkpt lat="45.8409" lon="3.61559">
        <ele>745.4</ele>
      </trkpt>
      <trkpt lat="45.84102" lon="3.61525">
        <ele>743.4</ele>
      </trkpt>
      <trkpt lat="45.84108" lon="3.61503">
        <ele>742.6</ele>
      </trkpt>
      <trkpt lat="45.84111" lon="3.61466">
        <ele>742.8</ele>
      </trkpt>
      <trkpt lat="45.8411" lon="3.61439">
        <ele>742</ele>
      </trkpt>
      <trkpt lat="45.8411" lon="3.61427">
        <ele>741.6</ele>
      </trkpt>
      <trkpt lat="45.84108" lon="3.61412">
        <ele>741.1</ele>
      </trkpt>
      <trkpt lat="45.84104" lon="3.61399">
        <ele>740.5</ele>
      </trkpt>
      <trkpt lat="45.84099" lon="3.61385">
        <ele>740.2</ele>
      </trkpt>
      <trkpt lat="45.84079" lon="3.61339">
        <ele>739.4</ele>
        <extensions>
          <visugpx:TrkExtension xmlns:visugpx="https://www.visugpx.com/editgpx/">
            <visugpx:node>13</visugpx:node>
            </visugpx:TrkExtension>
        </extensions>
      </trkpt>
      <trkpt lat="45.84078" lon="3.61338">
        <ele>739.4</ele>
      </trkpt>
      <trkpt lat="45.84029" lon="3.61228">
        <ele>738.9</ele>
      </trkpt>
      <trkpt lat="45.84038" lon="3.61181">
        <ele>739.1</ele>
      </trkpt>
      <trkpt lat="45.84037" lon="3.61168">
        <ele>739.9</ele>
      </trkpt>
      <trkpt lat="45.84036" lon="3.61147">
        <ele>741.5</ele>
      </trkpt>
      <trkpt lat="45.84037" lon="3.61124">
        <ele>743.4</ele>
      </trkpt>
      <trkpt lat="45.84038" lon="3.6111">
        <ele>744.6</ele>
      </trkpt>
      <trkpt lat="45.84039" lon="3.61102">
        <ele>745</ele>
      </trkpt>
      <trkpt lat="45.84041" lon="3.61091">
        <ele>745.5</ele>
      </trkpt>
      <trkpt lat="45.84044" lon="3.61081">
        <ele>745.8</ele>
      </trkpt>
      <trkpt lat="45.84048" lon="3.61067">
        <ele>745.5</ele>
      </trkpt>
      <trkpt lat="45.84052" lon="3.61058">
        <ele>745.3</ele>
      </trkpt>
      <trkpt lat="45.84056" lon="3.61045">
        <ele>745.3</ele>
      </trkpt>
      <trkpt lat="45.84059" lon="3.61031">
        <ele>745.6</ele>
      </trkpt>
      <trkpt lat="45.84061" lon="3.61018">
        <ele>745.6</ele>
      </trkpt>
      <trkpt lat="45.84066" lon="3.60987">
        <ele>745.4</ele>
      </trkpt>
      <trkpt lat="45.8407" lon="3.60953">
        <ele>746.2</ele>
      </trkpt>
      <trkpt lat="45.84078" lon="3.60904">
        <ele>746.1</ele>
      </trkpt>
      <trkpt lat="45.8408" lon="3.60889">
        <ele>746</ele>
      </trkpt>
      <trkpt lat="45.84082" lon="3.60883">
        <ele>746</ele>
      </trkpt>
      <trkpt lat="45.84084" lon="3.60877">
        <ele>746</ele>
      </trkpt>
      <trkpt lat="45.84086" lon="3.60873">
        <ele>745.9</ele>
      </trkpt>
      <trkpt lat="45.84082" lon="3.60863">
        <ele>746</ele>
      </trkpt>
      <trkpt lat="45.84079" lon="3.60843">
        <ele>745.9</ele>
      </trkpt>
      <trkpt lat="45.84078" lon="3.60829">
        <ele>745.8</ele>
      </trkpt>
      <trkpt lat="45.84077" lon="3.60819">
        <ele>745.9</ele>
      </trkpt>
      <trkpt lat="45.84076" lon="3.60804">
        <ele>746.2</ele>
      </trkpt>
      <trkpt lat="45.84072" lon="3.60781">
        <ele>748.3</ele>
      </trkpt>
      <trkpt lat="45.84069" lon="3.60765">
        <ele>749.8</ele>
      </trkpt>
      <trkpt lat="45.84065" lon="3.60755">
        <ele>750.5</ele>
      </trkpt>
      <trkpt lat="45.84054" lon="3.60737">
        <ele>752.1</ele>
      </trkpt>
      <trkpt lat="45.84044" lon="3.6072">
        <ele>753.7</ele>
      </trkpt>
      <trkpt lat="45.84031" lon="3.60697">
        <ele>755.2</ele>
      </trkpt>
      <trkpt lat="45.84024" lon="3.60684">
        <ele>756.1</ele>
      </trkpt>
      <trkpt lat="45.84017" lon="3.60674">
        <ele>756.2</ele>
      </trkpt>
      <trkpt lat="45.84013" lon="3.60667">
        <ele>756.2</ele>
      </trkpt>
      <trkpt lat="45.84009" lon="3.60648">
        <ele>757.3</ele>
      </trkpt>
      <trkpt lat="45.84006" lon="3.60636">
        <ele>757.8</ele>
      </trkpt>
      <trkpt lat="45.84001" lon="3.60618">
        <ele>758.5</ele>
      </trkpt>
      <trkpt lat="45.83992" lon="3.60591">
        <ele>758.1</ele>
      </trkpt>
      <trkpt lat="45.83987" lon="3.60571">
        <ele>758.4</ele>
      </trkpt>
      <trkpt lat="45.83983" lon="3.60549">
        <ele>759.6</ele>
      </trkpt>
      <trkpt lat="45.83977" lon="3.60526">
        <ele>759.9</ele>
      </trkpt>
      <trkpt lat="45.83968" lon="3.60502">
        <ele>760</ele>
      </trkpt>
      <trkpt lat="45.8396" lon="3.60482">
        <ele>760.8</ele>
      </trkpt>
      <trkpt lat="45.83954" lon="3.60468">
        <ele>760.9</ele>
      </trkpt>
      <trkpt lat="45.83923" lon="3.60416">
        <ele>759.5</ele>
      </trkpt>
      <trkpt lat="45.83915" lon="3.60398">
        <ele>761.7</ele>
      </trkpt>
      <trkpt lat="45.83908" lon="3.60373">
        <ele>764.1</ele>
      </trkpt>
      <trkpt lat="45.83905" lon="3.60346">
        <ele>767.3</ele>
      </trkpt>
      <trkpt lat="45.83906" lon="3.60317">
        <ele>771.3</ele>
      </trkpt>
      <trkpt lat="45.83906" lon="3.60281">
        <ele>774.9</ele>
      </trkpt>
      <trkpt lat="45.83907" lon="3.60253">
        <ele>777.3</ele>
      </trkpt>
      <trkpt lat="45.83903" lon="3.60222">
        <ele>778.5</ele>
      </trkpt>
      <trkpt lat="45.83897" lon="3.60196">
        <ele>777.1</ele>
      </trkpt>
      <trkpt lat="45.83894" lon="3.60181">
        <ele>776</ele>
      </trkpt>
      <trkpt lat="45.83876" lon="3.60137">
        <ele>773.7</ele>
      </trkpt>
      <trkpt lat="45.83871" lon="3.60119">
        <ele>776.1</ele>
      </trkpt>
      <trkpt lat="45.83864" lon="3.60105">
        <ele>777.2</ele>
      </trkpt>
      <trkpt lat="45.83855" lon="3.60086">
        <ele>779.1</ele>
      </trkpt>
      <trkpt lat="45.83843" lon="3.60065">
        <ele>781.2</ele>
      </trkpt>
      <trkpt lat="45.83824" lon="3.60035">
        <ele>783.6</ele>
      </trkpt>
      <trkpt lat="45.83801" lon="3.59998">
        <ele>785.2</ele>
      </trkpt>
      <trkpt lat="45.83788" lon="3.59973">
        <ele>785.1</ele>
      </trkpt>
      <trkpt lat="45.83776" lon="3.59944">
        <ele>785.5</ele>
      </trkpt>
      <trkpt lat="45.83769" lon="3.59922">
        <ele>785.1</ele>
      </trkpt>
      <trkpt lat="45.83762" lon="3.59896">
        <ele>784.5</ele>
      </trkpt>
      <trkpt lat="45.83758" lon="3.5988">
        <ele>783.8</ele>
      </trkpt>
      <trkpt lat="45.83756" lon="3.59863">
        <ele>783.7</ele>
      </trkpt>
      <trkpt lat="45.83755" lon="3.59847">
        <ele>782.9</ele>
        <extensions>
          <visugpx:TrkExtension xmlns:visugpx="https://www.visugpx.com/editgpx/">
            <visugpx:node>14</visugpx:node>
            </visugpx:TrkExtension>
        </extensions>
      </trkpt>
      <trkpt lat="45.83755" lon="3.59845">
        <ele>782.9</ele>
      </trkpt>
      <trkpt lat="45.83756" lon="3.59826">
        <ele>782.3</ele>
      </trkpt>
      <trkpt lat="45.83757" lon="3.5981">
        <ele>781.8</ele>
      </trkpt>
      <trkpt lat="45.83759" lon="3.59795">
        <ele>781.4</ele>
      </trkpt>
      <trkpt lat="45.83762" lon="3.59786">
        <ele>781.6</ele>
      </trkpt>
      <trkpt lat="45.83767" lon="3.59772">
        <ele>781.5</ele>
      </trkpt>
      <trkpt lat="45.83773" lon="3.59762">
        <ele>781.5</ele>
      </trkpt>
      <trkpt lat="45.83782" lon="3.59749">
        <ele>781.7</ele>
      </trkpt>
      <trkpt lat="45.83786" lon="3.59758">
        <ele>783.3</ele>
      </trkpt>
      <trkpt lat="45.83793" lon="3.59781">
        <ele>786.5</ele>
      </trkpt>
      <trkpt lat="45.83798" lon="3.59792">
        <ele>788.3</ele>
      </trkpt>
      <trkpt lat="45.83801" lon="3.59799">
        <ele>789.5</ele>
      </trkpt>
      <trkpt lat="45.83806" lon="3.59802">
        <ele>790.7</ele>
      </trkpt>
      <trkpt lat="45.83813" lon="3.59804">
        <ele>791.9</ele>
      </trkpt>
      <trkpt lat="45.8382" lon="3.59807">
        <ele>793.2</ele>
      </trkpt>
      <trkpt lat="45.83831" lon="3.59811">
        <ele>795.1</ele>
      </trkpt>
      <trkpt lat="45.83842" lon="3.59817">
        <ele>796.8</ele>
      </trkpt>
      <trkpt lat="45.83856" lon="3.59825">
        <ele>798.8</ele>
      </trkpt>
      <trkpt lat="45.83864" lon="3.5983">
        <ele>800.1</ele>
      </trkpt>
      <trkpt lat="45.83878" lon="3.59842">
        <ele>802.4</ele>
      </trkpt>
      <trkpt lat="45.83887" lon="3.59853">
        <ele>804.2</ele>
      </trkpt>
      <trkpt lat="45.83894" lon="3.5986">
        <ele>805.5</ele>
      </trkpt>
      <trkpt lat="45.83898" lon="3.59866">
        <ele>806.1</ele>
      </trkpt>
      <trkpt lat="45.83902" lon="3.59875">
        <ele>806.7</ele>
      </trkpt>
      <trkpt lat="45.83906" lon="3.59887">
        <ele>807.2</ele>
      </trkpt>
      <trkpt lat="45.8391" lon="3.599">
        <ele>807.5</ele>
      </trkpt>
      <trkpt lat="45.83916" lon="3.59913">
        <ele>808</ele>
      </trkpt>
      <trkpt lat="45.83921" lon="3.59922">
        <ele>808.3</ele>
      </trkpt>
      <trkpt lat="45.83928" lon="3.59932">
        <ele>809</ele>
      </trkpt>
      <trkpt lat="45.83929" lon="3.59934">
        <ele>809.2</ele>
      </trkpt>
      <trkpt lat="45.83934" lon="3.5994">
        <ele>809.8</ele>
      </trkpt>
      <trkpt lat="45.83943" lon="3.59949">
        <ele>810.8</ele>
      </trkpt>
      <trkpt lat="45.83958" lon="3.59962">
        <ele>812.3</ele>
      </trkpt>
      <trkpt lat="45.83971" lon="3.59974">
        <ele>813.8</ele>
      </trkpt>
      <trkpt lat="45.83994" lon="3.59999">
        <ele>815.4</ele>
      </trkpt>
      <trkpt lat="45.84011" lon="3.60016">
        <ele>816.8</ele>
      </trkpt>
      <trkpt lat="45.84023" lon="3.60028">
        <ele>817.7</ele>
      </trkpt>
      <trkpt lat="45.84043" lon="3.60043">
        <ele>819.9</ele>
      </trkpt>
      <trkpt lat="45.84053" lon="3.6005">
        <ele>820.7</ele>
      </trkpt>
      <trkpt lat="45.84065" lon="3.60057">
        <ele>821.1</ele>
      </trkpt>
      <trkpt lat="45.84085" lon="3.60065">
        <ele>821.3</ele>
      </trkpt>
      <trkpt lat="45.84103" lon="3.60071">
        <ele>820.8</ele>
      </trkpt>
      <trkpt lat="45.84117" lon="3.60074">
        <ele>820.4</ele>
      </trkpt>
      <trkpt lat="45.84124" lon="3.60076">
        <ele>820.1</ele>
      </trkpt>
      <trkpt lat="45.84128" lon="3.60076">
        <ele>819.8</ele>
      </trkpt>
      <trkpt lat="45.84134" lon="3.60075">
        <ele>819.5</ele>
      </trkpt>
      <trkpt lat="45.84142" lon="3.60073">
        <ele>819.3</ele>
      </trkpt>
      <trkpt lat="45.84152" lon="3.6007">
        <ele>819</ele>
      </trkpt>
      <trkpt lat="45.84172" lon="3.60068">
        <ele>818.4</ele>
      </trkpt>
      <trkpt lat="45.84199" lon="3.60066">
        <ele>817.9</ele>
      </trkpt>
      <trkpt lat="45.84237" lon="3.60066">
        <ele>817.9</ele>
      </trkpt>
      <trkpt lat="45.84254" lon="3.60066">
        <ele>818</ele>
      </trkpt>
      <trkpt lat="45.84281" lon="3.60065">
        <ele>818.8</ele>
      </trkpt>
      <trkpt lat="45.84296" lon="3.60063">
        <ele>818.4</ele>
      </trkpt>
      <trkpt lat="45.84307" lon="3.6006">
        <ele>818.2</ele>
        <extensions>
          <visugpx:TrkExtension xmlns:visugpx="https://www.visugpx.com/editgpx/">
            <visugpx:node>15</visugpx:node>
            </visugpx:TrkExtension>
        </extensions>
      </trkpt>
      <trkpt lat="45.84317" lon="3.60057">
        <ele>817.2</ele>
      </trkpt>
      <trkpt lat="45.84336" lon="3.6005">
        <ele>815.1</ele>
      </trkpt>
      <trkpt lat="45.84356" lon="3.60039">
        <ele>813.2</ele>
      </trkpt>
      <trkpt lat="45.84374" lon="3.60026">
        <ele>811.4</ele>
      </trkpt>
      <trkpt lat="45.84389" lon="3.60011">
        <ele>809.8</ele>
      </trkpt>
      <trkpt lat="45.84402" lon="3.59991">
        <ele>810.3</ele>
      </trkpt>
      <trkpt lat="45.84408" lon="3.59982">
        <ele>810</ele>
      </trkpt>
      <trkpt lat="45.84418" lon="3.5998">
        <ele>808.7</ele>
      </trkpt>
      <trkpt lat="45.84425" lon="3.59981">
        <ele>808.6</ele>
      </trkpt>
      <trkpt lat="45.84435" lon="3.59983">
        <ele>808.4</ele>
      </trkpt>
      <trkpt lat="45.8444" lon="3.59983">
        <ele>808.3</ele>
      </trkpt>
      <trkpt lat="45.84447" lon="3.59982">
        <ele>808.3</ele>
      </trkpt>
      <trkpt lat="45.84458" lon="3.59979">
        <ele>808.6</ele>
      </trkpt>
      <trkpt lat="45.84475" lon="3.59974">
        <ele>808.9</ele>
      </trkpt>
      <trkpt lat="45.84484" lon="3.59971">
        <ele>809</ele>
      </trkpt>
      <trkpt lat="45.84489" lon="3.59968">
        <ele>809</ele>
      </trkpt>
      <trkpt lat="45.84493" lon="3.59965">
        <ele>809</ele>
      </trkpt>
      <trkpt lat="45.84497" lon="3.5996">
        <ele>809</ele>
      </trkpt>
      <trkpt lat="45.84524" lon="3.59994">
        <ele>809.9</ele>
      </trkpt>
      <trkpt lat="45.8456" lon="3.60038">
        <ele>810.4</ele>
      </trkpt>
      <trkpt lat="45.84573" lon="3.60051">
        <ele>810</ele>
      </trkpt>
      <trkpt lat="45.8458" lon="3.6006">
        <ele>809.4</ele>
      </trkpt>
      <trkpt lat="45.84586" lon="3.60064">
        <ele>808.9</ele>
      </trkpt>
      <trkpt lat="45.84593" lon="3.60065">
        <ele>808.3</ele>
      </trkpt>
      <trkpt lat="45.84627" lon="3.60062">
        <ele>805</ele>
      </trkpt>
      <trkpt lat="45.84683" lon="3.60045">
        <ele>801.2</ele>
      </trkpt>
      <trkpt lat="45.84752" lon="3.6002">
        <ele>797.9</ele>
      </trkpt>
      <trkpt lat="45.84797" lon="3.6">
        <ele>795.9</ele>
      </trkpt>
      <trkpt lat="45.84823" lon="3.5998">
        <ele>794.3</ele>
      </trkpt>
      <trkpt lat="45.84861" lon="3.59947">
        <ele>794.6</ele>
      </trkpt>
      <trkpt lat="45.84883" lon="3.59923">
        <ele>794</ele>
      </trkpt>
      <trkpt lat="45.84902" lon="3.59898">
        <ele>793.9</ele>
      </trkpt>
      <trkpt lat="45.84913" lon="3.59872">
        <ele>794</ele>
      </trkpt>
      <trkpt lat="45.84926" lon="3.59838">
        <ele>793.3</ele>
      </trkpt>
      <trkpt lat="45.84929" lon="3.59828">
        <ele>793.1</ele>
      </trkpt>
      <trkpt lat="45.84956" lon="3.59836">
        <ele>791.4</ele>
      </trkpt>
      <trkpt lat="45.84966" lon="3.59837">
        <ele>791</ele>
      </trkpt>
      <trkpt lat="45.84972" lon="3.59837">
        <ele>790.7</ele>
      </trkpt>
      <trkpt lat="45.84978" lon="3.59835">
        <ele>790.5</ele>
      </trkpt>
      <trkpt lat="45.84982" lon="3.59831">
        <ele>790.3</ele>
      </trkpt>
      <trkpt lat="45.84987" lon="3.59825">
        <ele>789.9</ele>
      </trkpt>
      <trkpt lat="45.84998" lon="3.59812">
        <ele>789.1</ele>
      </trkpt>
      <trkpt lat="45.85003" lon="3.59807">
        <ele>788.8</ele>
      </trkpt>
      <trkpt lat="45.85009" lon="3.59806">
        <ele>788.4</ele>
      </trkpt>
      <trkpt lat="45.85013" lon="3.59806">
        <ele>788.1</ele>
      </trkpt>
      <trkpt lat="45.85015" lon="3.59807">
        <ele>787.9</ele>
      </trkpt>
      <trkpt lat="45.85018" lon="3.59809">
        <ele>787.7</ele>
      </trkpt>
      <trkpt lat="45.8502" lon="3.59811">
        <ele>787.6</ele>
      </trkpt>
      <trkpt lat="45.85041" lon="3.59849">
        <ele>786</ele>
      </trkpt>
      <trkpt lat="45.85048" lon="3.59858">
        <ele>785.5</ele>
      </trkpt>
      <trkpt lat="45.85053" lon="3.59866">
        <ele>785</ele>
      </trkpt>
      <trkpt lat="45.85056" lon="3.59862">
        <ele>785</ele>
      </trkpt>
      <trkpt lat="45.85059" lon="3.59854">
        <ele>784.8</ele>
      </trkpt>
      <trkpt lat="45.85061" lon="3.59845">
        <ele>784.7</ele>
      </trkpt>
      <trkpt lat="45.85063" lon="3.59821">
        <ele>784.3</ele>
      </trkpt>
      <trkpt lat="45.85068" lon="3.59792">
        <ele>783.2</ele>
      </trkpt>
      <trkpt lat="45.8507" lon="3.59774">
        <ele>782.3</ele>
      </trkpt>
      <trkpt lat="45.8507" lon="3.59742">
        <ele>780.7</ele>
      </trkpt>
      <trkpt lat="45.85075" lon="3.59715">
        <ele>777.9</ele>
      </trkpt>
      <trkpt lat="45.85094" lon="3.59663">
        <ele>771.5</ele>
      </trkpt>
      <trkpt lat="45.85105" lon="3.59633">
        <ele>767</ele>
      </trkpt>
      <trkpt lat="45.85116" lon="3.59604">
        <ele>762.9</ele>
      </trkpt>
      <trkpt lat="45.85132" lon="3.59554">
        <ele>756.3</ele>
      </trkpt>
      <trkpt lat="45.85147" lon="3.5951">
        <ele>749.8</ele>
      </trkpt>
      <trkpt lat="45.85154" lon="3.59488">
        <ele>747.1</ele>
      </trkpt>
      <trkpt lat="45.85157" lon="3.59477">
        <ele>745.6</ele>
      </trkpt>
      <trkpt lat="45.8516" lon="3.59464">
        <ele>744.4</ele>
      </trkpt>
      <trkpt lat="45.85172" lon="3.59416">
        <ele>741.6</ele>
      </trkpt>
      <trkpt lat="45.85181" lon="3.59378">
        <ele>740.3</ele>
      </trkpt>
      <trkpt lat="45.85184" lon="3.59368">
        <ele>740.1</ele>
      </trkpt>
      <trkpt lat="45.85186" lon="3.59361">
        <ele>740</ele>
      </trkpt>
      <trkpt lat="45.85189" lon="3.59355">
        <ele>739.7</ele>
      </trkpt>
      <trkpt lat="45.8519" lon="3.59354">
        <ele>739.7</ele>
      </trkpt>
      <trkpt lat="45.85195" lon="3.59344">
        <ele>739.4</ele>
      </trkpt>
      <trkpt lat="45.85198" lon="3.59337">
        <ele>739.2</ele>
      </trkpt>
      <trkpt lat="45.85199" lon="3.59334">
        <ele>739.2</ele>
      </trkpt>
      <trkpt lat="45.852" lon="3.59328">
        <ele>739.2</ele>
      </trkpt>
      <trkpt lat="45.852" lon="3.59314">
        <ele>739.2</ele>
      </trkpt>
      <trkpt lat="45.852" lon="3.59305">
        <ele>739.2</ele>
      </trkpt>
      <trkpt lat="45.852" lon="3.59297">
        <ele>738.6</ele>
      </trkpt>
      <trkpt lat="45.85199" lon="3.59278">
        <ele>737.2</ele>
      </trkpt>
      <trkpt lat="45.85199" lon="3.59268">
        <ele>736.2</ele>
      </trkpt>
      <trkpt lat="45.85206" lon="3.59244">
        <ele>734</ele>
      </trkpt>
      <trkpt lat="45.85211" lon="3.59231">
        <ele>732.5</ele>
      </trkpt>
      <trkpt lat="45.85215" lon="3.5922">
        <ele>731.2</ele>
      </trkpt>
      <trkpt lat="45.85221" lon="3.5921">
        <ele>730.2</ele>
      </trkpt>
      <trkpt lat="45.85227" lon="3.59204">
        <ele>729.2</ele>
      </trkpt>
      <trkpt lat="45.85238" lon="3.59191">
        <ele>726.7</ele>
      </trkpt>
      <trkpt lat="45.85249" lon="3.5916">
        <ele>720.1</ele>
      </trkpt>
      <trkpt lat="45.85242" lon="3.59138">
        <ele>717.1</ele>
      </trkpt>
      <trkpt lat="45.8521" lon="3.59115">
        <ele>711.4</ele>
      </trkpt>
      <trkpt lat="45.85201" lon="3.59107">
        <ele>709.3</ele>
      </trkpt>
      <trkpt lat="45.85187" lon="3.59092">
        <ele>704.4</ele>
      </trkpt>
      <trkpt lat="45.85187" lon="3.59075">
        <ele>701.2</ele>
      </trkpt>
      <trkpt lat="45.8519" lon="3.59043">
        <ele>695.7</ele>
      </trkpt>
      <trkpt lat="45.85191" lon="3.59023">
        <ele>691.9</ele>
      </trkpt>
      <trkpt lat="45.85191" lon="3.5901">
        <ele>690.1</ele>
      </trkpt>
      <trkpt lat="45.85191" lon="3.58998">
        <ele>688.3</ele>
      </trkpt>
      <trkpt lat="45.85187" lon="3.58984">
        <ele>685.9</ele>
      </trkpt>
      <trkpt lat="45.85181" lon="3.58968">
        <ele>682.9</ele>
      </trkpt>
      <trkpt lat="45.85168" lon="3.58941">
        <ele>677.8</ele>
      </trkpt>
      <trkpt lat="45.85164" lon="3.58932">
        <ele>676.2</ele>
      </trkpt>
      <trkpt lat="45.85164" lon="3.58904">
        <ele>672.7</ele>
      </trkpt>
      <trkpt lat="45.85163" lon="3.58893">
        <ele>670.9</ele>
      </trkpt>
      <trkpt lat="45.85161" lon="3.58886">
        <ele>669.6</ele>
      </trkpt>
      <trkpt lat="45.85152" lon="3.58871">
        <ele>666.1</ele>
      </trkpt>
      <trkpt lat="45.8514" lon="3.58856">
        <ele>662.4</ele>
      </trkpt>
      <trkpt lat="45.85121" lon="3.5884">
        <ele>656.6</ele>
      </trkpt>
      <trkpt lat="45.85089" lon="3.58818">
        <ele>647.7</ele>
      </trkpt>
      <trkpt lat="45.85077" lon="3.58807">
        <ele>644.2</ele>
      </trkpt>
      <trkpt lat="45.85071" lon="3.58797">
        <ele>642.1</ele>
      </trkpt>
      <trkpt lat="45.8507" lon="3.58784">
        <ele>641.4</ele>
      </trkpt>
      <trkpt lat="45.85072" lon="3.58775">
        <ele>641.2</ele>
      </trkpt>
      <trkpt lat="45.85076" lon="3.58766">
        <ele>640.7</ele>
      </trkpt>
      <trkpt lat="45.85082" lon="3.58758">
        <ele>640.3</ele>
      </trkpt>
      <trkpt lat="45.85084" lon="3.58751">
        <ele>639.2</ele>
      </trkpt>
      <trkpt lat="45.85086" lon="3.5874">
        <ele>636.5</ele>
      </trkpt>
      <trkpt lat="45.85085" lon="3.58726">
        <ele>633</ele>
      </trkpt>
      <trkpt lat="45.85082" lon="3.58714">
        <ele>629.7</ele>
      </trkpt>
      <trkpt lat="45.85075" lon="3.58692">
        <ele>623.4</ele>
      </trkpt>
      <trkpt lat="45.85081" lon="3.58695">
        <ele>624.2</ele>
      </trkpt>
      <trkpt lat="45.85086" lon="3.58698">
        <ele>625</ele>
      </trkpt>
      <trkpt lat="45.85094" lon="3.587">
        <ele>625.6</ele>
      </trkpt>
      <trkpt lat="45.85101" lon="3.58701">
        <ele>625.9</ele>
      </trkpt>
      <trkpt lat="45.85111" lon="3.58698">
        <ele>625</ele>
      </trkpt>
      <trkpt lat="45.85127" lon="3.58696">
        <ele>624.5</ele>
      </trkpt>
      <trkpt lat="45.8513" lon="3.58696">
        <ele>624.6</ele>
      </trkpt>
      <trkpt lat="45.85134" lon="3.587">
        <ele>626.1</ele>
      </trkpt>
      <trkpt lat="45.85144" lon="3.58703">
        <ele>627.5</ele>
      </trkpt>
      <trkpt lat="45.85172" lon="3.5871">
        <ele>630.4</ele>
      </trkpt>
      <trkpt lat="45.8518" lon="3.58712">
        <ele>630.8</ele>
      </trkpt>
      <trkpt lat="45.85187" lon="3.58712">
        <ele>630.6</ele>
      </trkpt>
      <trkpt lat="45.85198" lon="3.58709">
        <ele>629.1</ele>
      </trkpt>
      <trkpt lat="45.85214" lon="3.58707">
        <ele>627.8</ele>
      </trkpt>
      <trkpt lat="45.85225" lon="3.58706">
        <ele>626.5</ele>
      </trkpt>
      <trkpt lat="45.85237" lon="3.58708">
        <ele>624.4</ele>
      </trkpt>
      <trkpt lat="45.85248" lon="3.58713">
        <ele>623.5</ele>
      </trkpt>
      <trkpt lat="45.85265" lon="3.58723">
        <ele>624.1</ele>
      </trkpt>
      <trkpt lat="45.8527" lon="3.58725">
        <ele>624</ele>
      </trkpt>
      <trkpt lat="45.8528" lon="3.58728">
        <ele>623.7</ele>
      </trkpt>
      <trkpt lat="45.85287" lon="3.58729">
        <ele>623.6</ele>
      </trkpt>
      <trkpt lat="45.85312" lon="3.58731">
        <ele>622.5</ele>
      </trkpt>
      <trkpt lat="45.8532" lon="3.58732">
        <ele>622.1</ele>
      </trkpt>
      <trkpt lat="45.85338" lon="3.58741">
        <ele>623.7</ele>
      </trkpt>
      <trkpt lat="45.85354" lon="3.58748">
        <ele>623.6</ele>
      </trkpt>
      <trkpt lat="45.85369" lon="3.58753">
        <ele>622.7</ele>
      </trkpt>
      <trkpt lat="45.85383" lon="3.58757">
        <ele>621.9</ele>
      </trkpt>
      <trkpt lat="45.85394" lon="3.58765">
        <ele>622.4</ele>
      </trkpt>
      <trkpt lat="45.85407" lon="3.58774">
        <ele>622.2</ele>
      </trkpt>
      <trkpt lat="45.85416" lon="3.58782">
        <ele>622.1</ele>
      </trkpt>
      <trkpt lat="45.85423" lon="3.58791">
        <ele>621.8</ele>
      </trkpt>
      <trkpt lat="45.8543" lon="3.58799">
        <ele>620.8</ele>
      </trkpt>
      <trkpt lat="45.85434" lon="3.58808">
        <ele>620.3</ele>
      </trkpt>
      <trkpt lat="45.85437" lon="3.58828">
        <ele>620.4</ele>
      </trkpt>
      <trkpt lat="45.85438" lon="3.5884">
        <ele>621.2</ele>
      </trkpt>
      <trkpt lat="45.85437" lon="3.5885">
        <ele>623.2</ele>
      </trkpt>
      <trkpt lat="45.85439" lon="3.58864">
        <ele>624.5</ele>
      </trkpt>
      <trkpt lat="45.85441" lon="3.5888">
        <ele>627.8</ele>
      </trkpt>
      <trkpt lat="45.85443" lon="3.58886">
        <ele>628.7</ele>
      </trkpt>
      <trkpt lat="45.85445" lon="3.58893">
        <ele>629.9</ele>
      </trkpt>
      <trkpt lat="45.8545" lon="3.58902">
        <ele>631.3</ele>
      </trkpt>
      <trkpt lat="45.85461" lon="3.58914">
        <ele>632.3</ele>
      </trkpt>
      <trkpt lat="45.85467" lon="3.58922">
        <ele>633.1</ele>
      </trkpt>
      <trkpt lat="45.85472" lon="3.58927">
        <ele>633.3</ele>
      </trkpt>
      <trkpt lat="45.8548" lon="3.58927">
        <ele>634.5</ele>
      </trkpt>
      <trkpt lat="45.85484" lon="3.58925">
        <ele>634.6</ele>
      </trkpt>
      <trkpt lat="45.8549" lon="3.58923">
        <ele>635.1</ele>
      </trkpt>
      <trkpt lat="45.85498" lon="3.58922">
        <ele>636</ele>
      </trkpt>
      <trkpt lat="45.85508" lon="3.58921">
        <ele>635.5</ele>
      </trkpt>
      <trkpt lat="45.85516" lon="3.58922">
        <ele>635.2</ele>
      </trkpt>
      <trkpt lat="45.85538" lon="3.58929">
        <ele>634.2</ele>
      </trkpt>
      <trkpt lat="45.85545" lon="3.5893">
        <ele>633.2</ele>
      </trkpt>
      <trkpt lat="45.85554" lon="3.58932">
        <ele>632.2</ele>
      </trkpt>
      <trkpt lat="45.8556" lon="3.58934">
        <ele>631.8</ele>
      </trkpt>
      <trkpt lat="45.85566" lon="3.58939">
        <ele>632.1</ele>
      </trkpt>
      <trkpt lat="45.85576" lon="3.58943">
        <ele>631.2</ele>
      </trkpt>
      <trkpt lat="45.85585" lon="3.58944">
        <ele>630.3</ele>
      </trkpt>
      <trkpt lat="45.85593" lon="3.5894">
        <ele>631.5</ele>
      </trkpt>
      <trkpt lat="45.85599" lon="3.5893">
        <ele>631.5</ele>
      </trkpt>
      <trkpt lat="45.85607" lon="3.5891">
        <ele>631.4</ele>
      </trkpt>
      <trkpt lat="45.85612" lon="3.58889">
        <ele>630.2</ele>
      </trkpt>
      <trkpt lat="45.8562" lon="3.58869">
        <ele>627.7</ele>
      </trkpt>
      <trkpt lat="45.85632" lon="3.58843">
        <ele>626</ele>
      </trkpt>
      <trkpt lat="45.85643" lon="3.5882">
        <ele>623.9</ele>
      </trkpt>
      <trkpt lat="45.85651" lon="3.58805">
        <ele>622</ele>
      </trkpt>
      <trkpt lat="45.85661" lon="3.58792">
        <ele>620.2</ele>
      </trkpt>
      <trkpt lat="45.85676" lon="3.58772">
        <ele>615.9</ele>
      </trkpt>
      <trkpt lat="45.85688" lon="3.58759">
        <ele>612.1</ele>
      </trkpt>
      <trkpt lat="45.85692" lon="3.58756">
        <ele>611.1</ele>
        <extensions>
          <visugpx:TrkExtension xmlns:visugpx="https://www.visugpx.com/editgpx/">
            <visugpx:node>16</visugpx:node>
            </visugpx:TrkExtension>
        </extensions>
      </trkpt>
      <trkpt lat="45.85693" lon="3.58754">
        <ele>610.4</ele>
      </trkpt>
      <trkpt lat="45.85697" lon="3.58752">
        <ele>609.6</ele>
      </trkpt>
      <trkpt lat="45.85707" lon="3.58746">
        <ele>607.2</ele>
      </trkpt>
      <trkpt lat="45.85738" lon="3.58737">
        <ele>602.8</ele>
      </trkpt>
      <trkpt lat="45.85765" lon="3.58729">
        <ele>598.8</ele>
      </trkpt>
      <trkpt lat="45.85777" lon="3.58728">
        <ele>597.9</ele>
      </trkpt>
      <trkpt lat="45.85785" lon="3.58727">
        <ele>596.5</ele>
      </trkpt>
      <trkpt lat="45.85808" lon="3.58726">
        <ele>592.6</ele>
      </trkpt>
      <trkpt lat="45.85818" lon="3.58725">
        <ele>590.6</ele>
      </trkpt>
      <trkpt lat="45.85825" lon="3.58724">
        <ele>589</ele>
      </trkpt>
      <trkpt lat="45.85834" lon="3.58727">
        <ele>588.2</ele>
      </trkpt>
      <trkpt lat="45.85843" lon="3.5873">
        <ele>586.4</ele>
      </trkpt>
      <trkpt lat="45.85853" lon="3.58735">
        <ele>584.4</ele>
      </trkpt>
      <trkpt lat="45.8586" lon="3.58737">
        <ele>582.5</ele>
      </trkpt>
      <trkpt lat="45.85867" lon="3.58739">
        <ele>580.9</ele>
      </trkpt>
      <trkpt lat="45.85879" lon="3.58743">
        <ele>578.5</ele>
      </trkpt>
      <trkpt lat="45.85883" lon="3.5874">
        <ele>577</ele>
      </trkpt>
      <trkpt lat="45.8589" lon="3.58738">
        <ele>575.1</ele>
      </trkpt>
      <trkpt lat="45.85907" lon="3.58732">
        <ele>572</ele>
      </trkpt>
      <trkpt lat="45.85916" lon="3.58729">
        <ele>570.3</ele>
      </trkpt>
      <trkpt lat="45.85926" lon="3.58724">
        <ele>569.3</ele>
      </trkpt>
      <trkpt lat="45.85936" lon="3.58717">
        <ele>568.1</ele>
      </trkpt>
      <trkpt lat="45.85944" lon="3.5871">
        <ele>567.2</ele>
      </trkpt>
      <trkpt lat="45.85953" lon="3.58703">
        <ele>566.1</ele>
      </trkpt>
      <trkpt lat="45.85959" lon="3.58698">
        <ele>565.1</ele>
      </trkpt>
      <trkpt lat="45.85972" lon="3.58685">
        <ele>563.7</ele>
      </trkpt>
      <trkpt lat="45.85973" lon="3.58687">
        <ele>563.7</ele>
      </trkpt>
      <trkpt lat="45.85975" lon="3.58689">
        <ele>563.7</ele>
      </trkpt>
      <trkpt lat="45.85984" lon="3.58693">
        <ele>563.5</ele>
      </trkpt>
      <trkpt lat="45.85996" lon="3.58699">
        <ele>563.6</ele>
      </trkpt>
      <trkpt lat="45.86001" lon="3.58701">
        <ele>563.2</ele>
      </trkpt>
      <trkpt lat="45.86002" lon="3.58705">
        <ele>563.2</ele>
      </trkpt>
      <trkpt lat="45.86004" lon="3.58709">
        <ele>563</ele>
      </trkpt>
      <trkpt lat="45.86006" lon="3.58714">
        <ele>562.7</ele>
      </trkpt>
      <trkpt lat="45.86007" lon="3.5872">
        <ele>562.6</ele>
      </trkpt>
      <trkpt lat="45.86008" lon="3.58726">
        <ele>562.8</ele>
      </trkpt>
      <trkpt lat="45.8601" lon="3.58741">
        <ele>563.8</ele>
      </trkpt>
      <trkpt lat="45.86013" lon="3.58753">
        <ele>564.4</ele>
      </trkpt>
      <trkpt lat="45.86017" lon="3.58765">
        <ele>564.4</ele>
      </trkpt>
      <trkpt lat="45.86022" lon="3.58806">
        <ele>566.3</ele>
      </trkpt>
      <trkpt lat="45.86022" lon="3.58825">
        <ele>567.1</ele>
      </trkpt>
      <trkpt lat="45.86018" lon="3.58853">
        <ele>569.2</ele>
      </trkpt>
      <trkpt lat="45.86016" lon="3.58868">
        <ele>570.5</ele>
      </trkpt>
      <trkpt lat="45.86016" lon="3.58952">
        <ele>578.6</ele>
      </trkpt>
      <trkpt lat="45.86015" lon="3.5897">
        <ele>580.9</ele>
      </trkpt>
      <trkpt lat="45.86009" lon="3.59008">
        <ele>586.4</ele>
      </trkpt>
      <trkpt lat="45.86008" lon="3.59027">
        <ele>589</ele>
      </trkpt>
      <trkpt lat="45.86011" lon="3.59039">
        <ele>589.9</ele>
      </trkpt>
      <trkpt lat="45.86019" lon="3.59051">
        <ele>590</ele>
      </trkpt>
      <trkpt lat="45.86034" lon="3.5907">
        <ele>591.2</ele>
      </trkpt>
      <trkpt lat="45.86053" lon="3.59095">
        <ele>594.3</ele>
      </trkpt>
      <trkpt lat="45.86068" lon="3.59116">
        <ele>596.8</ele>
      </trkpt>
      <trkpt lat="45.86086" lon="3.59144">
        <ele>599.9</ele>
      </trkpt>
      <trkpt lat="45.86099" lon="3.59171">
        <ele>603.8</ele>
      </trkpt>
      <trkpt lat="45.8612" lon="3.59217">
        <ele>608.1</ele>
      </trkpt>
      <trkpt lat="45.86144" lon="3.59267">
        <ele>618.4</ele>
      </trkpt>
      <trkpt lat="45.86164" lon="3.59326">
        <ele>627.1</ele>
      </trkpt>
      <trkpt lat="45.86179" lon="3.59377">
        <ele>635.1</ele>
      </trkpt>
      <trkpt lat="45.86182" lon="3.59395">
        <ele>637.9</ele>
      </trkpt>
      <trkpt lat="45.86183" lon="3.59411">
        <ele>639.9</ele>
      </trkpt>
      <trkpt lat="45.86183" lon="3.59428">
        <ele>642.1</ele>
      </trkpt>
      <trkpt lat="45.8618" lon="3.59477">
        <ele>645.5</ele>
      </trkpt>
      <trkpt lat="45.86174" lon="3.59502">
        <ele>646.4</ele>
      </trkpt>
      <trkpt lat="45.86166" lon="3.59546">
        <ele>648.9</ele>
      </trkpt>
      <trkpt lat="45.86157" lon="3.59594">
        <ele>650.1</ele>
      </trkpt>
      <trkpt lat="45.86152" lon="3.59609">
        <ele>650.5</ele>
      </trkpt>
      <trkpt lat="45.86148" lon="3.59616">
        <ele>650.7</ele>
      </trkpt>
      <trkpt lat="45.86144" lon="3.59621">
        <ele>651</ele>
      </trkpt>
      <trkpt lat="45.86139" lon="3.59626">
        <ele>651.7</ele>
      </trkpt>
      <trkpt lat="45.86134" lon="3.59648">
        <ele>650.2</ele>
      </trkpt>
      <trkpt lat="45.86133" lon="3.59658">
        <ele>649.6</ele>
      </trkpt>
      <trkpt lat="45.86134" lon="3.59681">
        <ele>649</ele>
      </trkpt>
      <trkpt lat="45.86136" lon="3.59693">
        <ele>649</ele>
      </trkpt>
      <trkpt lat="45.8614" lon="3.59706">
        <ele>648.9</ele>
      </trkpt>
      <trkpt lat="45.86144" lon="3.59716">
        <ele>649</ele>
      </trkpt>
      <trkpt lat="45.86152" lon="3.59717">
        <ele>647</ele>
      </trkpt>
      <trkpt lat="45.86158" lon="3.59718">
        <ele>645.6</ele>
      </trkpt>
      <trkpt lat="45.86173" lon="3.59726">
        <ele>642.8</ele>
      </trkpt>
      <trkpt lat="45.86182" lon="3.59731">
        <ele>641.1</ele>
      </trkpt>
      <trkpt lat="45.86206" lon="3.59745">
        <ele>637.3</ele>
      </trkpt>
      <trkpt lat="45.86229" lon="3.59754">
        <ele>634.4</ele>
      </trkpt>
      <trkpt lat="45.86231" lon="3.59754">
        <ele>634</ele>
        <extensions>
          <visugpx:TrkExtension xmlns:visugpx="https://www.visugpx.com/editgpx/">
            <visugpx:node>17</visugpx:node>
            </visugpx:TrkExtension>
        </extensions>
      </trkpt>
      <trkpt lat="45.86252" lon="3.59758">
        <ele>631.2</ele>
      </trkpt>
      <trkpt lat="45.86283" lon="3.59761">
        <ele>627.5</ele>
      </trkpt>
      <trkpt lat="45.863" lon="3.59762">
        <ele>626.1</ele>
      </trkpt>
      <trkpt lat="45.86317" lon="3.59763">
        <ele>624.6</ele>
      </trkpt>
      <trkpt lat="45.86362" lon="3.59764">
        <ele>621.5</ele>
      </trkpt>
      <trkpt lat="45.86393" lon="3.59768">
        <ele>620.1</ele>
      </trkpt>
      <trkpt lat="45.86414" lon="3.59772">
        <ele>619</ele>
      </trkpt>
      <trkpt lat="45.8643" lon="3.59779">
        <ele>618.4</ele>
      </trkpt>
      <trkpt lat="45.86449" lon="3.59789">
        <ele>617.5</ele>
      </trkpt>
      <trkpt lat="45.86473" lon="3.59812">
        <ele>617</ele>
      </trkpt>
      <trkpt lat="45.86494" lon="3.59837">
        <ele>615.4</ele>
      </trkpt>
      <trkpt lat="45.86521" lon="3.59871">
        <ele>614.1</ele>
      </trkpt>
      <trkpt lat="45.8654" lon="3.5989">
        <ele>612.5</ele>
      </trkpt>
      <trkpt lat="45.86549" lon="3.59892">
        <ele>610.9</ele>
      </trkpt>
      <trkpt lat="45.86553" lon="3.59891">
        <ele>609.9</ele>
      </trkpt>
      <trkpt lat="45.86554" lon="3.59883">
        <ele>608.5</ele>
      </trkpt>
      <trkpt lat="45.86552" lon="3.59868">
        <ele>606.8</ele>
      </trkpt>
      <trkpt lat="45.86542" lon="3.59844">
        <ele>605.1</ele>
      </trkpt>
      <trkpt lat="45.86533" lon="3.59812">
        <ele>602.6</ele>
      </trkpt>
      <trkpt lat="45.86526" lon="3.59777">
        <ele>600.3</ele>
      </trkpt>
      <trkpt lat="45.86521" lon="3.59752">
        <ele>599.4</ele>
      </trkpt>
      <trkpt lat="45.86513" lon="3.59728">
        <ele>598.3</ele>
      </trkpt>
      <trkpt lat="45.86505" lon="3.59713">
        <ele>597.8</ele>
      </trkpt>
      <trkpt lat="45.86495" lon="3.59703">
        <ele>597.6</ele>
      </trkpt>
      <trkpt lat="45.8648" lon="3.59692">
        <ele>596.9</ele>
      </trkpt>
      <trkpt lat="45.86454" lon="3.59683">
        <ele>595.9</ele>
      </trkpt>
      <trkpt lat="45.8643" lon="3.59671">
        <ele>594.5</ele>
      </trkpt>
      <trkpt lat="45.86395" lon="3.59651">
        <ele>594.4</ele>
      </trkpt>
      <trkpt lat="45.86389" lon="3.59647">
        <ele>594.4</ele>
      </trkpt>
      <trkpt lat="45.86382" lon="3.5964">
        <ele>593.9</ele>
      </trkpt>
      <trkpt lat="45.8638" lon="3.59637">
        <ele>593.8</ele>
      </trkpt>
      <trkpt lat="45.86378" lon="3.59633">
        <ele>593.7</ele>
      </trkpt>
      <trkpt lat="45.86376" lon="3.5963">
        <ele>593.7</ele>
      </trkpt>
      <trkpt lat="45.86376" lon="3.59625">
        <ele>593.4</ele>
      </trkpt>
      <trkpt lat="45.86376" lon="3.59619">
        <ele>592.9</ele>
      </trkpt>
      <trkpt lat="45.86378" lon="3.59613">
        <ele>592.1</ele>
      </trkpt>
      <trkpt lat="45.86381" lon="3.59606">
        <ele>592.3</ele>
      </trkpt>
      <trkpt lat="45.86387" lon="3.596">
        <ele>592</ele>
      </trkpt>
      <trkpt lat="45.86394" lon="3.59595">
        <ele>591.2</ele>
      </trkpt>
      <trkpt lat="45.86402" lon="3.59591">
        <ele>589.9</ele>
      </trkpt>
      <trkpt lat="45.86412" lon="3.59587">
        <ele>587.9</ele>
      </trkpt>
      <trkpt lat="45.86423" lon="3.59583">
        <ele>585.5</ele>
      </trkpt>
      <trkpt lat="45.86434" lon="3.59578">
        <ele>583.4</ele>
      </trkpt>
      <trkpt lat="45.86448" lon="3.5957">
        <ele>581.3</ele>
      </trkpt>
      <trkpt lat="45.86457" lon="3.59563">
        <ele>580.8</ele>
      </trkpt>
      <trkpt lat="45.86464" lon="3.59559">
        <ele>580.1</ele>
      </trkpt>
      <trkpt lat="45.86469" lon="3.59553">
        <ele>579.9</ele>
      </trkpt>
      <trkpt lat="45.86474" lon="3.59549">
        <ele>579.4</ele>
      </trkpt>
      <trkpt lat="45.86478" lon="3.59547">
        <ele>578.9</ele>
      </trkpt>
      <trkpt lat="45.86484" lon="3.59546">
        <ele>577.9</ele>
      </trkpt>
      <trkpt lat="45.86494" lon="3.59546">
        <ele>576.1</ele>
      </trkpt>
      <trkpt lat="45.86501" lon="3.59546">
        <ele>574.9</ele>
      </trkpt>
      <trkpt lat="45.86506" lon="3.59545">
        <ele>574.2</ele>
      </trkpt>
      <trkpt lat="45.8651" lon="3.59542">
        <ele>573.8</ele>
      </trkpt>
      <trkpt lat="45.86514" lon="3.59539">
        <ele>573.5</ele>
      </trkpt>
      <trkpt lat="45.86516" lon="3.59537">
        <ele>573.3</ele>
      </trkpt>
      <trkpt lat="45.8652" lon="3.59532">
        <ele>573.1</ele>
      </trkpt>
      <trkpt lat="45.86524" lon="3.59524">
        <ele>573</ele>
      </trkpt>
      <trkpt lat="45.86529" lon="3.59519">
        <ele>572.5</ele>
      </trkpt>
      <trkpt lat="45.86535" lon="3.59514">
        <ele>572.3</ele>
      </trkpt>
      <trkpt lat="45.86542" lon="3.59512">
        <ele>571.8</ele>
      </trkpt>
      <trkpt lat="45.86549" lon="3.59511">
        <ele>571.2</ele>
      </trkpt>
      <trkpt lat="45.86557" lon="3.59511">
        <ele>570.5</ele>
      </trkpt>
      <trkpt lat="45.86566" lon="3.59512">
        <ele>569.6</ele>
      </trkpt>
      <trkpt lat="45.8657" lon="3.59514">
        <ele>569.2</ele>
        <extensions>
          <visugpx:TrkExtension xmlns:visugpx="https://www.visugpx.com/editgpx/">
            <visugpx:node>18</visugpx:node>
            </visugpx:TrkExtension>
        </extensions>
      </trkpt>
      <trkpt lat="45.86575" lon="3.59515">
        <ele>568.7</ele>
      </trkpt>
      <trkpt lat="45.86582" lon="3.59519">
        <ele>568.1</ele>
      </trkpt>
      <trkpt lat="45.86589" lon="3.59526">
        <ele>567</ele>
      </trkpt>
      <trkpt lat="45.86595" lon="3.59533">
        <ele>565.9</ele>
      </trkpt>
      <trkpt lat="45.86598" lon="3.59539">
        <ele>565.4</ele>
      </trkpt>
      <trkpt lat="45.86605" lon="3.59553">
        <ele>564.1</ele>
      </trkpt>
      <trkpt lat="45.86607" lon="3.5956">
        <ele>562.9</ele>
      </trkpt>
      <trkpt lat="45.8661" lon="3.59563">
        <ele>561.8</ele>
      </trkpt>
      <trkpt lat="45.86615" lon="3.59564">
        <ele>560.6</ele>
      </trkpt>
      <trkpt lat="45.8662" lon="3.59563">
        <ele>559.7</ele>
      </trkpt>
      <trkpt lat="45.86625" lon="3.59558">
        <ele>559.5</ele>
      </trkpt>
      <trkpt lat="45.86634" lon="3.59549">
        <ele>558.3</ele>
      </trkpt>
      <trkpt lat="45.86644" lon="3.59538">
        <ele>556.6</ele>
      </trkpt>
      <trkpt lat="45.86654" lon="3.59526">
        <ele>555.9</ele>
      </trkpt>
      <trkpt lat="45.86656" lon="3.59522">
        <ele>555.6</ele>
      </trkpt>
      <trkpt lat="45.8666" lon="3.5952">
        <ele>555</ele>
      </trkpt>
      <trkpt lat="45.86662" lon="3.59525">
        <ele>554.7</ele>
      </trkpt>
      <trkpt lat="45.86666" lon="3.59535">
        <ele>552.8</ele>
      </trkpt>
      <trkpt lat="45.86667" lon="3.59542">
        <ele>551.3</ele>
      </trkpt>
      <trkpt lat="45.86667" lon="3.59544">
        <ele>551</ele>
      </trkpt>
      <trkpt lat="45.86663" lon="3.59556">
        <ele>550</ele>
      </trkpt>
      <trkpt lat="45.86659" lon="3.59565">
        <ele>549.2</ele>
      </trkpt>
      <trkpt lat="45.86653" lon="3.59576">
        <ele>548.5</ele>
      </trkpt>
      <trkpt lat="45.86637" lon="3.59602">
        <ele>548</ele>
      </trkpt>
      <trkpt lat="45.86633" lon="3.5961">
        <ele>547.1</ele>
      </trkpt>
      <trkpt lat="45.86633" lon="3.59612">
        <ele>546.9</ele>
      </trkpt>
      <trkpt lat="45.86632" lon="3.59616">
        <ele>547.5</ele>
      </trkpt>
      <trkpt lat="45.86633" lon="3.59619">
        <ele>547.7</ele>
      </trkpt>
      <trkpt lat="45.86633" lon="3.59621">
        <ele>547.9</ele>
      </trkpt>
      <trkpt lat="45.86635" lon="3.59625">
        <ele>547.8</ele>
      </trkpt>
      <trkpt lat="45.86637" lon="3.59629">
        <ele>547.7</ele>
      </trkpt>
      <trkpt lat="45.8664" lon="3.59633">
        <ele>547.4</ele>
      </trkpt>
      <trkpt lat="45.86645" lon="3.59639">
        <ele>546.9</ele>
      </trkpt>
      <trkpt lat="45.8665" lon="3.59643">
        <ele>546.5</ele>
      </trkpt>
      <trkpt lat="45.86655" lon="3.59646">
        <ele>546</ele>
      </trkpt>
      <trkpt lat="45.86663" lon="3.59649">
        <ele>544.8</ele>
      </trkpt>
      <trkpt lat="45.86677" lon="3.59655">
        <ele>544.2</ele>
      </trkpt>
      <trkpt lat="45.86709" lon="3.59666">
        <ele>543.3</ele>
      </trkpt>
      <trkpt lat="45.8672" lon="3.59672">
        <ele>542.8</ele>
      </trkpt>
      <trkpt lat="45.8673" lon="3.59677">
        <ele>541.7</ele>
      </trkpt>
      <trkpt lat="45.86734" lon="3.5968">
        <ele>541.3</ele>
      </trkpt>
      <trkpt lat="45.86738" lon="3.59683">
        <ele>540.9</ele>
      </trkpt>
      <trkpt lat="45.86741" lon="3.59687">
        <ele>540.8</ele>
      </trkpt>
      <trkpt lat="45.86744" lon="3.59691">
        <ele>540.7</ele>
      </trkpt>
      <trkpt lat="45.86746" lon="3.59695">
        <ele>540.8</ele>
      </trkpt>
      <trkpt lat="45.86747" lon="3.59699">
        <ele>541.2</ele>
      </trkpt>
      <trkpt lat="45.86747" lon="3.59701">
        <ele>541.5</ele>
      </trkpt>
      <trkpt lat="45.86749" lon="3.59708">
        <ele>542.1</ele>
      </trkpt>
      <trkpt lat="45.86752" lon="3.59715">
        <ele>542.7</ele>
      </trkpt>
      <trkpt lat="45.86756" lon="3.59726">
        <ele>543.5</ele>
      </trkpt>
      <trkpt lat="45.86762" lon="3.59744">
        <ele>543.4</ele>
      </trkpt>
      <trkpt lat="45.86767" lon="3.59764">
        <ele>542.5</ele>
      </trkpt>
      <trkpt lat="45.86771" lon="3.59782">
        <ele>541.2</ele>
      </trkpt>
      <trkpt lat="45.86775" lon="3.59807">
        <ele>539.5</ele>
      </trkpt>
      <trkpt lat="45.86777" lon="3.59814">
        <ele>538.4</ele>
      </trkpt>
      <trkpt lat="45.86779" lon="3.59818">
        <ele>537.9</ele>
      </trkpt>
      <trkpt lat="45.86782" lon="3.5982">
        <ele>537.7</ele>
      </trkpt>
      <trkpt lat="45.86784" lon="3.59821">
        <ele>537.6</ele>
      </trkpt>
      <trkpt lat="45.86787" lon="3.59821">
        <ele>537.3</ele>
      </trkpt>
      <trkpt lat="45.86791" lon="3.5982">
        <ele>537</ele>
      </trkpt>
      <trkpt lat="45.86794" lon="3.59819">
        <ele>536.8</ele>
      </trkpt>
      <trkpt lat="45.86797" lon="3.59817">
        <ele>536.6</ele>
      </trkpt>
      <trkpt lat="45.86801" lon="3.59815">
        <ele>536.3</ele>
      </trkpt>
      <trkpt lat="45.86804" lon="3.59811">
        <ele>536.1</ele>
      </trkpt>
      <trkpt lat="45.86808" lon="3.59807">
        <ele>535.4</ele>
      </trkpt>
      <trkpt lat="45.86811" lon="3.59802">
        <ele>534.4</ele>
      </trkpt>
      <trkpt lat="45.86808" lon="3.59792">
        <ele>534.5</ele>
      </trkpt>
      <trkpt lat="45.868" lon="3.59768">
        <ele>533.7</ele>
      </trkpt>
      <trkpt lat="45.86798" lon="3.59756">
        <ele>532.8</ele>
      </trkpt>
      <trkpt lat="45.86797" lon="3.5975">
        <ele>532.5</ele>
      </trkpt>
      <trkpt lat="45.86798" lon="3.59745">
        <ele>532.5</ele>
      </trkpt>
      <trkpt lat="45.86799" lon="3.5974">
        <ele>532.6</ele>
      </trkpt>
      <trkpt lat="45.86801" lon="3.59731">
        <ele>532.7</ele>
      </trkpt>
      <trkpt lat="45.86803" lon="3.59723">
        <ele>532.7</ele>
      </trkpt>
      <trkpt lat="45.86806" lon="3.59714">
        <ele>532.5</ele>
      </trkpt>
      <trkpt lat="45.8681" lon="3.59706">
        <ele>532.2</ele>
      </trkpt>
      <trkpt lat="45.86813" lon="3.59702">
        <ele>531.8</ele>
      </trkpt>
      <trkpt lat="45.86817" lon="3.59703">
        <ele>530.9</ele>
      </trkpt>
      <trkpt lat="45.86837" lon="3.59709">
        <ele>527.9</ele>
      </trkpt>
      <trkpt lat="45.86864" lon="3.59714">
        <ele>530.5</ele>
      </trkpt>
      <trkpt lat="45.86873" lon="3.59716">
        <ele>531</ele>
      </trkpt>
      <trkpt lat="45.86875" lon="3.59716">
        <ele>531.1</ele>
      </trkpt>
      <trkpt lat="45.86879" lon="3.59716">
        <ele>531.4</ele>
      </trkpt>
      <trkpt lat="45.86885" lon="3.59715">
        <ele>531.8</ele>
      </trkpt>
      <trkpt lat="45.86886" lon="3.59722">
        <ele>531.8</ele>
      </trkpt>
      <trkpt lat="45.86887" lon="3.5973">
        <ele>531.9</ele>
      </trkpt>
      <trkpt lat="45.86895" lon="3.59777">
        <ele>533.2</ele>
      </trkpt>
      <trkpt lat="45.86897" lon="3.59785">
        <ele>533.3</ele>
      </trkpt>
      <trkpt lat="45.86903" lon="3.59822">
        <ele>533.2</ele>
      </trkpt>
      <trkpt lat="45.86906" lon="3.59839">
        <ele>533.3</ele>
      </trkpt>
      <trkpt lat="45.86909" lon="3.59854">
        <ele>533.8</ele>
      </trkpt>
      <trkpt lat="45.8691" lon="3.59862">
        <ele>534</ele>
      </trkpt>
      <trkpt lat="45.86915" lon="3.59863">
        <ele>534.8</ele>
      </trkpt>
      <trkpt lat="45.86918" lon="3.59864">
        <ele>535.1</ele>
      </trkpt>
      <trkpt lat="45.86922" lon="3.59866">
        <ele>535.6</ele>
      </trkpt>
      <trkpt lat="45.86925" lon="3.5987">
        <ele>536</ele>
      </trkpt>
      <trkpt lat="45.86927" lon="3.59876">
        <ele>536.3</ele>
      </trkpt>
      <trkpt lat="45.86932" lon="3.59888">
        <ele>537.2</ele>
      </trkpt>
      <trkpt lat="45.86935" lon="3.59899">
        <ele>538.1</ele>
      </trkpt>
      <trkpt lat="45.86938" lon="3.59906">
        <ele>539</ele>
      </trkpt>
      <trkpt lat="45.86942" lon="3.59914">
        <ele>540.3</ele>
      </trkpt>
      <trkpt lat="45.86946" lon="3.59921">
        <ele>541.1</ele>
      </trkpt>
      <trkpt lat="45.8695" lon="3.59926">
        <ele>541.4</ele>
      </trkpt>
      <trkpt lat="45.86953" lon="3.5993">
        <ele>541.8</ele>
      </trkpt>
      <trkpt lat="45.86961" lon="3.59936">
        <ele>542.8</ele>
      </trkpt>
      <trkpt lat="45.86968" lon="3.59941">
        <ele>544.1</ele>
      </trkpt>
      <trkpt lat="45.86974" lon="3.59945">
        <ele>545</ele>
      </trkpt>
      <trkpt lat="45.86976" lon="3.59947">
        <ele>545.1</ele>
      </trkpt>
      <trkpt lat="45.86985" lon="3.59954">
        <ele>545.5</ele>
      </trkpt>
      <trkpt lat="45.86985" lon="3.59954">
        <ele>545.5</ele>
      </trkpt>
      <trkpt lat="45.86995" lon="3.59962">
        <ele>546.2</ele>
      </trkpt>
      <trkpt lat="45.87001" lon="3.59969">
        <ele>546.8</ele>
      </trkpt>
      <trkpt lat="45.87008" lon="3.59976">
        <ele>547.3</ele>
      </trkpt>
      <trkpt lat="45.87013" lon="3.59983">
        <ele>548</ele>
      </trkpt>
      <trkpt lat="45.87018" lon="3.5999">
        <ele>548.7</ele>
      </trkpt>
      <trkpt lat="45.87024" lon="3.60005">
        <ele>550.2</ele>
      </trkpt>
      <trkpt lat="45.87028" lon="3.60017">
        <ele>551.2</ele>
      </trkpt>
      <trkpt lat="45.87034" lon="3.60036">
        <ele>553</ele>
      </trkpt>
      <trkpt lat="45.87036" lon="3.60048">
        <ele>554.3</ele>
      </trkpt>
      <trkpt lat="45.87039" lon="3.6006">
        <ele>555.4</ele>
      </trkpt>
      <trkpt lat="45.87043" lon="3.60078">
        <ele>557</ele>
      </trkpt>
      <trkpt lat="45.87051" lon="3.60116">
        <ele>561.4</ele>
      </trkpt>
      <trkpt lat="45.87062" lon="3.60169">
        <ele>566.5</ele>
      </trkpt>
      <trkpt lat="45.87064" lon="3.60176">
        <ele>567.2</ele>
      </trkpt>
      <trkpt lat="45.87065" lon="3.60189">
        <ele>568.5</ele>
      </trkpt>
      <trkpt lat="45.87066" lon="3.60192">
        <ele>568.8</ele>
      </trkpt>
      <trkpt lat="45.87066" lon="3.60195">
        <ele>569</ele>
      </trkpt>
      <trkpt lat="45.87066" lon="3.60195">
        <ele>569</ele>
      </trkpt>
      <trkpt lat="45.87064" lon="3.60195">
        <ele>569</ele>
      </trkpt>
      <trkpt lat="45.87065" lon="3.60214">
        <ele>570.6</ele>
      </trkpt>
      <trkpt lat="45.87065" lon="3.60226">
        <ele>571.7</ele>
      </trkpt>
      <trkpt lat="45.87066" lon="3.60239">
        <ele>572.8</ele>
      </trkpt>
      <trkpt lat="45.87067" lon="3.60246">
        <ele>573.5</ele>
      </trkpt>
      <trkpt lat="45.87068" lon="3.60258">
        <ele>574.6</ele>
      </trkpt>
      <trkpt lat="45.87068" lon="3.6026">
        <ele>574.8</ele>
      </trkpt>
      <trkpt lat="45.8707" lon="3.60267">
        <ele>575.6</ele>
      </trkpt>
      <trkpt lat="45.87071" lon="3.60277">
        <ele>576.5</ele>
      </trkpt>
      <trkpt lat="45.87076" lon="3.6029">
        <ele>577.2</ele>
      </trkpt>
      <trkpt lat="45.87083" lon="3.60307">
        <ele>578</ele>
      </trkpt>
      <trkpt lat="45.87087" lon="3.60315">
        <ele>578.5</ele>
      </trkpt>
      <trkpt lat="45.8709" lon="3.60321">
        <ele>578.9</ele>
      </trkpt>
      <trkpt lat="45.87094" lon="3.60326">
        <ele>579.4</ele>
      </trkpt>
      <trkpt lat="45.87095" lon="3.60327">
        <ele>579.5</ele>
      </trkpt>
      <trkpt lat="45.87105" lon="3.60335">
        <ele>580.7</ele>
      </trkpt>
      <trkpt lat="45.87111" lon="3.60338">
        <ele>581.5</ele>
      </trkpt>
      <trkpt lat="45.87125" lon="3.60344">
        <ele>582.3</ele>
      </trkpt>
      <trkpt lat="45.87135" lon="3.60348">
        <ele>582.5</ele>
      </trkpt>
      <trkpt lat="45.87144" lon="3.60354">
        <ele>582.7</ele>
      </trkpt>
      <trkpt lat="45.87149" lon="3.60358">
        <ele>582.9</ele>
      </trkpt>
      <trkpt lat="45.87153" lon="3.60361">
        <ele>583</ele>
      </trkpt>
      <trkpt lat="45.87153" lon="3.60362">
        <ele>583</ele>
      </trkpt>
      <trkpt lat="45.87157" lon="3.60365">
        <ele>583.2</ele>
      </trkpt>
      <trkpt lat="45.87163" lon="3.60367">
        <ele>583.2</ele>
      </trkpt>
      <trkpt lat="45.8717" lon="3.6037">
        <ele>583.4</ele>
      </trkpt>
      <trkpt lat="45.87176" lon="3.60372">
        <ele>583.5</ele>
      </trkpt>
      <trkpt lat="45.87183" lon="3.60374">
        <ele>583.5</ele>
      </trkpt>
      <trkpt lat="45.87188" lon="3.60375">
        <ele>583.5</ele>
      </trkpt>
      <trkpt lat="45.87196" lon="3.60378">
        <ele>583.4</ele>
      </trkpt>
      <trkpt lat="45.87202" lon="3.60381">
        <ele>583.1</ele>
      </trkpt>
      <trkpt lat="45.87204" lon="3.60382">
        <ele>583</ele>
      </trkpt>
      <trkpt lat="45.87208" lon="3.60384">
        <ele>582.8</ele>
      </trkpt>
      <trkpt lat="45.87214" lon="3.60388">
        <ele>582.4</ele>
      </trkpt>
      <trkpt lat="45.87219" lon="3.60393">
        <ele>582</ele>
      </trkpt>
      <trkpt lat="45.87219" lon="3.60394">
        <ele>582</ele>
      </trkpt>
      <trkpt lat="45.87232" lon="3.60375">
        <ele>583.5</ele>
      </trkpt>
      <trkpt lat="45.87263" lon="3.60336">
        <ele>585.9</ele>
      </trkpt>
      <trkpt lat="45.87275" lon="3.6032">
        <ele>587.1</ele>
      </trkpt>
      <trkpt lat="45.8728" lon="3.60316">
        <ele>587.9</ele>
      </trkpt>
      <trkpt lat="45.87284" lon="3.60314">
        <ele>588.4</ele>
      </trkpt>
      <trkpt lat="45.87289" lon="3.60312">
        <ele>589</ele>
      </trkpt>
      <trkpt lat="45.87294" lon="3.60312">
        <ele>589.5</ele>
      </trkpt>
      <trkpt lat="45.87313" lon="3.60312">
        <ele>591.8</ele>
      </trkpt>
      <trkpt lat="45.8732" lon="3.60311">
        <ele>592.9</ele>
      </trkpt>
      <trkpt lat="45.87328" lon="3.6031">
        <ele>594.1</ele>
      </trkpt>
      <trkpt lat="45.87333" lon="3.60309">
        <ele>594.8</ele>
      </trkpt>
      <trkpt lat="45.87337" lon="3.60309">
        <ele>595.3</ele>
      </trkpt>
      <trkpt lat="45.87347" lon="3.60309">
        <ele>596.4</ele>
      </trkpt>
      <trkpt lat="45.87359" lon="3.60311">
        <ele>597.6</ele>
      </trkpt>
      <trkpt lat="45.87375" lon="3.60315">
        <ele>599.5</ele>
      </trkpt>
      <trkpt lat="45.87395" lon="3.6032">
        <ele>601.9</ele>
      </trkpt>
      <trkpt lat="45.87426" lon="3.6033">
        <ele>605.8</ele>
      </trkpt>
      <trkpt lat="45.87456" lon="3.6034">
        <ele>609.9</ele>
      </trkpt>
      <trkpt lat="45.8747" lon="3.60343">
        <ele>612.4</ele>
      </trkpt>
      <trkpt lat="45.87479" lon="3.60343">
        <ele>612.8</ele>
      </trkpt>
      <trkpt lat="45.87486" lon="3.60342">
        <ele>612.9</ele>
      </trkpt>
      <trkpt lat="45.87496" lon="3.60338">
        <ele>613.4</ele>
      </trkpt>
      <trkpt lat="45.87509" lon="3.60331">
        <ele>614.7</ele>
      </trkpt>
      <trkpt lat="45.87515" lon="3.60327">
        <ele>615.9</ele>
      </trkpt>
      <trkpt lat="45.8752" lon="3.60325">
        <ele>616.6</ele>
      </trkpt>
      <trkpt lat="45.87528" lon="3.60324">
        <ele>617.1</ele>
      </trkpt>
      <trkpt lat="45.87538" lon="3.60323">
        <ele>618.7</ele>
      </trkpt>
      <trkpt lat="45.87557" lon="3.60324">
        <ele>620.8</ele>
      </trkpt>
      <trkpt lat="45.87566" lon="3.60324">
        <ele>621.8</ele>
      </trkpt>
      <trkpt lat="45.87571" lon="3.60323">
        <ele>622.6</ele>
      </trkpt>
      <trkpt lat="45.87578" lon="3.6032">
        <ele>624.3</ele>
      </trkpt>
      <trkpt lat="45.8759" lon="3.60314">
        <ele>626.9</ele>
      </trkpt>
      <trkpt lat="45.87607" lon="3.60305">
        <ele>629.2</ele>
      </trkpt>
      <trkpt lat="45.87622" lon="3.60296">
        <ele>632</ele>
      </trkpt>
      <trkpt lat="45.87635" lon="3.60288">
        <ele>633.6</ele>
      </trkpt>
      <trkpt lat="45.87653" lon="3.60276">
        <ele>635.3</ele>
      </trkpt>
      <trkpt lat="45.87678" lon="3.6026">
        <ele>637.6</ele>
      </trkpt>
      <trkpt lat="45.87691" lon="3.60251">
        <ele>638.1</ele>
      </trkpt>
      <trkpt lat="45.87693" lon="3.60249">
        <ele>638.1</ele>
      </trkpt>
      <trkpt lat="45.87706" lon="3.6024">
        <ele>638.6</ele>
      </trkpt>
      <trkpt lat="45.87718" lon="3.6023">
        <ele>638.8</ele>
      </trkpt>
      <trkpt lat="45.87721" lon="3.60228">
        <ele>638.8</ele>
      </trkpt>
      <trkpt lat="45.87727" lon="3.60224">
        <ele>638.6</ele>
      </trkpt>
      <trkpt lat="45.87738" lon="3.60217">
        <ele>637.9</ele>
      </trkpt>
      <trkpt lat="45.8775" lon="3.6021">
        <ele>637.4</ele>
      </trkpt>
      <trkpt lat="45.87758" lon="3.60205">
        <ele>637.5</ele>
      </trkpt>
      <trkpt lat="45.87774" lon="3.60196">
        <ele>637.9</ele>
      </trkpt>
      <trkpt lat="45.87783" lon="3.60191">
        <ele>638.1</ele>
      </trkpt>
      <trkpt lat="45.87793" lon="3.60187">
        <ele>638.6</ele>
      </trkpt>
      <trkpt lat="45.87801" lon="3.60184">
        <ele>639.1</ele>
      </trkpt>
      <trkpt lat="45.87812" lon="3.60182">
        <ele>639.6</ele>
      </trkpt>
      <trkpt lat="45.87822" lon="3.60181">
        <ele>639.8</ele>
      </trkpt>
      <trkpt lat="45.87828" lon="3.60181">
        <ele>639.9</ele>
      </trkpt>
      <trkpt lat="45.87844" lon="3.60181">
        <ele>639.8</ele>
      </trkpt>
      <trkpt lat="45.87851" lon="3.60182">
        <ele>639.7</ele>
      </trkpt>
      <trkpt lat="45.87857" lon="3.60184">
        <ele>639.7</ele>
      </trkpt>
      <trkpt lat="45.87864" lon="3.60186">
        <ele>639.7</ele>
      </trkpt>
      <trkpt lat="45.87878" lon="3.60191">
        <ele>639.8</ele>
      </trkpt>
      <trkpt lat="45.87891" lon="3.60196">
        <ele>639.7</ele>
      </trkpt>
      <trkpt lat="45.87912" lon="3.60203">
        <ele>637.9</ele>
      </trkpt>
      <trkpt lat="45.87922" lon="3.60206">
        <ele>637</ele>
      </trkpt>
      <trkpt lat="45.87928" lon="3.60206">
        <ele>636.3</ele>
      </trkpt>
      <trkpt lat="45.87936" lon="3.60206">
        <ele>635.4</ele>
      </trkpt>
      <trkpt lat="45.87943" lon="3.60205">
        <ele>634.5</ele>
      </trkpt>
      <trkpt lat="45.87949" lon="3.60203">
        <ele>634</ele>
      </trkpt>
      <trkpt lat="45.87958" lon="3.602">
        <ele>633.2</ele>
      </trkpt>
      <trkpt lat="45.87973" lon="3.60194">
        <ele>631.9</ele>
      </trkpt>
      <trkpt lat="45.8799" lon="3.60189">
        <ele>630.2</ele>
      </trkpt>
      <trkpt lat="45.88013" lon="3.6018">
        <ele>628.7</ele>
      </trkpt>
      <trkpt lat="45.88032" lon="3.60173">
        <ele>628.3</ele>
      </trkpt>
      <trkpt lat="45.88036" lon="3.60171">
        <ele>628.4</ele>
      </trkpt>
      <trkpt lat="45.8804" lon="3.60169">
        <ele>628.5</ele>
      </trkpt>
      <trkpt lat="45.88043" lon="3.60164">
        <ele>628.7</ele>
      </trkpt>
      <trkpt lat="45.88051" lon="3.60171">
        <ele>628.9</ele>
      </trkpt>
      <trkpt lat="45.88052" lon="3.60172">
        <ele>628.9</ele>
      </trkpt>
      <trkpt lat="45.88072" lon="3.60189">
        <ele>629.2</ele>
      </trkpt>
      <trkpt lat="45.88087" lon="3.60201">
        <ele>628.5</ele>
      </trkpt>
      <trkpt lat="45.88097" lon="3.60209">
        <ele>628.2</ele>
        <extensions>
          <visugpx:TrkExtension xmlns:visugpx="https://www.visugpx.com/editgpx/">
            <visugpx:node>19</visugpx:node>
            </visugpx:TrkExtension>
        </extensions>
      </trkpt>
    </trkseg>
  </trk>
</gpx>